GFSGL_con_mlcape_000.txt.gz
CAPE
0 0 0 3 0 0 0 0 0 0 0 0 0 0 0 0 30 26 27 34 22 20 45 71 40 60 51 8 35 38 32 34 40 43 34 35 36 46 38 26 3 0 0
0 0 0 2 0 0 0 0 0 0 0 0 0 1 0 2 19 17 26 41 9 9 28 38 34 20 10 1 19 23 18 28 29 31 34 37 28 15 8 5 1 0 0
0 0 0 0 0 0 0 0 0 0 0 0 0 0 0 1 9 8 3 8 8 4 2 8 12 8 4 13 20 29 10 21 32 33 5 1 2 0 1 0 0 0 0
0 0 0 0 0 0 0 0 0 0 0 0 0 0 0 5 0 0 0 0 1 1 3 1 2 3 0 8 17 13 16 5 5 23 1 1 0 0 3 3 0 0 0
0 0 0 0 0 0 0 0 0 0 0 0 0 0 0 0 0 0 0 0 1 0 1 0 0 0 1 2 10 8 5 11 17 13 4 9 9 13 25 0 0 0 0
0 0 0 0 0 0 0 0 0 0 0 0 0 0 0 0 0 0 0 0 1 1 1 0 0 0 0 2 8 8 19 18 8 16 28 27 9 6 0 0 0 0 0
0 0 0 0 0 0 0 0 0 0 0 0 0 0 0 0 0 0 0 0 1 2 0 0 1 0 1 0 2 3 16 22 25 24 31 15 0 0 0 0 0 0 0
0 0 0 0 0 0 0 0 0 0 0 0 0 0 0 0 0 1 2 1 1 1 0 0 0 6 7 27 35 27 5 6 3 0 0 0 0 0 0 0 0 0 0
0 0 0 0 0 0 0 0 0 0 0 0 0 0 0 0 0 0 7 0 0 1 1 3 6 13 10 0 1 0 0 0 0 0 0 0 0 0 0 0 0 0 0
0 0 0 0 0 0 0 0 0 0 0 0 0 0 0 0 0 0 1 7 10 14 8 0 3 0 0 2 2 0 0 0 0 0 0 0 0 0 0 0 0 0 0
0 0 0 0 0 0 0 0 0 0 0 0 0 0 0 0 0 0 0 0 4 8 3 0 0 0 0 0 0 0 0 0 0 0 0 0 0 0 0 0 0 0 0
0 0 0 0 0 0 0 0 0 0 0 0 0 0 0 0 0 0 0 0 0 0 0 0 0 0 0 0 0 0 0 0 0 0 0 0 0 0 0 0 0 0 0
0 0 0 0 0 0 0 0 0 0 0 0 0 0 0 0 0 0 0 0 0 0 0 0 0 0 0 0 0 0 0 0 0 0 0 0 0 0 0 0 0 0 0
0 0 0 0 0 0 0 0 0 0 0 0 0 0 0 0 0 0 0 0 0 0 0 0 0 0 0 0 0 0 0 0 0 0 0 0 0 0 0 0 0 0 0
0 0 0 0 0 0 0 0 0 0 0 0 0 0 0 0 0 0 0 0 0 0 0 0 0 0 0 0 0 0 0 0 0 0 0 0 0 0 0 0 0 0 0
0 0 0 0 0 0 0 0 0 0 0 0 0 0 0 0 0 0 0 0 0 0 0 0 0 0 0 0 0 0 0 0 0 0 0 0 0 0 0 0 0 0 0
0 0 0 0 0 0 0 0 0 0 0 0 0 0 0 0 0 0 0 0 0 0 0 0 0 0 0 0 0 0 0 0 0 0 0 0 0 0 0 0 0 0 0
0 0 0 0 0 0 0 0 0 0 0 0 0 0 0 0 0 0 0 0 0 0 0 0 0 0 0 0 0 0 0 0 0 0 0 0 0 0 0 0 0 0 0
0 0 0 0 0 0 0 0 0 0 0 0 0 0 0 0 0 0 0 0 0 0 0 0 0 0 0 0 0 0 0 0 0 0 0 0 0 0 0 0 0 0 0
0 0 0 0 0 0 0 0 0 0 0 0 0 0 0 0 0 0 0 0 0 0 0 0 0 0 0 0 0 0 0 0 0 0 0 0 0 0 0 0 0 0 0
0 0 0 0 0 0 0 0 0 0 0 0 0 0 0 0 0 0 0 0 0 0 0 0 0 0 0 0 0 0 0 0 0 0 0 0 0 0 0 0 0 0 0
0 0 0 0 0 0 0 0 0 0 0 0 0 0 0 0 0 0 0 0 0 0 0 0 0 0 0 0 0 0 0 0 0 0 0 0 0 0 0 0 0 0 0
0 0 0 0 0 0 0 0 0 0 0 0 0 0 0 0 0 0 0 0 0 0 0 0 0 0 0 0 0 0 0 0 0 0 0 0 0 0 0 0 0 0 0
0 0 0 0 0 0 0 0 0 0 0 0 0 0 0 0 0 0 0 0 0 0 0 0 0 0 0 0 0 0 0 0 0 0 0 0 0 0 0 0 0 0 0
0 0 0 0 0 0 0 0 0 0 0 0 0 0 0 0 0 0 0 0 0 0 0 0 0 0 0 0 0 0 0 0 0 0 0 0 0 0 0 0 0 0 0
0 0 0 0 0 0 0 0 0 0 0 0 0 0 0 0 0 0 0 0 0 0 0 0 0 0 0 0 0 0 0 0 0 0 0 0 0 0 0 0 0 0 0

GFSGL_con_mlcape_003.txt.gz
CAPE
0 0 2 60 12 0 0 0 0 0 0 0 0 16 40 128 264 143 121 69 57 168 309 152 187 369 319 420 224 116 49 64 79 61 69 20 27 54 50 45 30 9 13
0 0 2 68 23 0 0 0 0 0 0 0 39 43 41 107 186 160 69 14 19 62 74 82 116 208 271 356 242 205 136 51 44 47 39 6 20 29 9 9 10 15 10
0 0 13 24 24 13 0 0 0 0 0 0 102 69 78 96 139 131 125 25 24 31 99 62 147 133 147 176 194 180 144 49 49 57 20 9 7 1 3 0 0 1 0
0 0 0 0 0 0 0 0 0 0 0 89 138 76 82 68 18 58 46 4 13 22 50 84 127 59 100 96 68 86 145 37 20 16 14 2 1 0 0 0 0 0 0
0 0 0 0 0 0 0 0 13 15 21 70 90 61 74 29 2 5 8 4 21 14 61 70 114 63 28 15 58 44 81 34 4 5 3 3 0 0 0 8 7 0 0
0 0 0 0 0 0 0 0 16 11 48 102 61 40 55 2 0 0 0 5 43 76 55 38 13 2 6 0 3 5 36 9 2 2 1 0 1 28 26 9 0 0 0
0 0 0 0 0 0 0 0 0 3 63 61 54 100 107 0 0 0 0 8 7 37 71 23 13 1 26 10 0 2 7 1 12 22 47 42 37 38 9 0 0 0 0
0 0 0 0 0 0 0 0 0 0 15 18 37 138 89 1 0 0 0 5 4 3 70 82 7 30 17 44 11 34 30 40 36 37 63 65 71 55 0 0 0 0 0
0 0 0 0 0 0 0 0 0 0 0 1 33 46 48 0 0 1 16 2 3 6 45 54 49 19 0 3 18 39 47 3 0 0 0 0 4 3 0 0 0 0 2
0 0 0 0 0 0 0 0 0 0 0 0 2 52 26 3 0 0 45 51 25 21 5 0 2 5 0 5 94 54 14 0 0 0 0 0 0 0 0 2 2 32 40
0 0 0 0 0 0 0 0 0 0 0 0 0 0 6 4 0 0 2 3 38 37 20 26 6 0 0 0 0 0 0 0 0 26 3 1 0 0 0 1 26 54 30
0 0 0 0 0 0 0 0 0 0 0 0 0 0 0 0 0 0 0 4 12 7 10 2 0 0 0 0 0 0 0 0 0 0 1 3 0 0 0 0 0 0 0
0 0 0 0 0 0 0 0 0 0 0 0 0 0 0 0 0 0 0 0 0 42 8 0 0 0 0 0 0 0 0 0 0 5 0 0 0 0 0 0 0 0 0
0 0 0 0 0 0 0 0 0 0 0 0 0 0 0 0 0 0 0 0 0 0 0 0 0 0 0 0 0 0 0 0 0 0 0 0 0 0 0 0 0 0 0
0 0 0 0 0 0 0 0 0 0 0 0 0 0 0 0 0 0 0 0 0 0 0 0 0 0 0 0 0 0 0 0 0 0 0 0 0 0 0 0 0 0 0
0 0 0 0 0 0 0 0 0 0 0 0 0 0 0 0 0 0 0 0 0 0 0 0 0 0 0 0 0 0 0 0 0 0 0 0 0 0 0 0 0 0 0
0 0 0 0 0 0 0 0 0 0 0 0 0 0 0 0 0 0 0 0 0 0 0 0 0 0 0 0 0 0 0 0 0 0 0 0 0 0 0 0 0 0 0
0 0 0 0 0 0 0 0 0 0 0 1 0 0 0 0 0 0 0 0 0 0 0 0 0 0 0 0 0 0 0 0 0 0 0 0 0 0 0 0 0 0 0
0 0 0 0 0 0 0 0 0 0 0 0 0 0 0 0 0 0 0 0 0 0 0 0 0 0 0 0 0 0 0 0 0 0 0 0 0 0 0 0 0 0 0
0 0 0 0 0 0 0 0 0 0 0 0 0 0 0 0 0 0 0 0 0 0 0 0 0 0 0 0 0 0 0 0 0 0 0 0 0 0 0 0 0 0 0
0 0 0 0 0 0 0 0 0 0 0 0 0 0 0 0 0 0 0 0 0 0 0 0 0 0 0 0 0 0 0 0 0 0 0 0 0 0 0 0 0 0 0
0 0 0 0 0 0 0 0 0 0 0 0 0 0 0 0 0 0 0 0 0 0 0 0 0 0 0 0 0 0 0 0 0 0 0 0 0 0 0 0 0 0 0
0 0 0 0 0 0 0 0 0 0 0 0 0 0 0 0 0 0 0 0 0 0 0 0 0 0 0 0 0 0 0 0 0 0 0 0 0 0 0 0 0 0 0
0 0 0 0 0 0 0 0 0 0 0 0 0 0 0 0 0 0 0 0 0 0 0 0 0 0 0 0 0 0 0 0 0 0 0 0 0 0 0 0 0 0 0
0 0 0 0 0 0 0 0 0 0 0 0 0 0 0 0 0 0 0 0 0 0 0 0 0 0 0 0 0 0 0 0 0 0 0 0 0 0 0 0 0 0 0
2 0 0 0 0 0 0 0 0 0 0 0 0 0 0 0 0 0 0 0 0 0 0 0 0 0 0 0 0 0 0 0 0 0 0 0 0 0 0 0 0 0 0

GFSGL_con_mlcape_009.txt.gz
CAPE
133 109 111 162 73 174 117 19 19 15 9 12 32 44 48 90 349 514 589 455 299 417 497 513 639 782 401 456 539 489 284 147 16 6 4 9 5 3 2 2 1 3 9
66 129 98 168 203 198 103 6 16 9 6 23 27 40 36 122 279 454 254 190 332 440 569 469 503 629 548 495 300 204 116 26 0 2 10 15 5 4 2 28 29 7 0
71 72 128 83 210 177 89 11 9 5 11 19 27 23 58 165 334 170 191 201 346 457 475 517 499 492 561 338 142 96 53 11 4 1 48 31 7 3 37 16 45 17 28
32 62 65 115 70 221 15 18 17 6 7 25 23 27 54 119 213 217 36 202 255 271 319 476 444 583 439 192 50 23 19 24 6 21 20 33 17 41 5 7 5 5 7
24 59 138 115 90 29 21 19 22 18 25 26 23 36 65 117 103 268 283 255 65 158 310 346 177 134 249 136 0 29 24 16 18 28 23 19 22 19 0 0 0 0 0
18 37 47 26 22 28 21 17 19 26 25 21 18 37 58 20 0 0 64 221 120 121 72 14 13 31 14 23 47 10 4 1 12 8 6 5 3 1 0 0 0 0 0
27 37 5 11 15 31 33 13 26 27 14 18 26 67 130 0 0 0 0 368 336 270 138 80 33 4 8 9 1 1 4 3 0 1 0 1 0 14 0 0 0 0 0
24 25 3 32 69 37 43 106 193 396 354 330 157 172 115 0 0 0 0 354 312 223 212 126 47 38 26 33 21 31 22 17 0 0 0 0 1 11 57 0 0 7 0
3 34 3 94 104 144 126 234 338 594 628 405 377 285 108 0 0 0 0 174 95 150 173 128 89 47 0 1 28 2 0 0 0 0 0 2 0 64 64 0 9 4 0
0 28 22 80 71 47 122 314 348 390 330 337 316 279 31 0 0 0 0 66 188 76 109 71 8 6 0 3 21 0 0 0 0 0 0 0 24 69 0 7 1 0 4
0 38 61 119 91 275 129 178 193 129 117 395 343 196 72 47 0 0 0 137 133 73 29 20 1 0 1 9 5 0 1 0 0 10 2 6 35 6 0 0 10 148 67
0 15 102 147 144 348 321 48 7 31 179 411 334 125 39 34 0 0 0 37 20 27 13 10 0 0 0 0 42 31 11 12 33 28 44 99 22 0 0 25 106 188 226
0 0 32 166 120 295 293 3 0 14 242 317 293 184 56 30 0 0 0 0 5 189 15 1 0 0 0 0 0 0 0 6 2 1 1 0 0 0 31 291 270 47 15
0 0 0 17 64 186 50 0 0 0 110 169 196 187 164 78 12 1 0 1 0 0 0 0 0 0 0 0 0 0 1 22 26 29 11 3 20 234 205 163 33 0 0
0 0 0 0 25 109 43 8 0 0 0 14 57 125 155 116 82 24 5 12 33 11 1 0 0 0 0 0 0 0 24 28 36 28 2 10 50 100 49 24 0 0 0
0 0 0 0 8 50 82 98 0 0 0 0 0 18 78 44 21 5 0 0 0 0 5 0 0 0 7 0 0 0 0 0 1 0 0 0 0 0 0 0 0 0 0
0 0 0 0 0 132 50 139 96 0 0 0 0 0 0 12 11 0 0 0 0 0 34 12 12 7 10 6 3 0 0 0 0 0 6 0 0 0 0 0 0 0 0
0 0 0 0 0 0 72 142 167 104 25 0 0 0 0 0 0 0 0 0 0 0 0 45 34 16 4 2 1 0 0 0 0 0 0 0 0 0 0 0 0 0 0
0 0 0 0 0 0 0 0 40 63 85 11 0 0 0 0 0 0 0 0 0 0 0 0 0 0 0 0 0 0 0 0 0 0 0 0 0 0 0 0 0 0 0
0 0 0 0 0 0 0 0 0 0 0 0 0 0 0 0 0 0 0 0 0 0 0 0 0 0 0 0 0 0 0 0 0 0 0 0 0 0 0 0 0 0 0
0 0 0 0 0 0 0 0 0 0 0 0 0 0 0 0 0 0 0 0 0 0 0 0 0 0 0 0 0 0 0 0 0 0 0 0 0 0 0 0 0 0 0
126 19 0 0 0 0 0 0 0 0 0 0 0 0 0 0 0 0 0 0 0 0 0 0 0 0 0 0 0 0 0 0 0 0 0 0 0 0 0 0 0 0 0
395 206 60 0 0 0 0 0 0 0 0 0 0 0 0 0 0 0 0 0 0 0 0 0 0 0 0 0 0 0 0 0 0 0 0 0 0 0 0 0 0 0 0
481 381 344 16 0 0 0 0 0 0 0 0 0 0 0 0 0 0 0 0 0 0 0 0 0 0 0 0 0 0 0 0 0 0 0 0 0 0 0 0 0 0 0
422 480 547 248 11 0 0 0 0 0 0 0 0 0 0 0 0 0 0 0 0 0 0 0 0 0 0 0 0 0 0 0 0 0 0 0 0 0 0 0 0 0 0
277 382 680 481 152 30 2 1 0 0 0 0 0 0 0 0 0 0 0 0 0 0 0 0 0 0 0 0 0 0 0 0 0 0 0 0 0 0 0 0 0 0 0

GFSGL_con_mlcape_012.txt.gz
CAPE
428 475 273 172 143 84 67 16 20 0 0 0 25 16 27 51 203 320 209 497 389 400 522 418 610 373 224 175 241 242 268 39 2 3 2 3 3 7 13 10 5 1 4
293 281 245 252 74 168 105 10 6 1 0 7 21 23 63 91 268 196 369 170 381 388 471 298 429 286 117 285 193 202 25 2 0 2 3 4 2 3 7 25 18 17 4
413 283 209 132 141 155 38 8 6 5 0 20 11 40 53 302 72 77 186 181 345 341 355 334 147 133 175 217 166 5 2 1 1 0 3 2 6 15 28 12 14 21 2
340 155 320 138 88 139 31 7 10 1 6 9 33 33 83 170 210 101 108 196 88 123 138 161 173 113 162 63 54 21 2 3 7 3 3 14 14 30 30 2 5 9 12
167 209 91 154 48 61 13 19 7 11 12 24 21 34 111 112 39 160 258 49 72 55 83 76 60 122 84 24 7 6 5 11 13 7 6 7 14 30 1 1 2 2 9
158 270 189 126 167 13 6 13 7 19 18 20 32 31 100 0 0 0 106 47 66 70 22 77 48 28 7 0 2 0 6 0 6 15 17 6 2 0 0 0 0 0 5
170 149 100 94 80 9 13 11 14 20 20 29 21 95 7 0 0 0 25 110 118 67 33 16 33 6 1 0 0 0 0 2 1 0 1 0 0 0 0 0 0 0 0
98 107 106 100 28 11 18 17 9 2 11 25 20 137 14 0 0 0 0 235 193 101 34 19 34 20 2 0 3 1 1 1 1 0 0 0 0 0 0 0 0 0 0
55 75 115 111 41 21 10 73 34 37 17 77 249 167 12 0 0 0 72 165 137 92 43 53 16 8 0 1 1 0 0 0 0 0 0 0 8 0 0 0 0 0 0
44 57 192 172 174 47 233 282 130 123 75 115 328 74 2 0 0 0 0 109 106 55 32 4 0 3 0 0 0 0 0 0 0 0 0 0 4 2 0 4 0 0 0
50 66 226 215 296 254 325 326 221 173 114 244 99 37 13 0 0 0 0 12 21 28 0 0 0 0 0 2 0 0 0 0 0 0 0 0 1 9 14 18 76 0 0
43 100 273 246 420 359 270 257 133 108 22 146 60 4 36 4 0 0 0 8 23 13 1 0 0 0 0 0 0 0 0 0 0 0 0 2 10 0 15 9 107 95 178
12 194 365 171 646 531 228 152 108 141 107 199 159 34 30 0 0 0 0 0 7 11 0 0 0 0 0 1 0 0 0 0 2 0 0 0 0 0 0 61 67 2 52
10 271 425 294 646 490 264 13 35 190 280 429 239 132 34 0 0 0 0 0 0 0 0 0 0 0 0 0 0 0 14 31 1 0 5 75 10 0 25 224 42 0 0
1 214 344 307 342 380 189 0 3 0 198 328 338 242 64 59 10 5 29 6 0 0 0 0 0 0 0 0 0 0 0 39 13 1 6 0 11 97 172 199 21 0 0
0 71 99 146 126 256 164 0 0 0 0 0 36 285 129 199 10 1 19 18 9 0 0 0 0 0 0 0 0 0 6 55 65 72 66 78 152 156 172 73 4 0 0
0 0 7 36 87 259 141 196 5 0 0 0 0 0 10 15 0 0 0 0 0 0 15 0 0 0 0 0 0 0 0 0 9 4 0 0 0 1 1 0 0 0 0
0 0 0 0 125 64 181 252 194 15 0 0 0 0 0 0 0 0 0 0 0 0 35 66 39 2 9 3 0 0 0 0 0 0 0 0 0 0 0 0 0 0 0
0 0 0 0 0 4 162 181 265 175 55 4 0 0 0 0 0 0 0 0 0 0 0 14 123 98 38 37 12 0 0 0 0 0 0 0 0 0 0 0 0 0 0
5 0 0 0 0 0 0 34 176 257 159 37 0 0 0 0 0 0 0 0 0 0 0 0 0 2 3 5 5 0 0 0 0 0 0 0 0 0 0 0 0 0 0
0 0 0 0 0 0 0 0 0 0 163 161 28 0 0 0 0 0 0 0 0 0 0 0 0 0 0 0 0 0 0 0 0 0 0 0 0 0 0 0 0 0 0
26 6 0 0 0 0 0 0 0 0 0 0 0 0 0 0 0 0 0 0 0 0 0 0 0 0 0 0 0 0 0 0 0 0 0 0 0 0 0 0 0 0 0
216 128 86 0 0 0 0 0 0 0 0 0 0 0 0 0 0 0 0 0 0 0 0 0 0 0 0 0 0 0 0 0 0 0 0 0 0 0 0 0 0 0 0
657 442 278 143 1 0 0 0 0 0 0 0 0 0 0 0 0 0 0 0 0 0 0 0 0 0 0 0 0 0 0 0 0 0 0 0 0 0 0 0 0 0 0
439 593 686 501 138 0 0 0 0 0 0 0 0 0 0 0 0 0 0 0 0 0 0 0 0 0 0 0 0 0 0 0 0 0 0 0 0 0 0 0 0 0 0
421 545 642 742 665 148 8 0 0 0 0 0 0 0 0 0 0 0 0 0 0 0 0 4 0 0 0 0 0 0 0 0 0 0 0 0 0 0 0 0 0 0 0

GFSGL_con_mlcape_015.txt.gz
CAPE
322 184 144 129 83 5 7 0 0 0 0 2 0 9 13 16 23 29 41 67 122 147 180 164 139 152 157 188 153 151 80 25 2 1 2 2 1 1 3 3 5 26 1
281 260 114 101 69 11 0 3 0 0 0 0 5 15 39 56 20 11 39 83 233 87 67 126 163 155 124 94 95 30 2 1 0 1 2 2 1 7 19 9 15 7 4
213 140 179 112 55 28 1 4 0 0 0 7 21 23 20 19 50 29 111 129 173 61 96 83 156 114 183 91 9 2 2 1 1 2 4 6 8 8 4 9 4 4 2
207 83 76 176 79 8 0 3 0 0 0 19 24 67 65 140 103 64 154 56 76 63 100 121 113 55 78 26 7 1 1 1 2 2 4 10 5 12 20 6 5 4 2
211 137 104 162 36 8 9 8 6 1 9 27 25 70 2 1 28 95 35 26 13 26 30 53 64 59 18 2 1 3 3 3 2 3 10 10 5 6 5 4 2 4 8
221 127 151 20 36 15 21 15 4 16 21 16 31 0 0 0 0 9 33 38 18 25 23 10 4 0 2 8 0 5 0 0 3 4 6 8 7 2 3 2 2 5 8
218 199 220 140 3 2 8 15 14 19 16 26 22 0 0 0 0 0 6 67 15 8 3 16 3 0 0 0 0 0 0 0 0 0 2 1 2 1 0 1 0 0 0
126 108 114 82 6 7 7 9 14 17 18 26 26 0 0 0 0 0 36 96 55 20 9 5 0 0 0 0 1 0 5 9 3 0 0 0 0 0 0 0 0 0 0
78 78 112 64 2 22 11 15 13 2 29 14 38 0 0 0 0 0 106 35 7 8 11 1 0 0 0 0 0 0 1 0 0 0 0 0 0 0 0 0 0 0 0
60 67 175 54 14 14 4 0 25 11 17 31 47 0 0 0 0 0 17 13 0 0 0 0 0 0 0 0 0 0 0 0 0 0 2 0 0 0 0 0 0 0 0
49 60 157 75 90 146 122 28 28 61 67 31 11 0 0 0 0 0 0 0 0 0 0 0 0 0 0 0 0 2 0 0 0 1 1 0 0 0 0 0 0 0 0
40 163 258 209 348 249 176 191 130 10 6 3 2 0 0 0 0 0 0 0 0 0 0 0 0 0 0 0 0 0 0 0 0 0 0 0 0 0 2 8 1 0 0
29 211 151 165 164 65 37 163 72 25 1 0 0 0 0 0 0 0 0 0 0 0 0 0 0 0 0 0 0 0 0 0 0 0 0 0 0 0 2 12 11 11 0
132 146 209 378 291 145 24 135 43 57 12 4 5 0 0 0 0 0 0 0 0 0 0 0 0 0 0 0 0 0 0 0 0 0 0 0 0 0 0 0 0 0 0
201 153 131 347 348 161 0 8 3 129 179 83 26 2 0 0 0 0 0 0 0 0 0 0 0 0 0 0 0 0 0 0 0 0 0 0 0 0 0 0 0 0 0
184 215 181 325 398 236 0 0 0 0 20 239 92 25 5 0 0 4 0 0 0 0 0 0 0 0 0 0 0 0 0 0 0 0 0 0 0 0 0 3 0 0 0
19 176 163 111 273 174 25 0 0 0 0 8 160 74 15 7 0 0 0 0 0 0 0 0 0 0 0 0 0 0 0 0 0 0 0 0 0 0 0 18 5 0 0
0 12 16 28 31 164 60 22 0 0 0 0 0 30 22 8 0 0 0 0 0 0 0 0 0 0 0 0 0 0 0 0 0 0 0 0 0 0 2 25 3 0 0
0 0 0 0 17 3 105 93 42 0 0 0 0 0 0 0 0 0 0 0 0 0 0 0 0 0 0 0 0 0 0 0 0 0 0 0 0 1 6 1 0 0 0
0 0 0 0 0 0 0 65 85 28 0 0 0 0 0 0 0 0 0 0 0 0 0 0 0 0 0 0 0 0 0 0 0 0 0 0 0 0 0 0 0 0 0
0 0 0 0 0 0 0 0 69 50 16 0 0 0 0 0 0 0 0 0 0 0 0 0 0 0 0 0 0 0 0 0 0 0 0 0 0 0 0 0 0 0 0
0 0 0 0 0 0 0 0 0 11 60 8 0 0 0 0 0 0 0 0 0 0 0 0 0 0 0 0 0 0 0 0 0 0 0 0 0 0 0 0 0 0 0
180 0 0 0 0 0 0 0 0 0 0 4 16 0 0 0 0 0 0 0 0 0 0 0 0 0 0 0 0 0 0 0 0 0 0 0 0 0 0 0 0 0 0
16 340 61 0 0 0 0 0 0 0 0 0 0 0 0 0 0 0 0 0 0 0 0 0 0 0 0 0 0 0 0 0 0 0 0 0 0 0 0 0 0 0 0
0 29 310 358 1 0 0 0 0 0 0 0 0 0 0 0 0 0 0 0 0 0 0 0 0 0 0 0 0 0 0 0 0 0 0 0 0 0 0 0 0 0 0
0 0 0 239 339 35 0 0 0 0 0 0 0 0 0 0 0 0 0 0 0 0 0 0 0 0 0 0 0 0 0 0 0 0 0 0 0 0 0 0 0 0 0

GFSGL_con_mlcape_018.txt.gz
CAPE
78 64 89 53 19 0 0 0 0 0 0 0 0 1 6 5 7 11 29 31 68 46 67 99 51 87 70 117 104 78 42 35 1 2 8 28 25 2 3 3 2 0 0
42 68 74 24 0 0 0 0 0 0 0 0 3 9 13 15 8 8 13 69 47 60 32 86 81 74 101 76 56 21 25 5 0 4 1 3 0 2 4 2 2 0 13
81 62 66 41 18 1 0 0 0 0 0 0 2 14 12 8 14 10 68 61 39 33 43 29 81 84 70 21 13 8 0 1 1 0 3 3 2 1 3 4 4 8 10
185 51 47 58 18 7 0 0 0 0 0 7 27 23 40 63 63 64 45 31 44 56 96 77 84 89 19 5 0 1 1 1 2 1 4 5 4 3 1 1 2 2 1
122 73 57 46 14 6 1 0 0 1 11 24 30 8 0 2 30 44 29 15 34 23 45 75 30 14 0 0 0 1 1 2 2 4 9 11 5 4 2 2 2 1 2
153 77 89 38 6 9 10 0 13 6 12 30 28 3 0 0 1 17 33 15 28 23 33 13 9 0 0 0 0 0 1 0 1 4 11 7 7 5 2 2 1 2 4
120 85 40 2 2 12 10 10 7 10 14 27 13 0 0 0 0 0 43 30 13 8 14 2 1 0 0 0 0 0 0 0 0 0 1 1 2 2 1 1 2 0 0
76 90 29 1 0 4 10 11 16 19 28 17 0 0 0 0 0 8 60 36 2 4 1 0 0 1 1 1 1 2 4 1 2 3 0 0 1 2 1 0 0 0 0
64 93 64 0 0 3 5 1 1 0 2 0 0 0 0 0 1 36 61 33 6 5 1 1 0 0 0 0 1 0 2 0 0 0 0 0 0 0 0 0 0 0 0
37 65 49 1 0 0 0 0 0 1 0 0 0 0 0 0 0 4 6 4 0 1 1 0 0 0 0 0 0 0 0 0 0 0 0 0 0 0 0 0 0 0 0
24 44 83 9 0 0 0 0 0 9 0 0 0 0 0 0 0 0 0 0 0 1 0 0 0 0 0 0 4 1 0 1 0 0 0 0 0 0 0 0 0 0 0
1 42 71 8 12 0 1 0 0 3 1 0 0 0 0 0 0 0 0 0 0 0 0 0 0 0 0 0 1 0 0 1 1 0 0 0 0 0 0 0 0 0 0
0 33 29 56 69 41 13 12 7 0 0 0 0 0 0 0 0 0 0 0 0 0 0 0 0 0 0 0 0 0 0 0 0 0 0 0 0 0 0 0 0 0 0
10 35 32 125 101 18 54 13 0 0 0 0 0 0 0 0 0 0 0 0 0 0 0 0 0 0 0 0 0 0 0 0 0 0 0 0 0 0 0 1 4 0 0
19 54 87 86 45 0 5 4 8 4 0 0 0 0 0 0 0 0 0 0 0 0 0 0 0 0 0 0 0 0 0 0 0 0 0 0 0 0 0 0 0 0 0
8 41 68 86 79 0 0 0 0 0 0 1 0 0 0 0 0 0 0 0 0 0 0 0 0 0 0 0 1 0 0 0 0 0 0 0 0 0 0 0 0 0 0
8 11 97 130 115 36 0 0 0 0 0 0 6 9 0 0 0 0 0 0 0 0 0 0 0 0 0 0 0 0 0 0 0 0 0 0 0 0 0 0 0 0 0
4 5 44 106 135 74 1 0 0 0 0 39 0 0 0 0 0 0 0 0 0 0 0 0 0 0 0 0 0 0 0 0 0 0 0 0 0 0 0 0 0 0 0
0 4 9 30 76 69 37 0 0 0 0 0 0 0 0 0 0 0 0 0 0 0 0 0 0 0 0 0 0 0 0 0 0 0 0 0 0 0 0 0 0 0 0
0 0 0 0 0 4 7 29 0 0 0 0 0 0 0 0 0 0 0 0 0 0 0 0 0 0 0 0 0 0 0 0 0 0 0 0 0 0 0 0 0 0 0
0 0 0 0 0 0 0 3 17 0 0 0 0 0 0 0 0 0 0 0 0 0 0 0 0 0 0 0 0 0 0 0 0 0 0 0 0 0 0 0 0 0 0
0 0 0 0 0 0 0 0 0 2 0 0 0 0 0 0 0 0 0 0 0 0 0 0 0 0 0 0 0 0 0 0 0 0 0 0 0 0 0 0 0 0 0
0 0 0 0 0 0 0 0 0 0 0 0 0 0 0 0 0 0 0 0 0 0 0 0 0 0 0 0 0 0 0 0 0 0 0 0 0 0 0 0 0 0 0
0 0 0 0 0 0 0 0 0 0 0 0 0 0 0 0 0 0 0 0 0 0 0 0 0 0 0 0 0 0 0 0 0 0 0 0 0 0 0 0 0 0 0
0 0 0 0 14 3 0 0 0 0 0 0 0 0 0 0 0 0 0 0 0 0 0 0 0 0 0 0 0 0 0 0 0 0 0 0 0 0 0 0 0 0 0
0 0 0 0 0 15 74 1 0 0 0 0 0 0 0 0 0 0 0 0 0 0 0 0 0 0 0 0 0 0 0 0 0 0 0 0 0 0 0 0 0 0 0

GFSGL_con_mlcape_021.txt.gz
CAPE
3 8 7 0 0 0 0 0 0 0 0 0 0 0 0 6 7 10 4 2 0 13 8 39 61 23 21 31 29 17 12 1 1 0 0 50 15 0 3 2 3 3 2
0 2 0 0 0 0 0 0 0 0 0 0 0 0 8 5 4 11 18 36 18 22 32 70 77 41 30 25 26 10 0 0 0 6 1 2 3 3 2 2 2 2 2
5 0 0 0 0 0 0 0 0 0 0 0 0 3 19 7 10 14 44 30 40 37 35 25 56 36 16 12 10 3 0 0 1 12 4 3 2 2 2 3 3 2 0
10 10 16 8 9 0 0 0 0 0 0 0 20 27 24 43 40 55 48 30 22 37 62 56 52 49 24 8 0 0 1 1 1 1 3 3 3 3 1 1 3 3 3
47 40 38 38 4 0 0 0 0 0 0 22 33 17 0 0 2 29 14 14 30 11 38 55 64 34 2 0 0 1 0 1 2 3 3 2 4 4 2 2 3 3 3
133 59 64 41 0 4 1 0 0 0 10 35 25 3 0 0 0 0 26 26 25 18 30 27 12 0 0 0 0 0 0 1 2 3 3 2 3 1 2 2 2 1 1
146 101 95 0 0 8 2 0 5 8 13 32 10 0 0 0 0 0 19 17 7 12 8 8 1 0 0 0 0 0 0 0 1 0 1 1 1 1 0 1 1 0 0
152 94 27 0 0 6 7 3 1 13 16 17 0 0 0 0 0 0 10 6 8 4 1 2 0 1 1 1 0 2 0 0 6 8 5 0 0 0 0 0 0 0 0
72 50 1 0 0 0 0 3 3 4 11 6 0 0 0 0 1 13 34 7 5 3 1 1 1 1 0 0 0 1 0 0 0 0 0 0 0 0 0 0 0 0 0
48 39 31 0 0 0 0 0 0 0 0 0 0 0 0 0 0 0 5 6 1 1 4 0 0 0 0 0 0 0 0 0 0 0 0 0 0 0 0 0 0 0 0
40 40 28 0 0 0 0 0 0 0 0 0 0 0 0 0 0 0 0 0 0 0 0 0 0 0 0 0 0 1 0 0 0 0 0 0 0 0 0 0 0 0 0
10 11 17 0 0 0 0 0 0 0 0 0 0 0 0 0 0 0 0 0 0 0 0 0 0 0 0 0 0 0 0 0 0 0 0 0 0 0 0 0 0 0 0
0 0 2 2 0 0 0 0 0 0 0 0 0 0 0 0 0 0 0 0 0 0 0 0 0 0 0 0 0 0 0 0 0 0 0 0 0 0 0 0 0 0 0
0 0 0 4 0 0 0 0 1 0 0 0 0 0 0 0 0 0 0 0 0 0 0 0 0 0 0 0 0 0 0 0 0 0 0 0 0 0 0 0 0 0 0
0 0 0 1 19 4 0 0 2 0 0 0 0 0 0 0 0 0 0 0 0 0 0 0 0 0 0 0 0 0 0 0 0 0 0 0 0 0 0 0 0 0 0
0 0 0 17 18 0 0 0 0 0 0 0 0 0 0 0 0 0 0 0 0 0 0 0 0 0 0 0 0 0 0 0 0 0 0 0 0 0 0 0 0 0 0
0 9 5 24 6 0 0 0 0 0 0 0 0 0 0 0 0 0 0 0 0 0 0 0 0 0 0 0 1 0 0 0 0 0 0 0 0 0 0 0 0 0 0
0 4 49 46 40 0 0 0 0 0 0 0 0 0 0 0 0 0 0 0 0 0 0 0 0 0 0 0 0 0 0 0 0 0 0 0 0 0 0 0 0 0 0
0 0 23 41 55 33 0 0 0 0 0 0 0 0 0 0 0 0 0 0 0 0 0 0 0 0 0 0 0 0 0 0 0 0 0 0 0 0 0 0 0 0 0
0 0 0 19 40 28 16 0 0 0 0 0 0 7 0 0 0 0 0 0 0 0 0 0 0 0 0 0 0 0 0 0 0 0 0 0 0 0 0 0 0 0 0
0 0 0 0 0 5 0 0 0 0 0 0 0 0 0 8 0 0 0 0 0 0 0 0 0 0 0 0 0 0 0 0 0 0 0 0 0 0 0 0 0 0 0
0 0 0 0 0 0 1 0 0 0 0 0 0 0 0 0 3 0 0 0 0 0 0 0 0 0 0 0 0 0 0 0 0 0 0 0 0 0 0 0 0 0 0
0 0 0 0 0 0 0 0 0 0 0 0 0 0 0 0 0 0 0 0 0 0 0 0 0 0 0 0 0 0 0 0 0 0 0 0 0 0 0 0 0 0 0
0 0 0 0 0 0 0 0 0 0 0 0 0 0 0 0 0 0 0 0 0 0 0 0 0 0 0 0 0 0 0 0 0 0 0 0 0 0 0 0 0 0 0
0 0 0 0 0 0 0 0 0 0 0 0 0 0 0 0 0 0 0 0 0 0 0 0 0 0 0 0 0 0 0 0 0 0 0 0 0 0 0 0 0 0 0
0 0 0 0 0 0 0 0 0 1 0 0 0 0 0 0 0 0 0 0 0 0 0 0 0 0 0 0 0 0 0 0 0 0 0 0 0 0 0 0 0 0 0

GFSGL_con_mlcape_024.txt.gz
CAPE
262 117 65 32 23 8 2 0 0 0 0 0 0 0 0 0 0 0 1 5 7 0 1 3 31 7 0 0 3 0 0 0 0 2 4 25 0 10 15 1 2 3 3
0 0 0 0 0 4 0 0 0 0 0 0 0 0 0 0 0 0 4 22 2 0 10 0 60 39 4 9 15 17 3 0 0 1 2 2 2 1 2 2 3 3 2
0 0 0 0 0 0 0 0 0 0 0 0 0 0 3 0 0 11 23 45 7 1 13 30 75 41 14 12 12 6 0 0 0 0 3 3 2 3 3 3 3 2 2
0 0 0 0 0 0 0 0 0 0 0 0 4 5 0 8 30 51 49 28 20 14 33 29 44 32 14 7 4 6 0 2 1 2 3 3 2 2 1 1 3 3 6
0 0 0 2 0 0 0 0 0 0 0 16 20 0 0 0 1 11 10 20 24 12 35 29 24 19 4 0 0 0 2 1 2 4 4 3 2 2 2 2 2 2 1
0 14 18 26 0 0 0 0 0 0 2 30 16 0 0 0 0 0 6 29 10 12 13 10 2 1 0 0 0 0 1 1 2 2 3 3 3 2 2 2 2 2 1
35 27 59 16 0 4 0 0 0 0 25 25 2 0 0 0 0 4 0 10 10 15 6 2 0 0 0 0 0 0 0 0 0 1 2 2 2 1 2 2 2 1 0
84 42 76 0 0 8 2 0 1 14 16 19 0 0 0 0 0 0 1 5 4 1 1 0 0 0 0 0 1 0 0 0 0 1 0 1 1 3 2 1 0 1 0
129 74 45 0 0 5 6 4 0 14 10 12 0 0 0 0 0 0 1 3 2 1 1 1 0 1 0 0 0 0 0 0 0 0 0 0 0 0 0 0 0 0 1
106 55 14 0 0 0 0 0 0 6 8 0 0 0 0 0 0 0 1 1 0 0 0 0 0 0 0 0 1 0 0 0 1 0 0 0 0 0 0 0 0 0 0
34 16 10 0 0 0 0 0 0 0 0 0 0 0 0 0 0 0 0 1 0 0 1 0 0 0 0 0 0 0 0 0 0 1 1 0 0 0 0 0 0 0 0
10 6 3 0 0 0 0 0 0 0 0 0 0 0 0 0 0 0 0 0 1 1 0 0 0 0 0 0 0 0 0 0 0 0 0 0 0 0 0 0 0 0 0
5 0 10 11 0 0 0 0 0 0 0 0 0 0 0 0 0 0 0 0 0 0 0 0 0 0 0 0 0 0 0 0 0 0 0 0 0 0 0 0 0 0 0
0 0 13 11 0 0 0 0 0 0 0 0 0 0 0 0 0 0 0 0 0 0 0 0 0 0 0 0 0 0 0 0 0 0 0 0 0 0 0 0 0 0 0
0 4 20 4 0 0 0 0 0 0 0 0 0 0 0 0 0 0 0 0 0 0 0 0 0 0 0 0 0 0 0 0 0 0 0 0 0 0 0 0 0 0 0
0 0 2 0 2 3 0 0 0 0 0 0 0 0 0 0 0 0 0 0 0 0 1 1 0 0 0 0 0 0 0 0 0 0 0 0 0 0 0 0 0 0 0
0 0 0 0 14 9 0 0 0 0 0 0 0 0 0 0 0 0 0 0 0 0 0 0 0 0 0 1 1 0 0 0 0 0 0 0 0 0 0 0 0 0 0
0 0 0 0 26 4 0 0 0 0 0 0 0 0 0 0 0 0 0 0 0 0 0 0 0 0 0 0 1 0 0 0 0 0 0 0 0 0 0 0 0 0 0
0 0 0 0 8 2 0 0 0 0 0 0 0 0 0 0 0 0 0 0 0 0 0 0 0 0 0 0 0 0 0 0 0 0 0 0 0 0 0 0 0 0 0
0 0 0 0 0 2 0 0 0 0 0 0 0 0 0 0 0 0 0 0 0 0 0 0 0 0 0 0 1 0 0 0 0 0 0 0 0 0 0 0 0 0 0
0 0 0 0 0 1 12 7 0 0 0 0 0 0 0 1 0 0 0 0 0 0 0 0 0 0 0 0 0 0 0 0 0 0 0 0 0 0 0 0 0 0 0
0 0 0 0 0 0 11 21 8 0 0 0 0 0 0 0 0 0 0 0 0 0 0 0 0 0 0 0 0 0 0 0 0 0 0 0 0 0 0 0 0 0 0
0 0 0 0 0 0 0 0 6 10 0 0 0 0 0 0 0 0 0 0 0 0 0 0 0 0 0 0 0 0 0 0 0 0 0 0 0 0 0 0 0 0 0
0 0 0 0 0 0 0 0 0 0 0 0 0 0 0 0 0 0 0 0 0 0 0 0 0 0 0 0 0 0 0 0 0 0 0 0 0 0 0 0 0 0 0
0 0 0 0 0 0 0 0 0 0 0 0 0 0 0 0 0 0 0 0 0 0 0 0 0 0 0 0 0 0 0 0 0 0 0 0 0 0 0 0 0 0 0
0 0 0 0 0 0 0 0 1 0 0 0 0 0 0 0 0 0 0 0 0 0 0 0 0 0 0 0 0 0 0 0 0 0 0 0 0 0 0 0 0 0 0

GFSGL_con_mlcape_027.txt.gz
CAPE
481 394 388 329 299 316 322 291 238 101 31 1 0 0 0 37 136 111 103 141 90 300 178 203 278 321 123 91 143 105 95 133 140 3 94 70 99 164 77 65 11 8 1
400 375 293 197 185 203 167 115 26 0 0 0 0 0 11 25 72 63 64 59 62 206 158 135 247 385 326 245 279 289 107 192 163 7 1 0 1 1 1 1 3 4 3
113 85 70 77 87 87 66 12 0 0 0 0 0 12 63 117 150 144 8 23 67 254 258 235 292 406 343 236 210 153 282 185 237 2 0 3 3 2 2 3 3 2 2
28 23 31 44 36 24 4 0 0 0 0 0 21 87 204 204 188 89 72 40 49 199 257 335 342 346 196 66 61 92 135 230 39 2 2 4 3 2 3 2 3 3 2
0 8 20 29 31 9 1 0 0 0 3 160 168 126 66 87 1 44 140 56 23 97 144 323 338 275 54 49 59 32 48 5 3 1 3 3 3 3 2 2 2 1 4
3 14 38 36 15 11 0 0 0 1 55 127 33 9 9 6 0 0 6 47 37 42 34 79 25 0 0 0 0 3 3 3 3 2 4 3 3 1 3 2 2 2 2
38 63 101 81 34 15 1 0 4 24 33 36 32 0 0 29 0 0 0 20 21 21 9 10 3 1 1 0 0 0 0 0 1 1 2 3 2 1 1 2 2 5 1
88 128 136 45 11 13 13 8 19 32 36 34 20 0 1 1 0 0 4 14 8 2 2 6 3 2 5 5 3 1 2 0 0 3 1 1 2 2 0 1 4 2 1
247 208 90 10 9 13 17 19 24 20 23 32 11 0 17 5 0 0 3 3 2 2 1 0 0 0 0 1 2 1 0 0 0 0 0 0 0 0 0 0 0 1 3
371 240 45 11 7 15 23 20 28 33 22 21 0 0 0 4 0 0 5 2 1 1 2 1 0 0 0 0 1 1 0 0 0 0 0 0 0 0 0 0 0 1 2
324 202 64 29 18 18 22 24 27 3 18 3 0 0 0 0 0 0 0 2 3 3 0 0 0 0 0 0 1 2 1 1 1 1 2 2 2 0 0 0 6 5 0
193 135 101 39 0 7 13 41 61 12 3 10 1 0 1 0 0 0 0 0 0 1 2 1 0 0 0 0 1 0 0 3 5 3 3 2 1 0 4 4 2 0 0
156 119 141 67 10 11 31 69 48 33 38 3 9 0 0 0 0 0 0 0 0 1 1 0 0 0 0 0 0 0 0 1 3 3 3 10 11 10 8 3 0 0 0
224 104 35 90 41 31 110 101 71 52 50 29 21 0 0 0 0 0 0 0 0 0 0 0 0 0 0 0 0 2 27 4 5 8 11 10 9 3 1 0 0 0 0
231 228 151 168 106 122 143 63 204 80 26 30 12 4 1 0 1 0 2 2 1 0 0 2 4 2 1 3 10 12 12 6 11 8 3 1 2 0 0 0 0 0 0
188 217 208 254 173 163 20 5 0 0 0 0 0 0 0 1 0 0 0 0 0 0 2 2 3 4 3 6 17 10 2 0 0 0 0 1 1 0 0 0 0 0 0
130 217 211 237 243 238 12 112 38 0 0 0 0 0 0 0 0 0 0 0 0 0 1 4 1 2 1 1 3 1 0 0 0 0 0 0 0 0 0 0 0 0 1
80 16 222 232 292 319 91 25 104 36 55 4 0 0 0 0 0 0 0 0 0 2 5 2 5 4 2 1 1 2 0 0 0 0 0 0 0 0 0 0 0 0 0
10 0 118 280 317 307 141 1 25 4 0 18 0 0 0 0 0 0 0 1 2 3 3 2 5 6 6 3 2 0 1 0 0 0 0 0 0 0 0 0 0 0 0
9 8 87 259 263 244 187 81 0 0 0 0 78 52 0 0 0 0 0 7 3 1 1 0 2 3 3 2 5 4 1 1 0 0 0 0 0 0 0 0 0 0 0
9 0 9 152 237 271 274 250 117 0 0 0 16 29 0 3 0 0 0 0 0 0 0 0 0 0 0 0 0 0 1 0 0 0 0 0 0 0 0 0 0 0 0
0 13 1 76 164 213 270 290 287 206 96 35 5 0 0 5 118 66 6 0 9 11 0 0 0 0 0 0 0 0 0 0 0 0 0 0 0 0 0 0 0 0 0
0 0 1 14 51 54 90 208 268 297 278 207 114 2 0 0 51 116 114 92 45 24 16 8 3 0 0 0 0 0 0 0 0 0 0 0 0 0 0 0 0 0 0
0 0 0 0 0 2 11 40 52 14 84 212 219 104 1 0 0 2 35 84 98 84 61 36 18 2 0 0 0 0 0 0 0 0 0 0 0 0 0 0 0 0 0
3 3 1 1 1 3 36 44 1 0 0 0 0 0 0 0 0 0 0 0 0 6 8 10 22 28 30 18 2 0 0 0 0 0 0 0 0 0 0 0 0 0 0
3 6 4 0 5 5 5 5 5 3 4 5 4 2 0 0 0 0 0 0 0 0 0 0 0 0 0 0 0 4 0 0 0 0 0 0 0 0 0 0 0 0 0

GFSGL_con_mlcape_030.txt.gz
CAPE
1467 1480 1424 1355 1231 1100 1044 1016 960 912 776 532 314 194 60 88 214 435 493 446 415 549 357 360 370 420 160 57 66 230 290 156 207 310 340 478 504 604 689 595 318 135 1
1353 1297 1186 993 913 879 828 772 598 390 221 97 14 5 27 184 327 292 278 258 300 122 305 234 254 370 342 303 353 352 320 339 338 289 2 0 128 298 186 97 75 4 3
1143 1037 936 875 819 704 537 346 211 139 18 0 10 43 48 126 313 402 352 239 25 176 315 241 184 335 456 528 638 635 562 503 409 43 1 2 2 0 0 2 3 3 3
622 621 615 585 538 435 255 118 48 6 10 21 39 39 113 267 388 530 145 404 398 349 349 325 291 401 424 573 667 625 554 493 315 7 1 3 2 3 2 1 3 3 2
107 128 184 213 196 141 90 56 35 5 10 39 77 135 293 453 114 342 389 419 40 298 430 420 401 393 394 513 545 636 534 403 28 3 1 2 3 3 2 3 3 3 2
3 68 93 100 117 121 125 89 12 23 76 100 204 98 253 34 0 0 40 69 331 273 410 386 416 83 17 4 25 220 370 232 21 4 3 2 3 1 3 3 2 2 3
46 101 120 83 95 99 32 37 19 73 63 172 173 42 243 288 0 0 0 33 93 123 108 107 95 38 16 3 0 0 3 2 14 5 1 4 3 3 2 3 2 1 2
55 116 127 51 25 20 10 27 72 31 92 162 178 244 380 11 0 0 11 48 15 15 52 72 84 14 18 21 12 7 6 5 3 5 2 2 2 2 2 1 2 1 2
99 139 67 31 21 27 19 47 84 35 87 113 170 310 324 48 0 0 9 8 2 1 0 10 23 15 0 2 11 6 2 0 0 0 0 0 0 0 0 0 1 2 2
128 81 46 29 8 18 32 37 54 101 62 88 179 251 10 55 0 0 5 4 1 2 3 2 0 0 0 1 5 3 1 2 0 0 0 0 0 0 0 0 0 1 2
120 73 75 62 26 23 34 51 23 59 46 126 156 208 67 52 0 0 3 3 3 2 1 2 0 0 0 0 6 4 2 3 1 1 2 2 1 0 0 0 0 2 8
38 62 110 120 78 32 48 66 66 86 111 209 167 113 3 4 0 0 0 1 0 2 2 2 0 0 0 0 2 0 0 1 2 2 2 2 1 3 2 26 25 19 31
60 88 189 164 61 152 248 327 322 312 158 198 130 85 2 3 0 0 0 0 0 1 3 0 0 0 0 0 0 0 0 1 1 2 3 5 5 10 27 23 15 18 0
124 191 433 357 266 293 315 320 446 413 255 166 149 80 4 2 1 1 0 0 0 0 0 0 0 1 1 0 0 0 17 9 6 11 18 19 23 29 23 27 15 3 1
218 342 403 422 374 322 350 272 472 357 158 177 111 46 6 3 2 2 3 1 4 4 7 4 4 4 4 5 2 8 26 8 20 15 15 16 19 20 17 11 3 0 0
306 242 213 373 343 221 237 55 0 0 0 0 0 6 2 1 0 0 0 0 0 0 8 15 17 12 8 18 31 34 30 13 10 11 19 18 10 5 2 0 0 0 0
142 222 150 288 267 41 405 297 93 0 0 0 0 0 0 0 0 0 0 0 0 0 5 13 6 8 11 13 19 19 27 26 37 40 23 19 17 18 0 0 0 0 0
202 224 51 123 269 43 35 185 150 241 47 0 0 0 0 0 0 0 0 0 0 2 5 6 6 17 27 31 39 44 27 21 17 25 17 10 4 1 0 0 0 0 0
236 106 171 166 253 207 11 90 101 140 296 64 0 0 0 0 0 0 0 1 3 11 20 10 8 13 27 29 31 25 22 19 9 5 3 0 0 0 0 0 0 0 0
199 111 233 269 339 319 126 1 53 61 100 274 143 0 0 1 0 0 1 2 13 11 9 7 2 4 10 24 30 26 34 22 6 7 4 0 0 0 0 0 0 0 0
36 109 94 286 259 303 255 129 1 0 7 37 255 67 0 28 25 0 2 51 30 16 15 43 22 18 3 1 1 5 0 3 3 2 9 7 5 1 0 0 1 1 1
41 54 31 44 121 231 294 337 286 85 9 1 40 29 0 7 104 79 54 63 106 122 100 55 35 23 43 60 62 62 35 2 0 13 17 18 25 11 3 8 8 8 7
27 79 89 65 126 155 297 314 344 364 240 115 111 39 0 126 268 288 368 332 270 210 123 91 115 105 80 54 21 14 27 55 82 85 87 86 57 47 48 57 43 32 9
23 32 69 141 248 270 353 492 497 253 459 446 348 193 85 103 213 297 397 534 577 551 469 371 315 221 111 75 82 93 79 58 5 0 15 46 69 50 26 18 4 0 1
5 4 3 5 3 0 6 21 46 85 82 159 289 381 465 404 292 185 166 167 210 302 390 415 412 400 388 354 296 215 110 0 0 0 29 19 3 1 0 0 0 0 0
3 3 5 7 7 7 8 5 6 6 7 6 4 1 0 0 0 0 0 0 0 10 28 56 93 112 93 0 0 0 0 0 0 0 0 0 1 8 7 6 4 3 1

GFSGL_con_mlcape_033.txt.gz
CAPE
1879 1945 1905 1822 1648 1639 1439 1466 1318 1293 1098 959 850 791 652 415 256 272 458 374 344 635 573 434 418 613 262 143 63 24 0 14 29 92 386 556 422 406 651 625 207 180 0
1778 1733 1716 1706 1510 1381 1130 1034 897 801 696 594 455 310 144 99 239 394 429 350 396 440 515 277 252 377 447 225 170 259 68 249 12 171 164 232 404 441 391 352 191 4 2
1647 1444 1324 1200 1146 1067 896 732 589 443 261 157 61 19 30 112 284 462 438 418 468 257 211 266 193 404 432 484 590 713 509 289 300 278 1 5 98 67 2 6 4 2 3
1128 1134 1051 996 877 732 530 388 244 144 61 49 56 48 44 123 280 508 461 233 371 62 485 352 173 379 496 620 727 774 696 582 271 23 0 1 3 3 3 0 1 3 3
661 650 672 592 495 312 210 136 92 68 50 30 23 149 224 504 271 543 583 517 392 318 358 455 418 414 388 608 604 604 642 422 92 0 1 1 1 1 0 3 2 3 2
185 137 90 87 63 88 106 136 94 12 19 58 33 165 518 0 0 0 250 408 154 99 384 405 453 171 183 102 65 383 555 369 10 2 3 0 3 2 3 3 2 1 2
32 52 79 104 87 145 91 86 24 78 64 179 136 158 474 0 0 0 3 237 351 279 440 495 398 216 176 79 13 86 52 87 54 4 3 3 3 3 3 4 2 1 1
59 60 37 46 74 88 104 22 99 189 276 443 309 463 425 0 0 0 9 88 78 115 142 234 260 106 143 69 146 206 44 36 7 3 2 1 2 3 1 1 1 2 3
78 69 51 46 41 23 10 21 132 180 309 388 368 462 412 2 0 0 23 9 1 2 27 61 48 31 0 4 39 12 1 0 0 0 0 0 0 0 0 1 2 1 2
107 46 52 49 43 32 40 51 114 103 222 215 342 361 54 3 0 0 7 0 1 0 0 0 0 0 0 0 0 0 1 1 0 0 0 0 0 0 0 0 0 2 1
89 76 9 7 32 27 34 47 30 44 37 207 329 308 77 46 0 0 2 1 2 4 1 1 1 0 0 0 1 2 1 1 2 2 2 1 0 0 0 0 0 0 0
107 42 44 4 4 64 210 65 46 80 317 329 327 153 78 2 0 0 0 0 0 2 3 2 0 0 0 0 0 0 0 2 2 3 2 1 2 0 0 0 0 1 3
130 103 127 48 103 166 321 324 267 242 135 195 154 144 7 3 0 0 0 0 2 8 2 0 0 0 0 0 0 0 1 2 2 3 2 1 0 0 0 0 0 5 27
43 71 94 94 203 309 322 434 716 722 570 417 112 58 10 3 2 2 0 0 0 0 0 0 0 0 0 0 0 1 3 3 1 2 1 0 0 0 7 18 31 10 7
116 178 280 7 349 577 249 377 788 236 238 269 87 65 9 4 1 1 6 6 5 2 1 2 1 1 2 2 0 0 1 0 1 0 1 4 16 9 15 28 11 0 1
47 216 43 86 103 363 205 37 0 0 0 0 0 20 2 0 0 0 0 0 0 0 7 20 12 8 6 12 27 11 14 4 5 4 14 6 9 27 21 17 14 0 0
218 170 85 60 255 236 243 134 0 0 0 0 0 0 0 0 0 0 0 0 0 0 22 29 12 7 18 7 4 16 33 25 18 20 20 34 40 26 16 7 0 0 0
330 21 92 122 33 348 218 293 152 9 5 0 0 0 0 0 0 0 0 0 0 0 17 20 22 38 49 26 34 22 48 37 47 32 28 28 25 15 4 2 0 0 0
80 68 119 227 144 65 174 274 250 352 76 0 0 0 0 0 0 0 0 4 5 14 6 17 23 28 31 45 59 24 24 20 23 20 21 33 33 25 12 0 0 0 0
67 68 153 269 112 38 127 88 226 366 206 27 35 0 1 1 0 0 0 6 14 11 8 9 4 1 8 26 25 31 29 23 18 28 25 14 7 1 0 0 0 0 0
138 52 157 237 68 156 34 40 111 180 313 227 78 8 0 8 5 5 9 1 2 12 12 5 3 9 19 38 16 13 16 11 14 20 25 22 13 6 0 0 0 0 0
75 0 24 194 120 212 172 92 13 20 44 231 81 0 0 5 162 113 67 92 85 52 75 141 71 70 56 54 53 80 74 71 84 68 42 32 34 33 28 20 14 11 10
112 43 10 76 176 167 187 237 217 113 56 51 202 17 27 193 270 132 95 133 170 217 191 219 188 141 51 39 85 151 187 180 187 113 123 159 156 147 160 177 146 144 164
24 130 165 230 114 90 61 284 409 374 124 70 255 101 66 67 135 346 384 424 369 300 260 276 200 150 136 124 33 26 18 12 110 111 225 232 234 242 200 168 160 179 195
0 0 0 0 0 0 0 0 0 0 0 0 0 0 0 0 0 0 0 0 0 0 0 0 0 0 0 0 0 0 0 0 0 0 57 158 176 139 91 100 112 144 121
4 5 5 6 4 5 3 3 4 3 2 1 0 0 0 0 0 0 0 0 0 0 0 0 0 0 0 0 0 0 0 0 0 0 0 2 58 64 37 41 41 31 6

GFSGL_con_mlcape_036.txt.gz
CAPE
1948 2061 2141 2411 2271 2191 2149 2071 2070 1811 1758 1583 1357 1117 947 840 696 475 374 388 348 347 88 14 263 332 110 142 23 19 23 4 39 0 37 41 101 120 187 106 79 0 0
1787 1779 1956 1761 1675 1704 1586 1559 1624 1481 1417 1259 1016 632 598 501 387 351 229 434 293 301 86 24 365 245 68 137 51 3 0 0 4 14 132 63 111 218 346 240 95 0 0
1599 1635 1517 1400 1140 1087 1109 1159 1068 920 794 518 392 331 183 184 180 279 410 348 256 312 106 64 186 172 181 104 143 88 41 9 2 11 47 62 119 89 69 21 3 2 0
1436 1370 1316 1192 1072 998 905 770 555 383 219 146 101 76 158 318 326 485 413 249 385 220 283 112 121 168 167 178 212 250 89 24 16 19 3 0 8 1 1 2 1 2 2
1065 977 924 724 743 706 542 348 235 96 81 84 194 157 346 164 324 449 561 540 172 109 45 87 139 212 240 367 374 380 211 104 21 0 2 0 2 1 2 3 2 2 2
1174 1044 769 701 518 412 248 65 90 119 113 89 89 297 149 0 0 0 128 309 106 35 7 150 75 23 17 52 84 302 273 79 9 0 0 0 1 0 1 1 1 0 0
438 324 263 191 178 54 40 60 129 124 29 8 146 205 258 0 0 0 20 300 109 144 289 177 219 204 149 42 25 92 156 18 0 0 2 2 0 0 0 2 1 0 1
65 54 154 78 50 57 41 157 99 111 158 183 244 314 7 0 0 0 53 181 286 162 309 258 200 170 221 86 242 152 35 3 1 1 0 0 0 1 0 1 1 1 2
94 67 84 100 45 37 75 151 120 114 183 359 344 419 1 0 0 3 30 15 40 40 19 61 88 42 2 16 59 5 0 0 0 0 0 0 0 0 0 0 2 2 3
102 65 72 57 17 173 122 103 106 52 315 223 289 309 0 0 0 0 0 0 0 0 3 0 0 0 0 2 1 0 0 0 0 0 0 0 0 0 0 0 0 2 1
42 94 39 23 17 93 64 131 84 134 205 249 328 87 27 0 0 0 0 4 1 1 0 0 0 0 0 0 0 0 0 0 0 1 1 1 1 1 0 0 0 0 0
4 5 80 60 104 84 44 31 35 164 62 170 70 27 1 0 0 0 0 1 1 1 1 0 0 0 0 0 0 0 0 0 1 2 1 2 2 0 0 0 0 0 0
62 14 1 8 12 112 139 44 48 10 204 158 95 47 0 1 0 0 0 0 0 2 0 0 0 0 0 0 0 0 0 0 1 1 1 1 0 0 0 0 0 0 0
85 53 20 137 181 149 409 250 225 265 231 205 112 83 0 0 1 0 0 0 0 0 0 0 0 0 0 0 0 1 1 1 1 1 2 0 0 0 0 0 0 0 0
130 124 106 177 222 70 1 6 114 0 237 165 112 49 0 1 1 0 0 4 1 0 0 1 1 1 1 1 2 1 1 1 1 1 1 0 0 0 0 0 0 0 0
118 151 137 235 584 162 19 0 0 0 0 0 4 33 0 0 0 0 0 0 0 0 2 1 2 1 0 0 1 2 0 1 0 0 0 0 0 0 3 1 6 0 0
120 138 178 340 396 258 166 0 0 0 0 0 0 0 0 0 0 0 0 0 0 0 16 0 0 0 0 0 0 0 0 1 0 0 3 5 6 4 0 0 0 0 0
213 127 141 223 326 208 251 70 3 6 0 0 0 0 0 0 0 0 0 0 0 0 16 5 3 17 10 8 17 12 2 1 6 4 3 3 16 27 23 14 4 0 0
33 47 42 390 434 137 388 171 151 68 0 0 0 0 0 0 0 0 0 0 1 1 1 7 15 17 17 16 9 25 49 33 18 26 33 37 35 22 17 0 0 0 0
25 44 115 326 266 270 199 308 271 87 0 0 0 0 0 0 0 0 0 5 4 16 10 17 22 20 17 23 27 37 27 22 29 36 28 24 13 17 12 6 0 0 0
65 47 159 94 355 389 269 422 474 368 128 203 0 0 0 0 0 0 0 0 12 28 24 27 39 37 39 44 62 35 29 25 16 28 19 26 6 0 0 0 0 0 0
94 154 206 239 66 244 292 231 533 487 194 99 32 0 0 1 2 2 4 18 19 37 153 88 57 41 68 48 43 25 22 20 11 17 21 21 18 8 3 1 0 0 0
48 44 63 93 239 185 79 47 38 501 310 19 58 0 0 10 62 47 144 92 23 30 10 5 89 20 1 0 0 0 3 3 15 70 132 141 58 51 86 117 115 135 154
1 48 158 35 116 80 11 38 4 12 124 31 44 34 1 1 0 0 0 0 0 0 0 0 0 0 0 0 0 0 0 0 0 0 8 293 236 239 272 294 290 280 249
0 0 0 0 0 0 0 0 0 0 0 0 0 0 0 0 0 0 0 0 0 0 0 0 0 0 0 0 0 0 0 0 0 0 0 9 39 135 195 222 259 281 192
0 0 0 1 1 1 1 0 1 0 0 0 1 1 0 0 0 0 0 0 0 0 0 0 0 0 0 0 0 0 0 0 0 0 0 0 0 0 0 0 0 9 27

GFSGL_con_mlcape_039.txt.gz
CAPE
1055 1253 1436 1596 1984 1815 1539 1258 1000 909 936 949 1191 1265 1187 959 800 473 436 338 285 162 71 71 50 132 53 24 28 0 2 1 0 0 9 4 0 4 46 22 11 0 0
1520 1685 1763 2031 2075 1610 1115 1476 1243 1363 1343 1117 1261 1008 873 746 590 273 255 295 274 168 80 1 0 65 58 37 0 0 0 0 0 0 10 23 43 46 52 25 0 0 0
1741 1806 1804 1858 1773 1477 1652 1667 1542 1344 1179 992 793 585 467 345 219 167 60 285 201 228 165 7 6 118 24 33 4 0 0 0 0 26 19 66 41 6 1 0 0 0 0
1558 1478 1427 1367 1283 1304 1185 997 832 764 586 307 180 192 196 194 183 196 380 308 250 149 181 39 63 132 68 53 23 22 7 2 0 11 22 24 2 1 0 0 0 0 1
1354 1189 1034 967 877 771 580 359 152 77 33 38 79 149 156 227 265 422 376 326 208 128 87 60 77 95 100 53 64 85 26 17 1 0 0 0 0 0 0 1 0 1 2
1082 957 859 760 569 312 164 120 31 11 0 96 151 39 10 1 0 17 170 187 123 75 0 36 14 27 48 78 86 117 52 25 18 0 0 0 1 0 1 1 0 0 0
780 702 590 404 252 65 7 5 30 40 109 140 77 19 5 0 0 0 109 147 2 3 9 10 36 24 13 7 23 100 23 2 0 0 0 0 0 0 0 2 0 0 0
530 384 276 14 2 0 4 41 51 45 55 120 47 5 0 0 0 0 112 87 45 58 62 62 85 22 11 44 59 7 1 0 0 0 0 0 0 0 0 0 0 1 1
134 63 12 11 4 8 70 87 32 49 89 97 3 0 0 0 0 0 25 34 25 17 21 57 46 20 0 38 9 0 0 0 0 0 0 0 0 0 0 0 0 1 3
3 8 5 5 5 34 75 63 32 16 20 58 29 0 0 0 0 0 1 9 11 9 0 0 0 0 0 1 0 0 0 0 0 0 0 0 0 0 0 0 0 0 1
1 8 8 3 13 40 97 22 17 15 90 77 4 0 0 0 0 0 0 2 3 1 0 0 0 0 0 0 0 0 0 0 0 0 1 0 0 1 0 0 0 0 0
15 6 2 12 81 73 33 40 19 66 58 42 0 0 0 0 0 0 1 0 0 1 0 0 0 0 0 0 0 0 0 0 0 1 1 1 2 1 0 0 0 0 0
15 11 6 17 20 18 11 45 33 79 64 10 0 0 0 0 0 0 0 0 0 0 0 0 0 0 0 0 0 0 0 0 0 1 1 1 0 0 0 0 0 0 0
15 7 10 12 14 6 10 21 9 1 55 40 7 0 0 0 0 0 0 0 0 0 0 0 0 0 0 0 0 0 0 0 0 0 1 0 0 0 0 0 0 0 0
3 12 34 49 18 1 0 0 12 0 61 93 29 0 0 2 0 0 0 0 1 0 0 1 0 1 1 1 1 1 0 0 0 1 1 0 0 0 0 0 0 0 0
8 23 84 83 7 0 0 0 0 0 0 14 16 1 0 0 0 0 0 0 0 0 0 0 1 1 0 0 1 1 1 1 0 0 0 0 0 0 0 0 0 0 0
7 55 133 152 18 0 0 0 0 0 0 0 0 0 0 0 0 0 0 0 0 0 0 0 0 0 0 0 0 0 0 0 0 0 0 0 0 0 0 0 0 0 0
94 63 149 208 133 7 0 0 0 0 0 0 0 0 0 0 0 0 0 0 0 0 0 0 0 0 0 0 0 0 0 0 0 0 0 0 0 0 0 0 0 0 0
118 147 171 208 134 33 0 0 0 0 0 0 0 0 0 0 0 0 0 0 0 0 0 0 0 3 2 5 9 3 0 0 0 0 1 7 1 0 0 0 0 0 0
72 58 121 114 215 79 31 11 0 0 0 0 0 0 0 0 0 0 0 0 0 0 1 11 17 7 7 0 8 12 2 2 10 11 7 20 14 21 23 13 10 2 0
11 44 66 203 158 263 238 39 0 0 0 0 0 0 0 0 0 0 0 0 0 21 21 14 6 26 27 35 42 24 32 33 36 39 34 30 21 10 9 5 4 0 0
70 72 101 191 276 199 287 164 31 30 7 0 0 0 0 0 0 0 0 0 1 1 0 8 0 0 0 0 1 21 24 23 25 28 33 22 23 6 13 9 3 0 1
45 32 62 43 30 94 147 314 205 180 17 0 0 0 2 0 0 2 0 0 0 0 0 0 0 0 0 0 0 0 0 0 0 0 7 42 34 37 12 17 29 8 8
0 2 0 0 0 0 4 22 1 13 26 0 0 0 0 0 0 0 0 0 0 0 0 0 0 0 0 0 0 0 0 0 0 0 0 12 16 29 61 76 46 81 46
0 0 0 0 0 0 0 0 0 0 0 0 0 0 0 0 0 0 0 0 0 0 0 0 0 0 0 0 0 0 0 0 0 0 0 0 0 0 0 0 0 0 0
0 0 0 0 0 0 0 0 0 0 0 0 0 0 0 0 0 0 0 0 0 0 0 0 0 0 0 0 0 0 0 0 0 0 0 0 0 0 0 0 0 0 0

GFSGL_con_mlcape_042.txt.gz
CAPE
0 65 172 458 607 620 553 675 977 1214 1047 781 692 732 719 849 814 824 704 475 366 294 126 49 21 26 24 13 4 1 0 0 0 0 0 2 5 11 4 6 0 3 11
173 459 567 704 892 1009 1296 1428 1203 1005 802 762 800 838 866 837 718 552 336 334 300 256 44 0 8 12 41 6 1 0 0 0 0 2 14 1 1 4 12 7 4 0 0
727 965 1420 1477 1381 1660 1529 1209 881 787 776 852 1044 921 861 744 537 297 199 150 162 115 42 3 0 0 15 2 0 0 0 0 0 0 18 14 2 3 0 2 0 0 0
1664 1631 1638 1591 1702 1524 1229 1122 1132 1128 899 912 757 654 574 466 236 106 10 46 97 133 139 109 11 17 43 0 0 0 0 0 0 15 17 3 1 1 1 0 0 1 2
1523 1694 1598 1484 1401 1148 1214 1168 1037 839 560 362 291 221 167 110 63 22 125 144 128 123 98 67 21 61 50 15 11 0 0 0 0 6 3 1 1 1 0 1 0 0 1
1257 1363 1329 1146 981 761 506 382 384 169 84 21 7 6 10 14 5 132 175 48 105 74 41 14 8 21 65 49 43 11 7 0 6 0 0 0 0 0 0 3 0 0 1
1045 944 815 672 540 265 70 20 0 0 0 0 6 11 1 0 0 0 0 9 16 4 2 2 11 2 17 45 32 13 1 0 2 0 0 0 0 0 0 1 1 0 0
767 663 502 371 200 55 21 0 0 11 14 18 2 0 0 0 0 0 26 2 0 0 8 8 10 24 11 20 30 7 0 0 0 0 0 0 0 0 0 0 0 0 1
443 380 215 34 0 4 8 12 17 54 31 5 1 0 0 0 0 0 20 0 0 7 21 18 9 12 0 6 7 0 0 0 0 0 0 0 0 0 0 0 0 0 1
173 63 2 3 9 7 29 24 15 11 9 3 0 0 0 0 0 0 0 6 18 17 0 0 0 0 0 0 0 0 0 0 0 0 0 0 0 0 0 0 0 0 0
1 0 3 4 13 31 25 14 12 18 5 0 0 0 0 0 0 0 1 4 10 3 0 0 0 0 0 0 0 0 0 0 0 0 0 0 0 0 0 0 0 0 0
0 0 0 7 23 25 17 13 8 6 0 0 0 0 0 0 0 0 0 2 2 0 0 0 0 0 0 0 0 0 0 0 0 0 0 1 1 1 0 0 0 0 0
14 5 5 27 30 22 20 5 1 0 0 0 0 0 1 0 0 0 0 0 0 0 0 0 0 0 0 0 0 0 0 0 0 0 1 1 1 0 0 0 0 0 0
10 11 14 24 21 24 17 13 8 10 0 0 0 1 2 1 0 0 0 0 0 0 0 0 0 0 0 0 0 0 0 0 0 0 1 0 0 0 0 0 0 0 0
10 5 15 7 0 0 0 0 0 9 8 0 0 0 1 1 0 0 0 0 0 0 0 1 0 0 0 1 1 0 0 0 0 0 0 0 0 0 0 0 0 0 0
0 21 16 0 0 0 0 0 0 0 0 0 0 0 0 0 0 0 0 0 0 1 1 0 1 1 1 0 0 1 0 0 0 0 0 0 0 0 0 0 0 0 0
0 6 7 17 1 0 0 0 0 0 0 0 0 0 0 0 0 0 0 0 0 0 0 1 1 1 1 0 0 0 0 0 0 0 0 0 0 0 0 0 0 0 0
34 32 29 12 0 0 0 0 0 0 0 0 0 0 0 0 0 0 0 0 0 0 0 0 0 0 0 0 0 0 0 0 0 0 0 0 0 0 0 0 0 0 0
48 74 53 12 0 0 0 0 0 0 0 0 0 0 0 0 0 0 0 0 0 0 0 0 0 0 0 0 0 0 0 0 0 0 0 0 0 0 0 0 0 0 0
46 51 46 8 0 0 0 0 0 0 0 1 0 0 0 0 0 0 0 0 1 1 0 0 0 3 13 2 0 0 0 0 0 0 0 2 6 2 0 7 8 3 0
64 25 54 46 6 0 0 0 0 0 0 1 1 0 0 0 0 0 0 1 9 7 5 0 0 6 5 7 27 34 14 14 15 17 14 16 25 18 22 15 28 11 0
1 1 59 70 53 28 0 0 0 0 2 0 1 0 0 0 0 0 0 0 0 0 0 0 0 0 0 0 0 21 31 37 33 23 37 38 38 31 22 19 18 2 0
11 65 68 39 54 30 11 0 0 0 0 0 0 0 0 0 0 0 0 0 0 0 0 0 0 0 0 0 0 0 0 0 0 0 0 18 10 15 15 21 26 29 34
2 5 3 0 6 19 22 19 0 0 0 0 0 0 0 0 0 0 0 0 0 0 0 0 0 0 0 0 0 0 0 0 0 0 0 0 0 0 0 0 0 0 0
0 0 0 0 0 0 0 0 0 0 0 0 0 0 1 0 0 0 0 0 0 0 0 0 0 0 0 0 0 0 0 0 0 0 0 0 0 0 0 0 0 0 0
0 0 0 0 0 2 4 2 1 1 0 1 0 0 0 0 0 0 0 0 0 0 0 0 0 0 0 0 0 0 0 0 0 0 0 0 0 0 0 0 0 0 0

GFSGL_con_mlcape_048.txt.gz
CAPE
0 0 0 0 0 0 0 0 0 38 92 258 446 1105 1206 1160 1020 856 664 611 400 406 258 234 140 32 0 0 0 0 0 0 0 0 0 2 11 34 2 3 3 0 19
0 0 0 0 0 0 0 0 27 96 400 519 909 1194 1156 1000 724 676 619 388 427 367 292 173 80 7 0 0 0 0 0 0 0 0 1 3 3 1 2 2 0 0 0
26 8 0 0 0 0 0 42 217 382 642 914 1146 1165 955 764 711 586 487 453 470 427 191 47 15 0 0 0 0 0 0 0 0 0 1 0 2 0 0 0 3 0 0
325 81 0 0 0 3 162 534 750 843 848 1025 1112 1013 808 707 601 543 521 455 269 131 61 16 0 0 0 0 0 0 0 0 0 0 1 2 3 2 1 0 0 0 0
566 170 91 178 388 603 728 803 892 1037 1132 1114 964 803 727 626 603 579 232 81 46 40 35 0 0 0 0 0 1 0 0 0 0 4 1 2 2 2 1 2 1 0 0
618 468 691 854 946 978 1077 1252 1312 1207 1004 847 794 799 737 539 397 130 25 0 0 3 17 0 0 10 0 0 2 0 0 0 0 2 2 0 0 0 0 1 0 1 0
864 870 925 1061 1312 1259 1240 1141 926 813 785 788 713 706 483 129 0 0 0 0 0 0 6 11 17 4 0 3 0 0 0 0 0 2 13 4 0 0 0 2 0 1 1
1019 879 1067 1264 1169 1064 863 711 631 617 620 410 229 68 0 0 0 0 1 0 0 0 0 0 4 3 0 2 0 0 0 0 0 0 1 0 0 0 0 1 0 0 1
881 920 845 835 780 593 605 497 296 169 57 0 0 0 0 0 0 0 0 0 0 0 0 0 0 0 0 0 6 0 0 0 0 0 0 0 0 0 0 0 0 0 0
611 485 433 412 416 340 286 171 10 0 0 0 0 0 0 0 0 0 0 0 0 0 0 0 0 0 0 2 10 0 0 0 0 0 0 0 0 0 0 0 0 0 1
390 226 198 229 245 147 60 0 0 0 0 0 0 0 0 0 0 0 0 0 0 2 5 2 0 0 0 0 0 0 0 0 0 0 0 0 0 0 0 1 1 1 1
175 139 114 29 37 4 0 0 0 0 1 0 0 0 0 0 0 0 0 7 6 10 6 3 0 0 0 0 0 0 0 0 0 0 0 0 0 0 0 0 0 0 0
42 109 11 1 0 0 0 0 1 0 0 0 0 0 1 0 0 0 0 0 3 10 5 0 0 0 0 0 0 0 0 0 0 0 0 0 0 0 0 0 0 0 0
1 4 0 0 0 3 5 6 1 0 0 0 0 0 0 0 0 0 0 0 0 0 0 0 0 0 0 0 1 0 0 0 0 0 0 0 0 0 0 0 0 0 0
1 0 0 1 0 0 0 5 0 0 0 0 0 0 1 0 0 0 0 0 0 0 0 1 0 0 1 1 0 0 0 0 0 0 0 0 0 0 0 0 0 0 0
7 5 4 6 0 0 0 0 0 0 0 0 0 0 0 0 0 0 0 0 0 1 1 0 0 0 0 0 0 0 0 0 0 0 0 0 0 0 0 1 0 0 0
0 0 0 0 0 0 0 0 0 0 0 0 0 0 0 0 0 0 0 0 0 0 0 0 0 0 0 0 0 0 0 0 0 0 0 0 0 0 0 1 0 0 0
0 0 0 0 0 0 0 0 0 0 0 0 0 0 0 0 0 0 0 0 1 0 0 0 0 1 0 0 0 0 0 0 0 0 0 0 0 0 0 0 0 0 0
0 0 1 1 0 0 0 0 1 1 0 0 0 0 0 0 0 0 0 0 0 0 0 0 0 0 0 0 0 0 0 0 0 0 0 0 0 0 0 0 0 0 0
6 1 0 0 0 0 0 2 1 1 2 1 0 0 0 0 0 0 0 0 0 0 0 0 0 0 0 0 0 0 0 0 0 0 0 0 0 0 0 0 0 0 0
0 0 0 0 0 1 1 1 2 2 0 0 0 0 0 0 2 0 0 0 0 0 0 0 0 0 0 1 0 0 0 0 0 0 0 0 1 0 5 0 0 5 0
4 0 0 0 1 2 3 3 2 0 0 0 0 0 0 0 0 2 6 8 7 8 5 4 4 6 2 0 0 0 6 1 1 0 0 10 8 13 11 19 21 22 23
0 0 0 0 0 2 3 2 1 1 1 1 1 0 0 0 0 1 8 9 7 7 4 1 1 2 4 3 5 0 0 0 0 0 0 7 4 11 22 21 18 6 0
0 0 0 0 0 2 3 2 2 1 1 0 0 0 0 0 3 5 2 2 1 0 0 0 0 0 0 0 0 0 0 0 0 0 0 1 0 0 0 0 0 0 0
4 0 0 0 3 2 0 0 1 0 1 0 0 0 0 0 0 0 0 0 0 0 0 0 0 0 0 0 0 0 0 0 0 0 0 0 0 0 0 0 0 0 0
0 0 1 1 1 1 0 0 0 0 0 0 0 0 0 0 0 0 0 0 0 0 0 0 0 0 0 0 0 0 0 0 0 0 0 0 0 0 0 0 0 0 0

GFSGL_con_mlcape_051.txt.gz
CAPE
0 0 0 0 0 0 0 0 58 293 394 280 259 440 694 1318 1679 1629 1563 1440 1300 1001 747 809 668 564 446 352 254 165 106 78 104 22 2 4 14 90 51 127 39 243 134
0 0 0 0 0 0 0 0 16 241 324 306 514 773 1323 1763 1742 1626 1525 1188 1003 744 697 647 587 296 243 149 119 153 243 45 65 187 3 1 1 10 2 17 14 141 243
0 0 0 0 0 0 0 0 63 283 391 584 952 1242 1732 1830 1614 1409 1277 886 550 571 463 512 537 348 286 240 221 260 53 8 25 5 1 1 0 2 1 3 8 15 2
0 0 5 51 3 0 2 119 335 508 693 1007 1409 1768 1872 1666 1297 946 749 696 814 632 456 603 362 292 296 256 182 60 5 0 1 9 4 1 0 2 2 0 1 5 1
0 10 191 370 128 7 94 343 630 913 1226 1508 1804 1859 1648 1256 990 984 943 898 965 703 501 448 380 316 193 308 91 26 23 30 3 1 3 2 1 0 1 2 3 1 2
1 263 720 595 240 297 487 864 1241 1507 1583 1670 1692 1570 1289 1081 683 739 822 827 629 538 456 389 327 6 0 0 0 0 63 9 1 2 4 2 3 3 4 3 3 4 3
38 544 1072 752 626 737 940 1202 1299 1294 1397 1469 1352 1206 1158 478 447 415 242 362 266 354 467 458 418 311 109 12 0 0 0 0 20 42 1 0 1 2 2 4 4 4 7
42 865 868 1083 1149 996 1190 1528 1657 1625 1547 1319 1043 930 593 161 17 1 0 215 301 399 370 451 559 533 331 200 5 2 14 12 9 25 115 2 0 0 15 14 4 5 3
89 820 917 1245 1078 1277 1528 1489 1137 819 705 657 567 450 349 2 0 0 37 303 289 173 193 328 460 289 18 1 57 87 84 4 0 0 9 5 0 0 11 7 13 4 2
646 1059 1253 1241 1214 1264 1039 690 506 457 377 274 195 95 0 0 0 0 73 44 3 0 1 0 0 61 0 0 10 70 26 1 4 0 0 0 0 0 0 12 7 3 0
715 1223 1198 1087 911 490 302 139 125 62 18 0 0 0 0 0 0 0 0 8 0 0 5 0 0 0 0 0 11 46 33 1 0 31 3 2 1 0 3 3 14 16 14
614 887 662 435 160 100 70 14 0 0 0 0 0 0 0 0 0 0 0 1 0 23 4 2 0 0 0 0 11 0 0 0 3 2 1 1 2 3 5 25 25 25 26
469 359 235 102 33 0 0 0 0 0 0 0 0 0 0 3 0 0 0 0 1 25 24 0 0 0 0 0 0 0 0 2 3 3 0 0 0 3 7 7 4 0 0
209 179 166 45 8 0 0 0 0 0 0 0 0 1 0 1 2 2 0 0 0 0 0 0 0 0 0 0 0 0 1 0 0 0 1 2 3 2 3 4 1 2 4
155 106 34 14 1 0 1 6 9 13 2 0 0 0 0 1 4 2 1 0 0 0 0 2 2 0 0 1 5 2 2 4 1 2 3 2 3 2 3 3 5 4 3
5 1 1 0 0 0 1 0 0 0 0 0 0 1 0 0 0 0 0 0 0 0 0 1 0 0 0 0 3 3 3 2 3 2 3 2 1 3 1 2 6 2 4
0 0 0 0 0 1 0 0 0 0 0 0 0 0 0 0 0 0 0 0 0 1 0 1 0 1 1 1 1 1 1 1 3 2 2 2 2 1 0 1 0 2 1
0 0 1 1 5 9 8 1 0 0 0 0 0 0 0 0 0 0 0 0 1 0 0 0 2 3 3 2 0 0 1 1 2 2 4 3 2 0 1 1 1 10 31
29 12 3 7 18 9 1 2 2 1 0 0 0 0 0 0 0 0 0 1 1 1 1 0 8 5 2 0 0 6 2 13 16 18 16 2 2 1 0 0 0 0 0
12 4 14 9 8 4 1 2 1 2 2 3 2 0 0 2 3 1 0 2 5 2 2 3 1 0 1 10 13 6 2 0 2 3 0 0 0 0 0 0 2 6 20
0 7 1 0 0 1 2 2 3 2 3 2 2 0 0 0 0 0 0 0 1 0 0 0 0 0 0 10 6 4 0 8 0 0 0 0 0 0 2 11 65 75 73
0 0 0 1 1 2 3 3 2 1 2 2 0 0 0 2 4 4 5 8 8 7 7 5 1 2 2 0 0 0 5 6 12 1 1 10 5 24 61 72 70 96 112
2 0 2 3 1 2 2 2 1 0 2 2 2 0 0 2 5 8 5 3 4 2 1 0 0 1 3 4 3 2 2 2 2 12 52 68 24 13 19 14 16 6 0
3 3 2 2 3 2 2 3 2 1 1 1 0 1 2 4 4 6 2 0 0 0 0 0 0 0 0 0 0 0 0 0 0 0 0 1 1 1 0 0 0 0 0
5 2 3 3 2 2 2 1 2 1 0 0 0 1 2 4 2 0 0 0 0 0 0 0 0 0 0 0 0 0 0 0 0 0 0 0 0 0 0 0 0 0 0
3 3 2 1 1 1 1 1 2 0 0 0 1 1 2 1 0 0 0 0 0 0 0 0 0 0 0 0 0 0 0 0 0 0 0 0 0 0 0 0 0 0 0

GFSGL_con_mlcape_054.txt.gz
CAPE
0 0 0 0 0 0 41 329 462 1199 1265 1129 1460 1698 1677 1563 1704 1973 2117 2246 2371 2354 2044 1848 1559 998 961 1019 908 825 712 603 345 501 332 101 232 398 375 409 301 425 92
0 0 0 0 0 0 23 302 411 636 1091 1233 1433 1443 1368 1365 1917 2234 2397 2233 2380 2262 1835 1513 1126 1089 1093 937 815 740 422 396 220 465 43 47 52 66 72 88 298 359 251
0 0 0 0 0 1 121 372 479 472 858 1253 1302 1303 1154 1289 2017 2255 2333 2268 2099 1736 1269 1294 1117 1027 1079 855 645 420 327 420 300 283 116 13 2 10 2 39 109 132 190
7 0 0 0 0 28 252 428 570 490 706 1183 1266 1212 1128 1622 2015 2244 2428 2011 1578 1307 1375 1171 1029 1071 817 663 441 393 389 286 157 237 116 14 4 1 3 4 9 83 15
82 6 0 0 0 98 449 481 510 558 745 1087 1319 1294 1591 1923 1981 2254 1978 1551 1390 1205 931 940 1064 780 484 481 352 411 387 231 163 261 10 7 10 2 12 0 37 52 3
90 53 0 0 31 117 701 573 720 874 1124 1268 1482 1665 1971 1794 1555 1423 1424 1236 1319 1063 1146 1015 772 409 239 183 39 333 350 339 317 153 13 29 4 12 16 17 8 21 1
58 35 44 46 153 482 753 718 922 1337 1629 1754 1949 1907 2052 1547 974 982 1156 1235 1117 1006 912 806 560 295 259 201 0 0 0 13 82 217 52 14 4 10 48 43 21 49 22
81 31 84 98 492 892 866 1171 1647 2088 2209 2121 1937 2036 1992 992 633 672 807 915 639 597 510 590 597 515 550 463 155 108 92 58 52 149 297 92 3 75 66 40 70 14 44
54 70 135 292 1118 1198 1278 1772 2140 2122 2099 2111 2058 1772 1133 397 223 318 203 659 711 732 633 604 578 566 331 124 413 232 266 243 0 0 38 25 7 10 39 47 45 8 10
24 85 179 591 1088 1233 1842 1953 2178 2029 1891 1766 1667 1404 767 335 0 0 196 376 618 514 513 683 169 425 35 0 413 367 320 329 25 10 17 0 1 3 0 51 26 6 17
25 128 49 773 1082 1334 1621 1674 1707 1522 1272 1176 743 426 412 206 0 0 195 494 374 282 189 253 32 0 0 0 144 195 358 290 123 142 92 37 45 20 7 43 11 5 18
13 164 399 818 1068 1022 1039 1136 1164 1044 609 483 180 248 218 109 0 0 0 93 124 226 154 146 0 0 0 0 2 2 15 86 236 135 101 65 21 12 14 14 23 38 45
193 184 767 812 648 637 581 593 395 340 188 158 167 154 31 0 0 0 0 0 0 247 54 3 0 0 0 0 0 0 1 63 133 43 70 51 21 26 26 77 55 59 40
127 496 464 403 381 413 402 325 151 133 120 112 71 58 0 1 2 0 0 0 0 0 0 0 0 0 23 0 0 0 109 54 115 21 3 2 6 15 22 26 24 11 25
423 288 285 231 210 138 37 15 58 86 94 72 54 22 5 1 15 8 6 4 3 0 0 2 9 9 3 17 35 33 19 9 14 20 17 6 6 10 17 21 17 11 19
298 162 109 30 1 9 12 0 0 0 0 0 0 3 0 0 0 0 0 0 0 0 24 48 14 20 18 23 16 8 13 12 8 12 19 14 11 7 10 14 21 18 27
209 36 5 1 53 33 9 0 0 0 0 0 0 0 0 0 0 0 0 0 0 0 3 9 9 15 22 21 17 13 14 18 18 16 18 18 10 14 2 0 20 14 1
144 23 87 81 42 16 4 0 0 2 2 0 0 0 0 0 0 0 0 1 1 1 1 1 4 8 6 7 9 12 15 5 13 12 14 15 4 13 2 1 0 0 0
15 12 34 57 51 40 19 3 3 3 1 0 0 0 0 0 0 0 0 13 2 2 0 0 12 11 9 7 0 2 5 3 2 1 8 14 18 2 2 1 1 0 8
69 30 39 58 45 13 3 3 3 3 5 7 4 0 1 1 2 0 3 29 14 0 0 4 12 9 1 3 12 12 13 12 22 29 23 16 0 8 0 0 1 0 0
66 39 44 59 12 11 3 5 7 4 3 12 3 0 0 1 2 0 2 1 0 0 13 9 11 9 19 30 32 4 11 19 7 1 0 0 0 7 28 12 38 30 37
49 63 47 81 18 4 4 3 0 2 5 1 0 0 0 1 4 4 4 5 4 3 1 1 0 0 0 4 2 11 16 2 0 4 10 11 22 4 37 78 105 88 109
63 52 55 10 2 1 1 0 2 1 1 3 3 3 1 3 5 3 4 3 1 0 0 0 0 0 0 0 0 0 1 2 10 28 72 98 84 48 6 1 2 0 0
32 22 2 3 2 2 1 0 1 2 2 1 1 3 6 2 2 2 0 0 0 0 0 0 0 0 0 0 0 0 0 0 0 0 2 0 0 0 0 0 0 0 0
1 3 3 2 2 3 2 2 1 1 1 0 1 0 1 0 0 0 0 0 0 0 0 0 0 0 0 0 0 0 0 0 0 0 0 0 0 0 0 0 0 0 0
3 2 2 2 2 1 2 1 0 0 0 0 0 0 0 0 0 0 0 0 0 0 0 0 0 0 0 0 0 0 0 0 0 0 0 0 0 0 0 0 0 0 0

GFSGL_con_mlcape_060.txt.gz
CAPE
0 0 0 0 0 0 0 6 5 80 329 389 48 1033 1418 2933 3307 2984 3409 3310 3022 2766 2461 1900 2398 2042 2137 1748 1413 1245 970 823 688 511 591 714 570 462 576 376 480 386 6
0 0 0 0 0 0 0 0 31 40 342 527 877 729 1423 1099 2799 3005 3325 3226 3047 2545 1960 2171 2289 2245 2283 1919 1473 1218 928 764 736 551 506 478 243 248 302 309 198 327 101
0 3 1 0 0 0 0 0 0 3 59 407 945 1217 1731 2136 2274 3052 3424 3234 2348 2189 2486 2277 2424 2436 2179 1695 1456 1218 718 607 644 588 622 323 190 82 0 51 190 185 18
0 3 0 19 9 0 40 7 0 0 23 342 822 1229 1717 1711 2203 3056 3315 2830 1985 2587 2469 2528 2386 2161 1863 1561 1383 1048 684 817 606 372 327 297 144 0 0 0 0 33 5
0 6 57 50 28 13 0 0 0 0 76 204 508 1057 1254 1789 2076 2773 2773 2532 2398 2490 2553 2609 2325 1756 1493 1322 1136 828 692 394 449 310 210 233 99 0 0 0 3 14 20
8 1 31 52 20 37 6 89 0 0 4 299 610 875 1195 1475 2032 2250 2436 2583 2583 2514 2395 2173 1512 976 793 755 460 479 692 608 434 264 203 239 94 0 0 0 1 13 0
0 22 64 41 97 37 37 30 77 232 95 63 902 995 1102 1787 1675 1589 2345 2522 2660 2417 2188 1858 1301 947 633 392 149 126 234 230 302 379 228 178 103 21 2 50 23 6 39
3 24 32 23 51 51 31 111 89 97 42 674 783 1483 1465 2036 1502 1501 2162 2426 2209 1883 1943 1725 1383 999 788 673 349 247 230 120 96 104 301 309 226 184 16 90 47 39 47
35 23 16 0 59 122 55 141 187 146 214 477 1246 1808 1557 1457 1215 1583 2133 1992 1777 1795 1607 1497 1085 762 697 347 405 212 97 67 0 5 125 140 41 178 98 57 38 62 37
15 5 17 64 122 152 153 255 200 262 526 644 1167 1849 1833 1506 995 1524 1735 1775 1575 1251 955 592 512 771 347 190 632 404 238 205 34 14 3 0 0 0 0 51 25 25 4
2 11 0 96 236 160 273 336 432 325 664 463 1274 1656 1801 1342 803 835 1030 1280 954 886 729 674 272 150 148 143 293 355 279 263 87 95 49 3 10 1 5 36 83 61 23
3 4 8 123 174 238 363 375 362 740 708 912 1331 1495 1582 864 185 271 493 426 653 571 612 603 28 1 11 49 130 12 90 140 118 140 37 34 9 26 6 37 58 52 16
4 4 30 111 127 193 175 330 578 771 890 1258 1328 1390 871 227 1 12 3 192 377 382 326 48 0 0 0 0 0 0 36 53 49 40 63 68 73 74 37 16 35 37 85
4 35 86 92 167 168 140 170 325 745 953 1094 1223 786 563 173 62 0 1 0 0 0 0 0 0 0 0 0 0 0 31 36 26 35 69 69 67 33 0 7 23 22 24
3 35 52 40 15 0 27 122 370 827 972 1184 933 685 497 257 99 75 148 137 95 2 0 0 0 0 0 0 0 25 37 21 55 66 79 59 46 18 32 41 14 4 13
20 6 12 13 15 64 31 1 1 86 591 702 617 481 125 129 3 0 2 29 0 0 0 0 2 19 19 25 14 43 63 37 50 72 65 8 3 6 10 16 16 15 15
2 5 0 2 51 59 56 0 1 0 0 0 1 1 0 0 0 0 0 0 0 0 16 6 26 53 50 38 85 44 13 8 9 34 20 10 10 10 8 9 5 8 6
2 2 6 97 77 27 81 106 56 5 0 0 0 0 0 0 0 0 0 0 0 10 28 31 47 43 27 42 10 15 25 13 16 12 13 13 19 13 6 4 4 4 16
0 65 177 172 74 161 204 183 25 0 0 0 0 0 0 0 0 0 0 0 5 12 13 19 41 35 26 18 16 22 16 14 10 14 22 25 19 7 6 2 7 3 0
49 15 94 129 154 146 36 0 0 0 2 1 0 0 1 0 1 2 1 0 0 1 5 17 31 23 13 3 6 6 6 7 9 11 11 31 7 11 3 3 13 22 11
106 79 19 52 36 6 1 0 0 2 3 1 1 0 0 0 0 9 9 1 0 0 0 3 7 2 4 2 1 0 0 0 1 12 8 7 19 24 17 10 2 13 21
61 13 7 0 1 0 0 1 2 1 1 0 0 0 0 0 0 0 0 0 0 0 0 0 0 0 3 3 12 7 20 21 15 14 6 0 4 16 27 28 13 0 0
99 92 48 12 0 0 0 0 0 1 1 1 0 0 0 1 0 0 0 0 0 0 0 0 0 0 0 0 0 0 4 10 14 10 4 27 29 4 0 0 0 0 0
65 17 0 0 0 0 0 0 1 0 0 0 0 0 0 0 0 0 0 0 0 0 0 0 0 0 0 0 0 0 0 0 0 0 1 0 0 0 0 0 0 0 0
42 10 0 0 0 0 1 1 0 0 0 0 0 0 0 0 0 0 0 0 0 0 0 0 0 0 0 0 0 0 0 0 0 0 0 0 0 0 0 0 0 0 0
1 0 0 0 0 0 0 0 1 0 1 0 0 0 0 0 0 0 0 0 0 0 0 0 0 0 0 0 0 0 0 0 0 0 0 0 0 0 0 0 0 0 0

GFSGL_con_mlcape_063.txt.gz
CAPE
0 0 0 0 0 0 0 0 0 0 2 1 1 67 88 148 564 830 437 298 649 869 1485 2367 2687 2194 1978 1830 1349 1028 909 809 687 444 397 370 319 300 269 223 211 174 5
0 0 0 0 0 0 0 0 0 0 0 28 77 251 464 512 1029 1046 1045 1377 2041 2342 2620 2189 2133 2195 2024 1758 1412 1108 925 692 512 419 355 258 186 32 53 53 66 85 0
0 0 0 0 0 0 0 0 0 0 0 0 2 1 46 505 979 2154 2660 2704 2677 2395 2070 1906 2122 2057 2111 1755 1292 1032 800 632 482 372 350 172 46 19 0 0 9 0 0
0 0 0 0 0 0 0 0 0 0 0 0 0 13 115 655 898 1426 1762 2261 2815 2431 2343 2180 1999 2100 2011 1652 1470 1109 797 508 346 393 297 146 4 0 0 0 0 2 0
0 0 0 0 0 0 61 25 5 0 0 0 0 0 45 171 936 1281 2004 2547 2687 2075 2178 2230 1791 1698 1799 1847 1334 1010 607 380 392 363 151 60 2 0 0 0 0 1 0
0 0 0 0 0 0 0 14 1 0 0 0 0 4 55 216 540 964 1570 2155 2078 1673 2022 1925 1716 1778 1766 1509 1076 778 498 341 215 128 58 55 13 0 0 0 0 0 1
0 0 0 0 0 1 0 3 54 14 0 0 0 0 0 394 747 895 1122 2207 1755 1773 1792 1676 1439 1146 867 625 341 275 438 342 224 121 62 48 38 0 0 0 0 0 0
0 0 0 0 0 0 0 4 3 6 0 0 0 19 51 60 369 840 982 1748 1700 1748 1748 1260 945 580 428 320 219 204 182 183 125 187 96 83 18 0 0 0 0 8 11
0 0 0 0 0 0 0 0 2 2 6 12 5 0 197 531 442 735 645 1429 1394 1478 1690 1245 886 684 353 199 272 213 88 5 0 0 68 59 48 14 0 3 11 15 33
2 5 0 0 8 0 0 0 3 0 11 22 1 0 291 274 773 631 427 1466 1356 1289 1292 1019 1009 819 345 297 252 90 59 0 0 0 0 0 2 17 11 0 0 19 7
0 0 1 0 2 18 4 25 5 12 0 19 162 73 309 323 462 410 961 1256 1167 1162 857 667 460 426 293 158 276 152 72 2 0 0 0 1 0 0 0 5 22 12 6
0 0 0 8 3 4 13 17 97 41 113 116 24 59 245 295 321 382 1005 1116 964 858 566 203 61 98 72 15 226 165 97 55 21 6 1 6 3 0 0 0 13 10 12
3 6 0 0 3 2 2 77 56 35 2 174 85 210 388 50 48 152 755 727 555 559 384 22 0 0 2 2 1 0 0 89 38 14 17 9 10 9 0 0 0 2 5
0 15 3 0 0 0 13 98 139 127 135 235 205 245 382 29 22 57 110 137 153 4 0 0 0 0 0 0 0 0 10 24 29 25 28 29 62 25 0 0 0 0 0
3 3 0 0 0 1 23 72 137 145 114 34 41 333 255 156 109 92 162 188 33 10 0 0 0 0 0 0 0 0 8 21 30 34 32 32 24 13 4 12 8 5 1
7 0 0 0 0 5 6 2 0 0 0 0 0 313 218 171 11 7 13 0 0 0 0 0 0 0 0 0 0 0 0 4 24 60 62 39 31 24 44 20 20 15 9
0 2 9 11 0 13 22 52 52 0 0 0 0 92 60 0 0 0 0 0 0 0 0 0 0 0 0 0 0 0 0 0 15 44 39 9 9 11 13 15 10 7 4
1 0 0 2 1 0 0 13 8 11 8 4 0 0 0 0 0 0 0 0 0 0 0 0 0 5 3 0 0 3 13 13 13 10 12 12 12 11 8 1 0 5 3
0 1 0 2 6 1 16 83 17 1 3 0 0 0 0 0 0 0 0 0 0 0 0 0 1 0 1 0 1 13 9 11 13 12 15 22 20 13 8 0 0 2 0
0 7 2 7 5 4 0 0 13 3 2 1 0 0 0 0 0 0 0 0 0 0 0 7 0 0 0 0 5 10 10 6 8 16 20 11 4 13 11 10 1 0 3
0 0 0 0 37 3 17 2 2 1 2 2 2 0 0 0 2 0 0 0 0 0 0 0 1 1 3 1 6 3 6 7 11 6 13 21 15 4 4 10 0 2 3
2 20 43 16 2 2 2 3 3 2 1 0 0 0 0 0 0 0 0 0 0 0 0 0 0 0 1 1 0 0 0 1 12 7 0 6 6 0 9 3 0 0 0
76 27 5 1 1 0 1 2 2 2 1 1 0 0 0 0 0 0 1 1 0 0 0 0 0 0 0 0 0 0 0 1 6 1 0 0 0 0 0 0 0 0 0
4 0 0 1 1 1 2 0 0 0 0 0 0 1 0 0 1 0 0 0 0 0 0 0 0 0 0 0 0 0 0 0 0 0 0 0 0 0 0 0 0 0 0
0 0 0 1 1 1 1 1 1 1 1 0 0 1 0 0 0 0 0 0 0 0 0 0 0 0 0 0 0 0 0 0 0 0 0 0 0 0 0 0 0 0 0
0 0 0 0 0 0 1 1 1 0 0 0 0 0 0 0 0 0 0 0 0 0 0 0 0 0 0 0 0 0 0 0 0 0 0 0 0 0 0 0 0 0 0

GFSGL_con_mlcape_066.txt.gz
CAPE
0 0 0 0 0 0 0 0 0 0 0 0 1 8 44 89 274 310 259 319 269 154 72 64 85 241 633 1358 1277 987 925 429 537 328 205 207 138 84 52 25 43 52 0
0 0 0 0 0 0 0 0 0 0 0 0 0 0 1 163 241 460 456 373 263 430 558 484 397 1179 1681 1656 1499 1338 771 553 522 513 296 144 162 18 38 1 0 3 0
0 0 0 0 0 0 0 0 0 0 0 0 0 0 0 0 2 67 170 423 598 622 1061 1223 1535 1846 1982 1782 1321 1332 788 741 385 414 380 106 11 0 0 0 0 0 0
0 0 0 0 0 0 0 0 0 0 0 0 0 0 0 0 6 9 225 728 1516 1683 1919 2143 2213 2022 1779 1476 1226 1062 821 680 388 290 244 139 14 0 0 0 0 0 0
0 0 0 0 0 0 0 0 0 0 0 0 0 0 0 0 0 0 91 489 1128 1633 2014 2156 2144 1990 1646 1571 1265 1193 787 558 412 277 167 126 34 0 0 0 0 0 0
0 0 0 0 0 0 0 0 0 0 0 0 0 0 0 0 1 23 12 178 629 1383 1385 1757 1938 1521 1644 1350 1374 1152 746 589 319 205 190 208 18 0 0 0 0 0 3
0 0 0 0 0 0 0 0 0 0 0 0 0 0 0 0 0 0 26 30 398 971 1394 1412 1400 1370 1302 1203 990 948 769 423 230 134 138 57 10 0 0 0 0 0 0
0 0 0 0 0 0 0 0 0 0 0 0 0 0 0 0 0 0 3 31 1 686 1216 1246 1014 901 1051 823 996 786 485 298 119 20 41 22 0 0 0 0 0 0 0
0 0 0 0 0 0 0 0 0 0 0 0 0 0 0 0 0 0 0 82 156 794 1134 1022 825 849 580 692 591 387 156 77 0 0 17 0 0 0 0 0 0 0 0
0 0 0 0 0 0 0 0 0 0 0 0 0 0 0 0 1 0 1 49 348 698 899 706 753 877 377 317 361 232 115 15 0 10 0 0 0 0 0 0 0 0 0
0 0 0 0 0 0 0 0 0 0 0 0 0 0 0 0 9 41 5 91 453 811 589 479 576 441 233 155 210 163 65 0 0 0 0 0 0 0 0 0 0 0 0
0 0 0 0 0 0 0 0 0 0 1 0 0 3 36 0 0 0 0 3 469 738 535 626 385 211 149 66 95 35 0 0 0 0 0 0 0 0 0 0 0 0 0
0 0 0 0 0 0 8 4 0 11 1 17 19 10 1 0 4 0 0 0 447 694 373 243 63 71 21 0 33 0 0 1 0 0 0 0 5 2 0 0 0 0 0
1 2 0 2 7 7 16 12 2 12 16 137 8 0 1 40 0 0 0 38 260 132 2 0 0 0 0 0 0 0 56 15 2 0 1 6 10 3 0 0 0 0 0
4 6 6 4 0 0 0 0 0 17 28 74 34 74 9 0 0 0 43 220 206 99 10 30 35 15 0 1 1 4 3 5 20 4 14 27 20 13 2 0 1 0 0
2 8 7 9 0 0 0 0 0 1 0 0 1 0 0 0 3 3 5 15 16 2 80 32 0 0 0 0 0 2 0 6 9 24 34 30 22 5 6 12 4 1 0
15 4 4 0 0 0 0 0 0 0 0 0 0 0 0 0 0 0 0 0 0 35 21 0 0 0 0 0 0 0 0 2 20 24 8 15 4 7 13 20 19 2 1
5 1 1 0 0 0 0 0 9 28 4 0 0 0 0 0 0 0 0 2 17 0 0 0 0 0 0 0 0 0 0 1 1 6 2 2 7 9 11 8 7 9 7
2 0 0 8 5 0 0 0 13 37 33 7 0 0 0 0 0 0 0 26 1 0 0 0 0 0 0 0 0 0 3 1 4 2 10 9 10 8 7 0 0 0 0
0 0 1 1 1 2 4 24 39 1 0 0 0 0 0 4 3 1 8 1 0 0 0 0 0 0 1 1 0 10 9 13 11 13 14 16 7 2 4 0 0 0 0
0 0 0 6 1 23 5 4 4 0 0 0 0 0 0 2 2 0 0 0 0 0 0 0 0 0 0 6 13 7 2 4 9 16 15 9 6 3 0 7 1 0 0
1 0 1 22 25 8 17 19 15 19 8 0 0 0 0 0 0 0 0 0 0 0 0 0 0 0 2 7 5 2 3 7 14 11 9 13 4 0 0 1 0 0 4
1 2 6 4 1 0 0 2 1 1 1 1 1 1 0 1 1 0 0 0 0 0 0 0 0 0 0 0 0 0 1 13 11 1 0 1 0 0 0 0 0 0 0
1 2 2 2 1 2 2 1 2 1 1 1 0 0 0 0 0 0 0 0 0 0 0 0 0 0 0 0 0 0 0 0 0 0 0 0 0 0 0 0 0 0 0
1 2 2 1 1 2 2 2 1 1 1 0 0 0 0 0 0 0 0 0 0 0 0 0 0 0 0 0 0 0 0 0 0 0 0 0 0 0 0 0 0 0 0
1 0 1 1 1 1 1 1 0 0 0 0 0 0 0 1 1 1 1 0 0 0 0 0 0 0 0 0 0 0 0 0 0 0 0 0 0 0 0 0 0 0 0

GFSGL_con_mlcape_069.txt.gz
CAPE
0 0 0 0 0 0 0 0 0 0 0 0 0 0 0 0 15 59 95 193 122 121 109 80 15 21 4 85 139 149 394 447 473 463 177 75 88 71 33 25 58 29 3
0 0 0 0 0 0 0 0 0 0 0 0 0 0 0 0 0 0 108 148 143 275 258 323 212 152 169 299 685 1022 724 684 537 641 238 135 77 23 18 57 52 0 0
0 0 0 0 0 0 0 0 0 0 0 0 0 0 0 0 0 11 44 86 153 137 154 103 507 642 747 1183 1072 868 708 592 333 370 281 54 0 0 0 0 0 0 0
0 0 0 0 0 0 0 0 0 0 0 0 0 0 0 0 0 0 0 0 13 64 412 539 907 1189 1053 952 1117 1035 645 590 487 327 241 118 0 0 0 0 0 0 0
0 0 0 0 0 0 0 0 0 0 0 0 0 0 0 0 0 0 0 0 4 52 118 418 620 1464 1539 1527 1265 1150 820 740 449 319 193 44 9 9 26 0 0 0 0
0 0 0 0 0 0 0 0 0 0 0 0 0 0 0 0 0 0 0 0 0 4 26 137 604 963 1179 1492 1496 1337 975 830 460 286 160 231 91 0 0 0 0 0 1
0 0 0 0 0 0 0 0 0 0 0 0 0 0 0 0 0 0 0 0 0 0 14 63 112 650 1030 1263 845 948 665 651 606 412 288 199 137 53 0 0 0 0 0
0 0 0 0 0 0 0 0 0 0 0 0 0 0 0 0 0 0 0 0 0 0 1 77 146 458 904 974 810 509 595 361 332 240 229 163 54 0 0 0 0 0 0
0 0 0 0 0 0 0 0 0 0 0 0 0 0 0 0 0 0 0 0 0 0 0 88 417 725 844 629 705 567 440 229 0 0 5 0 0 0 0 0 0 0 0
0 0 0 0 0 0 0 0 0 0 0 0 0 0 0 0 0 0 0 0 0 0 34 231 400 704 426 413 516 535 268 182 106 6 0 0 0 0 0 0 0 0 0
0 0 0 0 0 0 0 0 0 0 0 0 0 0 0 0 0 0 0 0 0 0 43 246 348 306 139 100 269 241 245 67 27 0 0 0 0 0 0 0 0 0 0
0 0 0 0 0 0 0 0 0 0 0 0 0 0 0 0 0 7 0 0 0 0 53 276 359 113 13 63 103 102 94 8 0 0 0 0 0 0 0 0 0 0 0
2 0 0 0 0 0 0 0 0 0 0 0 0 0 0 0 16 14 0 0 0 0 27 292 38 0 1 2 17 29 0 0 0 0 0 0 0 0 0 0 0 0 0
8 2 1 1 0 0 0 0 0 0 0 0 0 0 0 0 5 17 0 0 0 0 0 41 0 0 7 8 0 0 0 0 0 0 0 0 0 0 0 0 0 0 0
7 6 0 0 0 0 0 0 0 0 0 0 0 0 6 15 6 0 0 0 0 0 0 0 1 5 4 4 0 0 0 0 0 0 3 3 5 0 0 0 0 0 0
13 6 3 3 4 1 0 0 0 0 1 0 0 0 3 1 0 0 0 0 0 0 1 35 87 65 45 37 45 0 1 0 0 0 0 8 9 0 0 0 0 0 0
8 4 8 10 5 2 6 5 0 0 0 0 0 0 0 0 0 0 0 0 0 0 53 60 33 32 1 2 0 0 0 1 1 2 2 18 11 1 6 3 3 0 0
14 9 7 3 9 12 5 0 0 0 0 0 0 0 0 0 0 0 0 0 0 0 29 43 11 0 0 0 0 0 0 0 1 0 3 5 8 16 27 20 18 7 6
8 6 3 6 0 0 0 0 0 0 0 0 0 0 0 0 0 0 0 0 4 66 45 0 0 0 0 0 0 0 0 1 0 0 0 0 6 20 11 5 2 3 2
7 0 1 3 9 2 3 2 2 5 1 0 0 0 0 0 0 0 1 23 19 12 2 0 0 0 0 0 0 0 0 0 0 0 1 12 11 13 7 1 0 0 0
1 0 0 0 0 6 5 5 5 6 2 0 0 0 0 0 0 2 2 29 4 2 0 0 0 0 0 0 0 0 0 0 6 13 19 11 11 7 0 0 0 0 0
0 0 0 0 2 3 1 0 11 3 0 0 0 0 0 12 6 0 0 0 0 0 0 0 0 0 0 0 0 8 2 1 9 13 12 8 2 0 3 11 6 3 1
3 3 4 22 23 25 17 2 3 2 0 0 0 0 0 0 0 1 0 0 0 0 0 0 0 0 0 0 7 2 0 3 10 11 5 5 1 0 0 0 0 0 0
3 2 1 1 1 1 0 3 3 1 16 9 4 0 0 1 1 0 0 0 0 0 0 0 0 0 0 0 0 1 3 5 4 0 0 0 0 0 0 0 0 0 0
0 0 2 2 2 1 0 2 2 1 1 2 2 2 3 3 1 1 0 0 0 0 0 0 0 0 0 0 0 0 0 0 0 0 0 0 0 0 0 0 0 0 0
1 1 1 1 1 1 1 2 2 1 1 2 1 3 2 1 2 0 0 0 0 0 0 0 0 0 0 0 0 0 0 0 0 0 0 0 0 0 0 0 0 0 0

GFSGL_con_mlcape_072.txt.gz
CAPE
0 0 0 0 0 0 0 0 0 0 0 0 0 0 0 0 0 0 0 42 91 115 139 106 141 137 85 31 5 8 22 30 61 172 128 111 137 127 55 9 9 0 0
0 0 0 0 0 0 0 0 0 0 0 0 0 0 0 0 0 0 0 0 0 0 0 47 50 176 111 117 56 48 60 79 151 338 266 158 146 53 17 30 12 0 0
0 0 0 0 0 0 0 0 0 0 0 0 0 0 0 0 0 0 0 0 0 0 0 42 76 312 324 240 27 128 446 450 254 339 324 64 63 26 2 0 0 0 0
0 0 0 0 0 0 0 0 0 0 0 0 0 0 0 0 0 0 0 0 0 0 1 44 146 312 374 660 157 453 188 101 166 159 144 91 88 3 0 7 0 0 0
0 0 0 0 0 0 0 0 0 0 0 0 0 0 0 0 0 0 0 0 0 0 0 0 34 206 389 619 915 891 608 254 240 137 130 68 84 57 89 1 0 0 0
0 0 0 0 0 0 0 0 0 0 0 0 0 0 0 0 0 0 0 0 0 0 0 0 0 8 153 177 345 894 1011 717 396 175 118 163 109 85 0 0 0 0 0
0 0 0 0 0 0 0 0 0 0 0 0 0 0 0 0 0 0 0 0 0 0 0 0 0 1 14 304 338 515 504 386 571 260 225 265 190 111 6 0 0 0 0
0 0 0 0 0 0 0 0 0 0 0 0 0 0 0 0 0 0 0 0 0 0 0 0 0 0 19 265 570 689 647 445 272 187 352 332 200 51 14 0 0 0 0
0 0 0 0 0 0 0 0 0 0 0 0 0 0 0 0 0 0 0 0 0 0 0 0 0 10 123 211 606 716 547 307 0 0 44 62 19 0 0 0 0 0 0
0 0 0 0 0 0 0 0 0 0 0 0 0 0 0 0 0 0 0 0 0 0 0 0 0 10 70 173 589 655 409 234 2 29 7 0 0 0 0 0 0 0 0
0 0 0 0 0 0 0 0 0 0 0 0 0 0 0 0 0 0 0 0 0 0 0 0 0 0 12 168 253 471 346 120 41 48 28 7 0 0 0 0 0 0 0
0 0 0 0 0 0 0 0 0 0 0 0 0 0 0 0 0 0 0 0 0 7 0 0 0 0 32 172 131 243 147 103 45 43 58 10 0 0 0 0 0 0 0
0 0 0 0 0 0 0 0 0 0 0 0 0 0 0 0 0 0 0 0 0 0 0 0 0 12 21 13 5 0 13 46 55 66 33 0 0 0 0 0 0 0 0
7 2 1 4 0 0 0 0 0 0 0 0 0 0 0 0 0 0 0 0 0 0 0 0 0 0 5 2 0 0 57 60 46 17 4 0 0 0 0 0 0 0 14
0 1 5 6 0 0 0 0 0 0 0 0 0 0 0 0 0 0 0 0 10 0 0 0 0 0 0 0 5 1 31 5 0 0 0 0 0 0 0 0 0 1 20
8 13 10 10 5 0 1 2 0 0 0 0 0 0 0 0 0 0 0 4 7 0 0 0 12 109 10 12 11 11 11 1 0 0 0 0 0 0 0 0 5 15 0
9 13 11 1 1 1 0 0 0 0 0 0 0 0 0 0 0 0 0 0 0 0 0 56 42 72 53 14 0 14 1 1 0 0 9 3 0 10 6 10 9 3 0
13 8 19 14 13 10 8 6 7 2 0 0 0 0 0 0 0 0 0 0 0 0 1 73 28 22 24 2 1 0 3 0 1 8 12 3 4 10 14 20 16 15 10
20 11 10 4 4 13 12 8 2 2 0 0 0 0 0 0 0 0 0 0 0 0 3 9 2 4 1 1 0 0 0 0 3 7 4 16 7 3 5 14 11 3 1
5 1 14 13 10 6 6 3 3 2 2 0 0 0 0 0 0 0 0 0 0 2 1 0 1 2 1 0 0 0 0 0 0 2 4 6 10 10 11 3 1 0 0
0 1 0 1 3 0 0 2 2 0 1 0 0 0 0 0 0 0 0 0 2 1 0 1 0 0 0 0 0 0 0 1 6 5 5 4 12 12 5 1 0 0 0
0 0 0 0 0 0 5 1 2 2 5 2 0 0 0 1 0 1 0 2 1 1 0 1 0 0 0 0 0 0 0 0 2 8 11 12 7 5 1 0 0 0 0
0 0 1 0 0 1 3 1 3 3 1 2 0 0 0 1 6 4 0 0 0 0 3 9 0 0 0 0 0 2 2 4 10 16 13 8 3 2 5 8 2 1 0
3 2 2 1 3 1 1 3 4 3 2 1 0 0 0 0 0 0 0 0 0 1 0 0 0 0 0 0 1 8 0 3 8 15 3 0 0 0 0 0 0 0 0
2 1 1 2 1 1 0 1 1 2 0 0 0 0 0 1 0 0 0 0 0 0 0 0 0 0 0 0 1 0 0 0 0 0 0 0 0 0 0 0 0 0 0
1 1 1 1 2 2 2 1 1 0 0 1 0 0 0 0 0 0 1 1 0 0 0 0 0 0 0 0 0 0 0 0 0 0 0 0 0 0 0 0 0 0 0

GFSGL_con_mlcape_078.txt.gz
CAPE
580 1547 2573 3120 3109 2626 2068 1484 1193 1310 1032 1012 1211 1526 1725 1856 2058 2109 1930 1801 1898 1767 1674 1385 1204 1172 927 660 586 430 378 459 188 101 83 276 641 907 1180 952 907 397 254
536 1184 1844 1900 1317 957 697 694 713 606 444 264 319 479 598 588 836 1025 1044 878 1074 1027 1000 634 410 313 409 364 230 242 314 489 256 141 142 163 48 361 847 959 624 701 727
564 897 979 792 724 697 516 423 299 146 45 0 0 0 0 0 209 169 22 19 20 3 0 0 0 42 211 97 192 169 208 621 593 379 219 119 74 80 137 267 569 559 335
149 249 428 612 655 593 478 405 158 42 14 22 22 0 0 0 19 26 6 0 0 0 0 0 0 0 0 42 182 254 463 770 731 727 468 245 337 279 156 87 334 348 565
0 3 138 296 379 567 586 400 129 39 37 21 21 0 0 0 0 0 0 0 44 18 11 0 0 0 0 0 0 0 131 418 645 458 387 316 525 274 70 117 373 748 355
0 0 0 8 384 243 369 374 223 106 73 40 31 8 0 0 0 0 30 59 75 5 0 0 0 0 0 0 0 0 0 105 427 557 346 463 681 729 170 428 566 672 450
0 0 0 0 0 167 292 196 249 262 322 215 150 124 131 27 0 0 0 0 0 0 0 0 0 0 0 0 0 0 0 6 291 516 748 505 0 229 395 466 879 797 366
0 0 0 0 0 0 69 262 305 409 678 668 469 316 365 170 0 0 0 0 0 0 0 0 0 0 0 0 0 0 0 29 466 474 351 651 277 762 350 172 472 618 382
2 0 0 0 0 0 24 102 298 545 769 894 643 548 345 80 0 0 0 0 0 0 0 0 0 0 0 0 6 0 0 7 356 490 376 231 274 235 452 389 723 497 187
11 7 1 0 0 0 0 48 236 540 684 662 505 291 111 33 0 0 0 0 0 0 0 0 0 0 0 0 0 55 0 0 426 805 221 116 214 142 125 365 385 184 187
9 6 16 3 0 0 0 0 23 165 262 372 256 90 28 9 3 0 0 0 0 0 0 0 0 0 0 0 0 2 0 150 719 661 913 926 240 60 232 317 679 366 256
2 1 0 16 2 0 0 0 0 0 19 71 25 3 0 0 0 0 0 0 0 0 0 0 0 0 0 0 0 0 0 47 934 1039 861 356 32 35 176 306 243 550 342
7 11 6 0 14 5 1 0 0 0 0 0 0 0 0 0 0 0 0 0 0 0 0 0 0 0 0 0 0 0 0 258 1059 1094 725 344 249 136 204 227 305 504 371
8 8 7 2 1 18 5 1 0 0 0 0 0 0 0 0 0 0 0 0 0 0 0 0 0 0 0 0 0 0 0 552 994 998 812 586 385 312 283 177 340 291 199
4 6 6 6 11 0 4 6 0 0 0 0 0 0 0 0 0 0 0 0 0 0 0 0 0 0 1 1 22 21 143 739 802 925 844 450 369 354 294 289 282 175 222
3 4 5 10 16 5 3 11 1 0 0 0 0 0 0 0 0 0 0 0 0 0 0 0 0 1 0 0 16 37 183 529 578 699 632 433 370 306 216 296 211 191 250
4 4 6 6 2 8 22 12 13 1 0 0 0 0 0 0 0 0 0 0 0 0 0 0 0 0 0 1 4 51 154 319 477 596 467 443 342 241 192 204 187 193 196
3 4 7 2 0 2 17 7 5 23 5 0 0 0 0 0 0 0 0 0 0 0 0 0 0 21 26 19 11 95 107 216 377 517 414 368 306 232 221 153 184 138 166
2 2 7 6 7 10 13 8 13 13 10 5 4 0 0 0 0 0 0 0 0 0 0 0 35 38 30 93 148 280 180 305 416 378 455 384 269 264 176 182 107 69 94
4 2 8 10 7 6 11 6 9 20 15 5 7 3 2 0 0 0 0 0 1 2 7 83 21 43 25 85 234 297 308 306 339 424 408 323 253 296 253 116 86 90 56
8 2 0 2 0 0 1 6 11 4 0 0 12 18 8 0 0 0 3 0 2 8 6 37 87 45 5 84 131 261 448 322 426 455 473 267 238 12 8 46 28 35 23
2 8 8 15 15 14 11 15 12 19 29 25 26 9 0 16 17 14 10 9 3 1 14 13 13 10 36 79 87 404 174 118 331 385 348 275 70 17 20 19 26 30 32
4 1 10 8 6 6 8 13 8 20 13 11 9 8 4 1 4 3 17 22 20 12 3 1 3 11 18 22 251 490 333 279 165 265 277 71 60 42 27 53 94 87 29
0 7 2 5 5 6 7 24 4 5 8 15 20 7 1 23 10 5 6 18 6 0 0 5 6 0 29 114 407 423 401 419 380 272 144 195 162 37 25 75 42 37 4
1 1 0 5 21 8 5 0 0 1 2 7 28 49 45 39 37 6 1 1 13 62 25 0 7 37 124 242 322 338 104 117 288 190 152 45 33 39 36 23 0 0 0
4 3 2 2 2 5 11 10 17 6 8 12 7 0 3 2 0 0 0 8 4 0 4 43 99 191 229 286 133 0 0 0 32 14 94 77 35 20 4 0 0 0 0

GFSGL_con_mlcape_081.txt.gz
CAPE
230 348 443 1407 2186 2439 2444 2550 2831 2975 3417 2822 1993 3530 3145 2969 2936 2508 2522 2172 2387 2274 2199 1485 1217 1360 1533 1488 1508 1009 779 600 513 614 481 445 459 247 206 217 720 956 183
224 437 518 1153 2175 2494 2614 2587 2344 2302 2264 2513 2662 2329 2252 2241 2594 2537 2353 2018 1892 2027 2050 1931 1675 1574 1857 1600 1032 803 603 278 303 335 491 573 586 189 67 28 343 798 602
234 470 672 1029 1732 2204 2424 2025 1298 1791 1113 1765 1620 1569 1255 1304 1526 1648 1704 1471 1497 1650 1539 1599 1290 1197 941 627 516 267 291 388 511 524 501 557 660 858 171 37 18 23 416
23 325 405 517 1130 1445 1686 1517 1014 1356 1034 623 690 615 571 544 760 934 897 797 894 998 740 492 238 98 208 328 269 340 269 246 101 300 347 409 437 442 715 304 272 69 225
6 6 159 33 758 1000 1081 960 1008 751 525 348 346 260 219 270 421 470 327 351 394 277 155 107 12 0 0 4 0 0 1 57 33 126 95 101 243 446 768 372 101 106 531
7 0 1 0 0 619 1011 799 710 492 407 305 362 205 268 182 196 184 393 437 368 218 177 57 0 0 0 0 0 0 0 0 58 60 28 55 196 446 930 224 86 138 423
11 6 0 0 0 0 510 949 696 650 504 457 313 315 377 327 82 85 135 401 538 394 37 0 0 0 0 0 0 0 0 0 0 6 403 378 514 758 305 73 65 72 111
1 17 4 0 0 0 0 207 908 1018 954 802 552 454 538 497 27 27 103 570 309 36 5 0 0 0 0 0 0 0 0 1 28 109 149 617 1003 1283 936 289 162 62 169
0 4 16 13 0 0 0 0 36 880 979 1075 1060 708 953 445 32 7 65 209 90 22 0 0 0 0 0 0 0 0 0 41 3 0 37 387 424 425 287 188 59 13 60
2 20 6 18 2 0 0 0 0 190 748 884 1148 1125 1217 423 0 0 0 0 0 0 0 0 0 0 0 0 0 0 0 51 7 42 619 827 345 298 163 334 21 37 290
0 11 0 2 12 2 0 0 0 0 511 786 1047 1298 1187 1090 0 0 0 0 0 0 0 0 0 0 0 0 0 0 91 109 33 6 299 1107 1013 1131 511 160 12 140 94
4 0 2 0 0 16 1 0 0 0 0 74 666 830 1131 976 39 0 0 0 0 0 0 0 0 0 0 0 0 0 0 0 0 26 891 1098 1093 841 454 465 585 245 324
7 17 4 0 0 1 49 0 0 0 0 15 207 548 772 700 287 0 0 0 0 0 0 0 0 0 0 0 0 0 0 2 6 192 1173 1025 983 584 429 590 771 179 164
4 5 5 2 0 5 5 70 28 5 1 0 39 168 467 436 401 7 0 0 0 0 0 0 0 0 0 0 0 0 15 21 3 347 1368 949 762 607 691 659 135 45 341
3 4 4 4 3 0 0 15 69 57 136 317 172 219 458 448 338 102 0 0 0 0 0 0 0 0 0 0 0 0 0 0 126 474 1354 1055 957 593 561 435 361 383 323
4 4 4 7 4 0 0 0 0 22 28 3 17 91 138 77 5 0 0 0 0 0 0 0 0 0 0 0 0 0 16 64 138 640 1247 1011 740 635 559 514 494 350 293
3 4 3 6 7 3 1 0 0 1 0 0 0 0 0 0 0 0 0 0 0 0 0 0 0 0 0 0 0 0 13 124 91 495 1155 984 657 765 327 195 233 328 315
2 1 2 1 6 5 1 2 0 5 5 0 0 0 0 0 0 0 0 0 0 0 0 0 0 0 0 0 0 1 22 61 142 472 917 655 592 436 310 312 307 254 238
5 4 3 3 9 8 1 8 11 1 4 20 10 0 0 0 0 0 0 0 0 0 0 0 0 0 0 0 3 18 28 100 353 266 769 609 574 489 329 268 287 155 152
1 2 5 4 14 3 0 1 5 7 2 14 35 30 0 0 0 0 0 0 0 0 0 0 0 0 0 12 51 39 32 186 361 186 505 521 684 378 155 172 175 179 141
0 0 0 0 7 12 2 6 6 5 11 25 29 26 3 0 0 0 0 0 0 0 0 0 0 0 0 10 43 37 169 332 265 435 490 628 423 251 179 180 202 183 79
0 0 0 0 13 4 0 4 3 9 9 24 13 14 0 2 3 0 0 0 0 0 0 0 0 18 42 77 14 22 260 179 328 353 459 576 430 146 200 176 105 66 28
4 3 5 5 0 0 0 0 0 2 0 0 2 10 5 9 9 12 4 2 3 1 0 0 0 1 67 61 61 160 137 179 357 431 523 384 332 191 71 26 33 31 14
0 2 0 3 5 3 5 4 4 2 22 26 25 18 11 19 17 21 23 26 36 28 20 10 3 16 7 38 270 151 103 302 399 495 463 303 99 23 7 6 60 36 10
3 1 0 6 4 1 7 1 32 19 20 17 12 14 12 11 11 11 1 10 11 26 29 15 3 6 6 52 67 54 168 265 470 488 410 154 57 43 12 61 117 9 0
4 5 5 3 1 2 19 12 25 9 2 6 79 57 43 64 44 43 14 13 29 4 0 0 32 102 69 74 90 212 142 148 82 124 134 79 90 160 60 31 18 0 0

GFSGL_con_mlcape_084.txt.gz
CAPE
33 133 156 112 628 441 947 1697 2409 2123 2456 2580 2386 2504 2023 2646 2624 2619 2618 2839 2578 2300 2076 1762 1864 2112 1598 1218 1028 1113 1245 1265 1002 622 547 820 459 381 470 102 355 312 118
59 177 143 172 577 678 1143 1439 1972 2138 2178 2227 1592 1750 2108 1718 1386 1468 1853 2625 2358 2713 2362 2326 2180 1822 1529 1525 1623 1461 958 972 698 606 592 438 513 704 652 186 28 72 422
91 89 123 203 468 504 716 1397 2109 2024 2183 1448 392 204 1 0 0 7 820 2600 2741 2927 2695 2455 2077 1917 1787 1668 1139 976 796 699 364 221 351 532 506 449 472 481 234 62 61
35 26 64 107 379 209 554 1284 1715 1973 1423 222 0 0 16 0 0 274 1670 2554 2396 2261 2102 1919 1676 1579 1338 1133 732 497 344 209 67 37 173 367 176 184 467 429 313 380 172
0 2 38 69 139 170 270 715 1277 1039 591 213 0 0 181 0 62 937 1335 1605 1825 1843 1345 1173 1118 763 356 293 219 95 7 0 20 140 115 353 250 124 210 186 195 113 132
0 0 0 22 1 34 52 11 97 374 146 0 201 0 132 575 823 921 1136 1175 1189 852 579 398 32 0 0 0 0 0 0 0 0 0 0 0 0 75 155 173 3 43 19
0 0 0 0 1 0 0 0 44 0 358 436 598 414 589 415 527 658 777 863 843 695 472 261 0 0 0 0 0 0 0 0 0 0 0 0 71 220 244 377 173 5 1
0 0 0 0 0 4 5 0 0 2 148 414 414 263 418 403 306 380 747 931 756 692 473 153 0 0 0 0 0 0 0 5 29 0 0 0 3 223 258 413 325 228 65
14 0 0 0 0 0 13 0 0 0 23 749 866 492 554 209 49 293 606 764 781 434 185 28 2 0 0 0 0 0 0 0 37 57 0 0 37 215 383 468 264 100 18
14 6 0 0 0 1 18 0 0 0 0 312 1065 731 642 159 0 105 576 612 443 243 195 60 0 1 0 0 0 0 0 0 17 249 104 13 0 183 368 301 473 66 0
6 15 13 0 0 1 0 20 0 0 0 7 654 1061 795 171 3 14 303 342 240 174 102 145 58 0 0 0 0 0 0 3 77 113 39 0 241 1242 903 416 597 82 0
5 4 2 4 0 0 0 0 10 0 0 0 167 587 797 218 2 0 0 10 30 4 147 103 20 0 0 0 0 0 0 0 0 0 0 1 508 1248 1199 874 410 161 104
3 3 2 5 0 0 0 0 20 2 0 0 39 256 512 202 0 0 0 0 0 15 35 0 0 0 0 0 0 0 0 0 0 0 0 71 889 1291 1038 718 480 483 240
2 2 2 2 6 0 0 0 0 26 18 0 13 27 84 242 10 0 0 0 0 0 0 0 0 0 0 0 0 0 0 0 4 77 44 446 1405 1048 804 608 570 238 91
5 2 1 3 2 0 0 0 1 10 18 7 6 9 0 25 18 1 0 0 0 0 0 0 0 0 0 0 0 0 0 0 0 91 57 207 841 1098 772 650 680 302 55
3 2 3 3 2 1 0 0 0 0 0 17 8 0 0 3 0 12 1 1 0 0 0 0 0 0 3 2 0 0 18 17 28 121 236 552 1163 1098 742 669 561 283 142
2 1 2 2 7 12 20 5 0 0 0 0 0 0 0 2 10 0 0 4 1 0 0 0 1 65 1 0 0 0 0 4 68 209 173 356 907 952 597 586 456 334 158
1 2 2 1 6 3 1 17 0 1 4 0 0 0 0 0 0 0 0 0 0 0 0 0 0 0 0 0 0 0 0 0 101 233 187 339 679 991 708 559 377 314 154
3 0 1 0 0 8 4 0 0 0 0 0 3 0 0 0 0 0 0 7 1 0 0 0 0 0 0 0 0 0 0 3 105 232 282 262 450 825 582 491 350 253 131
1 0 0 0 1 3 2 0 5 6 0 0 0 1 0 0 0 0 0 0 1 0 0 0 0 0 0 0 0 0 0 5 96 340 447 316 593 760 459 352 260 201 102
0 0 0 0 2 3 1 0 4 6 0 0 0 0 0 0 0 0 0 0 0 0 0 0 0 0 0 0 0 0 1 74 81 340 361 235 237 515 403 282 211 140 152
1 0 0 3 0 0 3 10 2 3 6 12 0 0 0 0 2 0 0 0 0 0 0 0 0 0 0 0 0 0 78 124 422 368 216 222 463 429 267 217 189 134 68
0 4 4 0 0 0 0 0 0 1 2 0 9 1 0 0 4 18 0 0 0 0 0 0 0 0 0 0 6 37 117 194 386 182 84 159 429 326 219 159 65 105 57
6 3 3 6 4 0 0 0 0 0 0 0 0 0 0 5 8 7 7 12 2 0 0 0 0 0 0 0 0 68 305 374 269 189 213 367 367 209 148 40 41 36 20
4 5 5 5 3 2 7 3 18 15 0 0 0 1 2 24 23 13 4 7 47 19 42 22 5 0 0 0 123 310 285 119 85 57 207 288 220 85 52 21 5 0 0
4 3 5 6 8 7 5 3 19 30 25 17 5 15 14 13 6 15 17 21 13 25 56 145 113 113 22 10 5 115 107 21 3 0 189 216 92 48 21 20 12 0 0

GFSGL_con_mlcape_087.txt.gz
CAPE
0 0 0 0 0 4 0 38 42 71 406 1076 1692 1682 1499 933 1008 1064 1515 1483 1460 1232 1660 1741 1717 1540 1502 1147 970 57 314 656 658 734 907 623 754 484 450 320 72 63 176
0 0 0 0 0 0 0 75 19 21 188 678 1327 1643 1383 912 429 28 188 758 490 1031 1225 1582 1737 1499 1440 1183 914 819 924 1018 1128 725 582 436 640 453 532 345 213 19 61
0 0 0 0 0 1 0 50 67 104 308 859 1123 1052 700 451 19 0 0 0 0 0 5 995 1193 1346 1299 1250 1105 993 1093 1084 709 564 498 418 282 219 241 373 313 309 145
0 0 0 0 0 0 82 160 208 64 0 245 778 477 152 23 11 35 19 44 0 0 11 63 203 743 1371 1425 1289 1119 872 710 353 384 222 53 90 22 183 125 279 150 89
0 0 0 0 0 0 0 136 166 16 47 212 401 113 11 0 0 5 0 0 0 0 7 286 713 1506 1489 1399 1069 584 192 13 0 4 0 1 4 0 5 93 94 31 16
1 0 0 0 0 0 0 0 78 1 3 268 147 87 0 0 0 0 0 18 132 306 274 651 793 743 668 637 411 0 0 0 0 0 0 0 0 0 0 56 66 0 0
12 1 0 0 0 0 0 0 2 0 0 53 74 208 5 0 0 0 22 272 300 395 694 411 314 187 32 0 0 0 0 0 0 0 0 0 0 0 0 6 30 84 20
6 5 10 7 0 0 0 0 0 0 0 0 0 5 109 143 0 0 0 114 493 441 270 144 55 1 0 0 0 0 0 0 0 0 0 0 0 0 2 234 214 97 116
4 9 7 6 9 1 0 0 0 0 0 0 0 0 0 20 5 0 0 215 482 234 161 43 19 7 0 0 0 0 0 0 0 0 0 0 0 0 32 142 336 257 138
3 3 3 0 5 9 0 0 0 0 0 0 0 12 40 51 150 20 119 605 292 229 172 30 3 0 0 0 0 0 0 0 0 0 3 0 0 0 0 92 440 571 155
2 2 5 3 1 11 5 0 0 0 0 0 0 0 8 29 3 114 571 464 278 177 130 17 0 0 0 0 0 0 0 0 0 0 0 0 0 0 17 311 360 401 202
2 2 2 1 2 3 3 0 0 0 0 0 1 1 0 1 215 347 540 365 248 159 139 39 0 0 0 0 0 0 0 0 0 0 0 0 0 0 433 984 603 399 220
1 1 2 1 2 2 5 6 0 0 4 0 0 1 0 21 0 20 436 374 220 141 64 15 0 0 0 0 0 0 0 0 0 0 0 0 0 81 963 1019 722 437 239
2 4 0 0 1 1 2 3 0 1 1 0 0 0 0 52 0 0 0 0 5 1 0 0 0 0 0 0 0 0 0 0 0 0 0 0 386 844 956 835 670 318 303
2 1 3 0 1 1 1 4 0 0 0 11 0 0 0 0 39 0 0 0 0 0 0 0 0 0 0 0 0 0 0 0 0 0 0 22 40 211 442 811 580 474 293
3 6 3 3 2 1 0 0 0 0 0 0 0 0 0 0 7 2 0 0 0 0 0 0 0 0 0 0 0 0 0 0 0 0 0 49 184 348 737 898 708 518 333
1 1 0 0 1 2 1 1 0 0 0 0 0 0 0 25 0 0 7 7 0 0 0 0 0 0 0 0 0 0 0 0 0 0 23 143 137 183 549 881 734 534 356
0 0 0 0 0 6 0 13 0 1 2 0 0 0 2 6 0 0 10 0 0 0 0 0 0 0 0 0 0 0 0 0 0 0 3 140 186 229 219 802 696 530 342
0 0 0 0 0 3 0 0 7 13 3 0 0 0 0 0 0 0 0 0 0 0 0 0 0 0 0 0 0 0 0 0 0 0 8 225 245 212 69 509 703 473 284
0 0 0 0 0 8 8 4 10 4 1 0 0 0 0 0 0 0 0 0 0 0 0 0 0 0 0 0 0 0 0 0 0 0 9 243 239 247 174 355 548 401 202
3 0 0 0 0 0 1 0 0 0 0 0 0 0 0 0 0 0 0 0 0 0 0 0 0 0 0 0 0 0 0 0 0 0 20 245 221 131 158 170 393 277 217
4 3 0 0 0 0 0 0 0 1 0 0 0 0 0 0 0 0 0 0 0 0 0 0 0 0 0 0 0 0 0 0 0 0 19 201 119 128 96 185 269 199 127
5 5 2 2 0 0 0 0 0 0 0 0 0 0 0 0 0 0 0 0 0 0 0 0 0 0 0 0 0 0 0 0 0 0 207 177 86 24 36 230 223 136 72
5 5 6 7 3 2 2 0 0 0 0 0 0 0 0 0 0 0 0 0 0 0 0 0 0 0 0 0 0 0 0 0 8 204 276 40 19 6 29 177 136 77 40
4 5 5 7 10 9 8 6 5 2 0 0 0 0 0 0 0 0 0 0 0 0 0 0 0 0 0 0 0 0 0 0 81 226 237 144 32 20 112 132 60 15 2
3 4 5 4 6 6 9 8 8 8 5 3 1 0 0 0 0 0 0 0 0 0 0 0 0 0 0 0 0 0 0 8 139 107 73 45 23 106 149 95 30 0 0

GFSGL_con_mlcape_090.txt.gz
CAPE
0 0 0 0 0 0 0 0 0 0 0 0 0 0 0 85 731 407 104 49 88 216 702 898 941 773 739 659 596 560 561 619 572 521 558 611 631 498 554 459 208 16 16
0 0 0 0 0 0 0 0 0 0 0 0 0 0 0 15 462 687 696 787 614 564 174 36 0 0 0 153 577 505 544 593 463 321 667 561 429 330 370 279 164 112 20
0 0 0 0 0 0 0 0 0 0 24 1 0 0 0 0 291 495 382 230 143 94 33 0 0 0 0 0 308 368 351 331 396 823 706 405 354 326 244 253 154 100 131
0 0 0 0 0 0 0 0 0 0 8 18 0 0 0 0 269 360 197 185 63 27 24 5 1 0 0 1 6 386 439 490 710 884 594 384 291 35 32 40 13 77 116
0 4 5 0 0 0 0 0 0 0 0 49 24 50 112 107 369 210 178 209 128 54 7 0 0 0 0 0 106 112 243 386 555 446 344 121 31 30 18 2 0 0 0
3 2 6 10 7 6 0 0 0 0 0 5 66 156 208 168 279 333 263 251 199 70 0 0 0 0 0 0 34 266 348 259 142 64 0 0 0 0 0 0 0 0 0
4 2 6 9 5 0 0 5 0 0 0 2 40 124 301 195 149 67 33 31 18 0 0 0 0 0 0 0 149 118 34 9 0 0 0 0 0 0 0 0 0 0 0
3 3 1 1 2 11 2 0 0 0 0 0 6 41 102 216 67 1 0 67 12 0 0 0 15 112 128 143 29 0 0 0 0 0 0 0 0 0 0 0 0 5 7
2 2 3 3 4 4 9 4 8 1 0 0 21 26 30 0 3 37 0 17 5 38 123 154 145 117 45 6 0 0 0 0 0 0 0 0 0 0 0 3 18 115 55
1 1 1 1 2 4 7 15 1 0 7 0 0 22 4 0 0 0 0 0 20 44 79 127 61 63 0 0 0 0 0 0 0 0 0 0 0 0 0 0 0 15 58
1 1 1 1 1 3 2 1 0 4 0 0 0 7 0 0 0 0 0 0 6 108 40 45 14 0 0 0 0 0 0 0 0 0 0 0 0 0 0 0 14 330 174
1 1 1 1 1 3 2 3 0 0 0 3 0 17 0 0 0 0 0 4 150 58 6 18 0 0 0 0 0 0 0 0 0 0 0 0 0 0 0 186 488 435 198
1 16 2 1 2 1 2 1 1 0 8 1 17 12 0 0 0 0 0 0 54 35 5 1 0 0 0 0 0 0 0 0 0 0 0 0 0 0 27 713 564 362 196
2 7 6 10 4 1 0 0 0 0 11 15 18 11 1 0 0 0 0 0 0 6 0 0 0 0 0 0 0 0 0 0 0 0 0 0 0 388 288 722 726 430 231
2 2 2 2 3 3 2 1 1 0 0 22 24 6 0 1 0 0 0 0 0 1 0 0 0 0 0 0 0 0 0 0 0 0 0 0 2 15 107 474 645 391 213
1 0 0 0 0 2 0 0 0 0 0 0 0 0 0 13 1 0 0 0 0 0 0 0 0 0 0 0 0 0 0 0 0 0 0 0 0 37 188 512 707 506 301
2 0 0 0 0 1 0 0 0 0 0 0 0 0 0 0 0 0 0 0 0 0 0 0 0 0 0 0 0 0 0 0 0 0 0 0 0 120 151 145 688 633 454
0 0 0 0 0 0 0 3 0 0 0 0 0 0 0 0 0 1 0 0 0 0 0 0 0 0 0 0 0 0 0 0 0 0 0 0 18 110 144 115 243 610 389
3 1 0 0 0 7 2 6 5 16 1 0 0 0 0 0 0 0 0 2 1 0 0 0 0 0 0 0 0 0 0 0 0 0 0 0 0 86 181 174 120 398 355
5 2 0 0 0 1 1 0 5 9 2 0 0 0 0 0 0 0 0 0 0 0 0 0 0 0 0 0 0 0 0 0 0 0 0 0 0 166 132 73 49 143 311
6 5 4 0 0 0 0 0 0 0 0 0 0 0 0 0 0 0 0 0 0 0 0 0 0 0 0 0 0 0 0 0 0 0 0 0 0 102 119 101 63 56 193
6 6 6 5 3 1 0 0 0 0 0 0 0 0 0 0 0 0 0 0 0 0 0 0 0 0 0 0 0 0 0 0 0 0 0 0 0 0 101 90 4 1 69
4 6 7 6 6 7 2 3 0 0 0 0 0 0 0 0 0 0 0 0 0 0 0 0 0 0 0 0 0 0 0 0 0 0 0 0 0 0 61 28 0 4 106
2 4 5 6 6 6 9 8 6 4 1 0 0 0 0 0 0 0 0 0 0 0 0 0 0 0 0 0 0 0 0 0 0 0 0 0 0 0 75 15 3 0 45
2 4 4 4 5 6 7 9 10 9 5 3 3 0 0 0 0 0 0 0 0 0 0 0 0 0 0 0 0 0 0 0 0 0 0 0 0 24 10 3 0 4 8
1 2 2 2 3 4 5 7 7 7 9 8 6 5 4 1 0 0 0 0 0 0 0 0 0 0 0 0 0 0 0 0 0 0 0 0 0 0 1 0 0 17 3

GFSGL_con_mlcape_093.txt.gz
CAPE
0 0 0 0 0 0 0 0 0 0 0 0 22 4 0 0 0 0 0 11 212 255 145 183 173 36 0 51 263 198 171 158 159 232 164 224 416 465 518 416 324 121 0
0 0 0 0 0 0 0 0 0 0 0 0 0 16 21 0 0 0 0 38 13 145 108 101 118 133 57 13 22 116 172 71 79 190 230 270 357 384 298 359 226 143 12
0 0 0 0 0 0 0 0 0 0 0 0 0 2 16 8 0 0 0 1 138 46 128 110 163 93 0 1 1 1 0 39 152 93 230 220 200 164 178 166 163 110 31
0 0 0 0 1 2 0 0 0 0 0 0 0 0 23 23 10 28 19 12 21 294 438 208 80 59 45 15 26 12 22 2 10 169 177 114 113 79 115 31 8 6 0
1 1 0 0 0 0 0 0 0 4 0 0 0 0 0 11 67 42 95 93 144 194 238 282 227 128 204 233 77 26 1 0 0 38 77 58 98 108 64 0 1 0 0
0 0 0 0 0 0 2 1 0 2 0 0 0 0 0 7 70 19 160 97 405 271 196 152 113 22 4 0 0 0 0 0 4 52 44 64 68 36 0 0 0 0 0
0 1 0 0 0 0 0 2 1 0 1 2 2 4 0 2 28 86 80 30 215 196 199 149 37 0 0 0 1 0 0 0 27 1 6 33 1 0 0 0 0 0 0
1 1 1 1 1 1 1 2 3 2 0 0 0 7 13 6 29 34 17 0 48 65 147 123 26 0 0 0 0 0 0 4 15 1 48 3 0 0 0 0 0 0 0
2 1 1 1 1 1 2 2 1 3 2 4 1 1 5 20 18 0 0 8 27 83 21 14 16 0 0 0 0 0 0 0 0 0 0 0 0 0 0 0 0 0 0
1 1 1 1 1 2 1 2 4 6 4 1 0 7 3 0 10 0 0 0 2 2 182 85 46 21 0 0 0 0 0 0 0 0 0 0 0 0 0 0 0 0 0
1 1 1 3 5 1 1 2 5 3 1 0 0 0 2 0 4 0 0 0 3 0 10 15 22 0 0 0 0 1 4 0 0 0 0 0 0 0 0 0 0 0 0
2 2 1 5 7 12 10 7 6 2 3 0 0 0 0 0 0 0 0 0 0 0 32 8 0 0 0 0 0 0 0 0 0 0 0 0 0 0 0 0 0 0 167
3 2 1 4 2 3 6 2 3 1 3 1 0 0 0 6 0 0 0 0 0 12 26 8 0 0 0 0 0 0 0 0 0 0 0 0 0 0 0 82 114 73 75
3 1 1 1 2 2 1 2 2 0 2 2 4 0 1 10 1 0 0 0 13 33 0 0 0 0 0 0 0 0 0 0 0 0 0 0 0 45 144 360 216 119 83
4 4 1 1 0 0 1 3 0 0 0 1 0 18 10 1 0 0 0 2 15 10 0 0 0 0 0 0 0 0 0 0 0 0 0 0 0 0 0 11 232 180 157
7 3 1 0 0 0 0 0 0 0 0 0 0 0 3 0 0 0 0 0 1 0 0 0 0 0 0 0 0 0 0 0 0 0 0 0 0 0 5 169 270 306 211
5 3 2 0 0 1 0 0 0 0 0 0 0 0 0 0 0 0 0 2 0 0 0 0 0 0 0 0 0 0 0 0 0 0 0 0 0 0 14 37 353 308 319
5 3 5 2 0 0 0 14 0 0 0 0 0 0 0 0 0 0 0 0 0 0 0 0 0 0 0 0 0 0 0 0 0 0 0 0 0 0 33 82 112 391 430
5 5 6 2 0 0 0 0 10 1 0 0 0 0 0 0 0 0 9 0 0 0 0 0 0 0 0 0 0 0 0 0 0 0 0 0 0 0 64 84 112 144 420
5 5 4 4 3 1 0 0 0 1 0 0 0 0 0 0 5 4 1 1 0 0 0 0 0 0 0 0 0 0 0 0 0 0 0 0 0 0 50 105 80 44 203
3 4 4 5 3 6 3 1 0 0 0 0 0 0 0 0 0 6 0 0 0 0 0 0 0 0 0 0 0 0 0 0 0 0 0 0 0 0 99 127 109 115 95
1 2 3 5 6 5 6 5 3 0 0 0 0 0 0 0 0 0 0 0 0 0 0 0 0 0 0 0 0 0 0 0 0 0 0 0 0 0 0 30 152 97 29
1 2 3 3 4 5 6 6 7 5 3 1 0 0 0 0 0 0 0 0 0 0 0 0 0 0 0 0 0 0 0 0 0 0 0 0 0 0 0 0 35 69 12
1 2 1 2 3 4 6 7 7 7 6 5 4 3 0 0 0 0 0 0 0 0 0 0 0 0 0 0 0 0 0 0 0 0 0 0 0 0 0 0 32 42 5
1 2 2 1 1 2 4 4 6 6 7 6 8 7 3 5 1 0 0 0 0 0 0 0 0 0 0 0 0 0 0 0 0 0 0 0 0 0 0 0 29 0 1
0 0 1 1 1 0 1 2 3 4 6 6 6 7 6 7 6 4 1 0 0 0 0 0 0 0 0 0 0 0 0 0 0 0 0 0 0 0 0 0 1 0 0

GFSGL_con_mlcape_096.txt.gz
CAPE
0 0 0 0 0 0 0 0 0 0 0 0 0 0 0 0 0 0 0 0 0 20 63 7 52 137 177 129 76 31 1 18 0 0 65 85 77 132 222 218 231 123 105
0 0 0 0 0 0 0 0 0 0 0 0 0 0 0 0 0 0 0 0 0 0 11 48 57 155 141 62 19 0 1 36 11 8 88 112 108 191 268 299 240 160 70
0 0 0 0 0 0 0 0 0 0 0 0 0 0 0 0 0 18 19 3 0 23 41 44 61 100 128 102 65 153 175 147 69 65 36 2 52 63 107 123 177 184 82
0 0 0 0 0 0 0 0 0 0 0 0 0 3 5 1 0 0 28 37 16 21 60 97 70 80 69 75 97 82 125 3 0 0 0 0 0 27 71 140 114 108 54
0 0 0 0 0 0 0 0 0 0 0 5 2 8 6 0 0 0 1 8 21 22 73 117 139 163 148 122 144 160 118 44 0 0 0 0 0 6 85 81 118 21 4
1 1 0 0 0 0 0 0 0 0 0 1 0 0 0 0 0 0 0 0 8 19 73 111 157 329 238 196 141 186 165 61 4 0 0 0 7 37 70 80 10 7 3
1 0 0 0 1 1 1 0 0 0 0 1 9 4 6 0 0 0 0 0 0 34 74 132 162 359 411 215 74 98 118 34 1 21 0 0 13 8 27 37 1 1 0
0 0 0 0 0 2 7 5 1 0 1 4 2 6 0 0 0 0 0 0 0 38 52 123 317 228 170 215 173 148 137 19 0 0 0 0 1 7 49 51 7 0 0
0 1 1 1 1 1 4 2 1 1 0 2 4 4 3 0 0 0 0 3 11 14 43 101 197 166 52 63 190 123 29 3 0 0 1 0 0 0 6 0 0 0 0
2 2 1 1 1 3 5 22 12 5 2 4 2 1 2 0 0 0 3 18 55 23 16 64 32 135 35 4 76 104 49 6 0 0 0 0 0 0 0 0 0 0 0
2 2 2 1 1 3 4 15 21 11 4 5 2 1 0 0 0 0 1 28 34 26 44 10 38 11 16 0 6 8 8 0 0 0 0 0 0 0 0 0 0 0 0
2 3 3 2 2 4 1 5 8 6 4 2 2 1 0 0 0 0 38 1 0 37 0 1 14 0 0 0 8 0 0 0 0 0 0 0 0 0 0 0 0 0 0
4 4 2 2 1 1 1 0 3 5 2 0 1 2 0 0 0 5 0 0 0 1 61 3 0 0 1 0 0 0 2 17 7 0 0 0 0 0 0 0 0 0 0
5 4 3 1 2 1 1 1 6 2 2 1 2 2 1 0 13 25 0 0 0 0 0 0 2 1 0 0 8 19 0 0 0 0 0 0 0 0 0 0 2 9 37
6 5 3 2 2 1 1 1 0 0 0 0 0 1 0 0 2 0 0 0 2 8 2 3 0 0 0 0 0 0 0 0 0 0 0 0 0 0 83 118 79 39 54
7 5 3 4 2 1 1 2 0 0 0 0 0 0 0 0 0 0 0 0 8 0 2 0 0 0 0 0 0 0 0 0 0 0 0 0 0 0 0 93 116 93 62
6 5 5 5 1 1 1 4 0 0 0 0 0 0 0 0 0 0 0 0 21 15 0 0 0 0 0 0 0 0 0 0 0 0 0 0 0 0 26 98 187 123 92
4 4 6 5 4 3 0 2 1 0 0 0 0 0 0 0 0 1 0 0 0 0 0 0 0 0 0 0 0 0 0 0 0 0 0 0 0 0 1 71 221 251 228
3 4 4 5 5 3 2 0 0 0 0 0 0 0 0 0 0 0 0 0 0 1 0 0 0 0 0 0 0 0 0 0 0 0 0 0 0 0 14 23 37 112 270
2 3 4 5 6 6 4 4 1 0 0 0 0 0 0 0 0 0 0 0 0 0 0 0 0 0 0 0 0 0 0 0 0 0 0 0 0 0 18 33 58 34 165
1 2 2 3 4 5 6 7 4 2 0 0 0 0 0 0 0 0 0 0 0 0 0 0 0 0 0 0 0 0 0 0 0 0 0 0 0 6 10 58 65 43 53
1 2 2 3 2 4 5 5 5 7 3 1 2 0 0 0 0 0 0 1 0 0 0 0 0 0 0 0 0 0 0 0 0 0 0 0 0 0 2 90 138 168 92
0 2 2 2 1 2 3 4 5 5 6 6 5 5 1 0 0 0 0 0 0 0 0 0 0 0 0 0 0 0 0 0 0 0 0 0 0 0 0 0 0 95 120
0 0 1 2 1 1 2 3 3 4 5 6 8 6 6 6 3 3 1 0 0 0 0 0 0 0 0 0 0 0 0 0 0 0 0 0 0 0 0 0 0 0 102
0 0 0 1 1 3 2 1 2 2 4 4 5 5 5 6 6 5 4 1 0 0 0 0 0 0 0 0 0 0 0 0 0 0 0 0 0 0 0 0 0 0 61
0 0 0 0 0 0 2 3 3 1 2 3 4 4 4 5 5 6 6 5 5 1 0 0 0 0 0 0 0 0 0 0 0 0 0 0 0 0 0 0 0 0 65

GFSGL_con_mlcape_102.txt.gz
CAPE
0 0 0 0 0 0 0 0 0 0 0 0 0 0 0 0 1 2 1 0 0 12 1 69 77 77 44 38 84 67 56 28 6 4 16 86 502 471 280 464 548 795 564
0 0 0 0 0 0 0 0 0 0 1 2 3 2 2 2 3 4 3 4 5 6 21 14 34 62 92 153 90 67 70 71 18 41 90 104 492 496 442 397 550 440 532
0 0 0 0 0 0 0 0 1 1 1 2 3 3 4 3 4 3 2 5 2 5 13 15 17 43 51 66 66 95 75 92 29 15 27 100 285 680 442 400 298 532 679
0 0 0 0 0 0 1 3 4 4 0 2 5 5 5 8 3 1 2 3 2 8 16 23 8 36 64 52 49 72 98 94 63 11 55 5 281 475 632 485 398 647 586
0 0 0 0 0 2 3 3 3 13 14 11 7 6 8 10 5 7 11 7 16 11 0 0 17 25 38 66 70 55 61 45 37 37 31 35 90 310 546 542 539 942 843
0 0 0 0 2 2 3 5 6 8 12 8 15 18 15 4 1 0 0 1 1 9 0 0 0 5 11 12 16 24 47 54 58 31 26 24 57 215 536 508 480 429 659
0 0 0 3 3 2 4 3 5 9 13 2 22 1 26 2 3 0 0 0 1 4 10 1 2 6 0 14 27 0 0 2 13 32 13 5 2 354 685 582 534 601 546
0 0 0 3 2 4 6 5 1 1 1 8 11 24 17 7 0 0 0 3 2 2 0 1 0 4 0 0 36 104 55 57 56 31 54 11 146 640 544 252 220 114 633
0 0 0 0 1 6 0 2 3 2 1 8 6 24 16 7 0 0 0 5 1 2 7 12 15 8 0 0 0 47 75 50 64 55 74 174 180 197 432 218 168 232 226
0 0 0 1 3 2 1 1 1 1 3 8 2 1 3 0 1 0 0 1 1 1 0 0 0 1 2 0 0 51 12 12 32 57 190 136 84 78 41 266 155 272 95
0 0 0 2 3 1 2 5 2 2 9 8 5 0 2 1 0 0 0 0 2 3 1 1 9 6 0 0 0 5 34 29 90 140 248 248 176 88 68 89 157 269 115
1 1 2 3 2 0 4 0 1 4 10 0 1 1 2 1 4 4 0 0 0 5 3 1 2 10 0 0 0 0 0 3 109 295 255 166 138 121 146 176 278 365 158
2 3 2 2 0 2 2 2 3 6 1 6 4 1 0 2 5 0 0 0 0 0 0 0 0 0 0 0 0 0 0 9 103 225 248 94 107 338 376 339 368 214 105
4 5 2 3 4 1 1 2 15 2 1 2 4 6 3 3 1 0 5 5 1 2 1 0 1 0 2 0 0 0 0 81 176 299 319 96 9 22 97 184 142 58 48
4 3 2 4 6 1 1 2 2 1 0 1 1 2 4 5 3 3 1 1 1 1 0 0 1 1 0 2 0 0 52 68 81 48 53 11 6 5 21 24 26 19 6
4 4 3 5 4 1 2 2 0 0 0 0 0 0 3 3 2 0 0 0 0 0 3 0 4 6 7 5 2 12 21 5 1 2 1 2 25 6 1 7 27 86 80
2 3 2 2 3 2 4 3 3 0 0 0 0 0 0 0 0 0 0 0 0 15 14 5 6 0 0 0 0 5 0 6 0 21 62 33 0 3 56 101 159 139 101
0 1 1 1 2 1 2 3 2 1 1 0 0 0 0 0 0 0 3 12 32 46 36 12 37 26 30 18 0 0 31 25 35 0 56 40 112 98 100 204 194 159 136
1 0 0 0 0 0 0 2 2 0 1 2 0 0 0 1 1 0 0 50 52 62 56 40 37 36 53 77 84 100 80 146 166 100 85 142 137 147 200 87 188 212 199
0 0 0 0 0 0 0 2 4 3 2 1 0 0 0 2 1 4 4 3 3 93 104 67 114 169 12 14 66 96 177 196 194 165 180 181 191 203 280 291 357 367 270
0 0 0 0 0 0 0 1 2 3 2 1 0 0 0 4 8 7 8 4 2 0 61 85 69 110 44 30 15 12 17 27 136 248 232 193 172 130 236 440 419 463 362
0 0 0 0 0 0 0 0 0 0 1 1 0 0 0 0 5 7 7 8 5 0 0 8 88 116 88 80 87 77 60 29 6 69 244 262 278 231 121 85 159 396 226
0 0 0 0 0 0 0 0 0 0 0 0 1 0 0 0 1 4 6 6 5 1 0 0 0 7 122 142 90 89 78 54 86 103 135 225 249 215 160 127 133 107 202
0 0 0 0 0 0 0 0 0 0 0 0 1 0 0 0 0 0 3 3 3 4 0 0 1 0 0 20 124 101 84 39 34 51 42 54 68 44 59 128 234 235 221
0 0 0 0 0 0 0 0 0 0 0 0 0 1 0 0 0 0 0 0 0 1 4 2 0 0 0 1 0 0 0 0 0 0 5 0 0 0 0 0 0 17 190
0 0 0 1 1 0 0 0 0 0 0 0 0 0 2 1 0 1 0 0 0 0 1 2 3 0 0 3 2 3 0 0 0 0 0 15 0 0 0 0 0 0 0

GFSGL_con_mlcape_105.txt.gz
CAPE
0 0 0 0 0 0 0 0 0 0 0 0 0 0 0 0 1 4 5 5 1 4 13 2 2 19 34 38 325 175 49 32 45 52 29 5 1 57 480 763 543 404 240
0 0 0 0 0 0 0 0 0 0 0 2 3 3 2 2 0 1 1 3 1 3 9 1 1 25 19 21 56 100 124 124 66 45 101 61 19 26 375 757 795 672 626
0 0 0 0 0 0 0 1 2 3 2 2 2 1 1 0 0 1 3 0 0 3 0 0 8 1 10 19 31 50 67 132 131 84 64 65 20 2 129 396 743 656 676
0 0 0 0 0 0 1 3 3 4 2 6 7 9 5 3 6 9 6 7 5 7 6 19 19 4 0 6 14 15 45 38 120 132 69 48 17 23 39 54 458 686 559
0 0 0 0 0 1 5 2 5 4 9 10 11 6 10 1 7 8 12 14 17 4 9 11 8 18 3 0 0 0 31 52 33 47 80 76 56 21 15 24 133 482 701
0 0 0 0 2 4 5 2 1 0 1 10 11 13 4 0 10 1 0 12 6 4 2 8 17 13 10 0 0 0 0 2 49 20 57 42 34 38 17 24 78 540 508
0 0 0 1 5 5 5 5 6 11 13 11 13 15 9 3 1 7 1 2 5 3 3 13 14 7 4 1 0 0 0 0 0 29 23 33 52 46 21 19 40 530 599
0 0 1 3 5 3 2 6 9 6 8 14 5 1 5 7 1 2 0 0 1 0 0 5 7 12 14 7 2 0 5 1 39 13 25 52 68 49 17 0 45 642 737
0 0 0 0 0 1 3 2 5 5 2 0 1 5 8 1 1 0 0 0 1 1 0 9 7 6 0 1 4 2 0 0 0 20 32 12 4 0 3 42 25 508 555
1 0 0 0 1 1 3 8 3 9 1 3 2 5 4 1 1 0 0 3 2 1 3 0 0 0 0 0 0 3 8 0 0 140 31 19 0 0 0 40 50 328 124
1 0 0 0 5 5 2 0 7 0 6 0 5 4 3 0 1 0 0 0 1 1 1 1 0 0 0 0 0 1 8 0 11 21 49 61 56 102 100 150 76 78 208
1 1 1 2 0 2 3 1 3 4 3 2 0 0 1 2 0 0 0 0 0 0 0 0 0 0 0 2 0 1 0 0 0 2 34 65 65 37 73 103 183 66 249
1 2 2 2 2 1 1 2 1 1 6 0 4 2 1 0 1 0 0 0 0 0 0 0 0 0 0 0 0 0 0 0 0 5 6 59 160 112 227 189 225 301 309
2 2 1 1 0 0 1 2 2 1 1 3 5 4 2 2 2 2 3 4 1 2 1 2 2 2 0 3 1 0 0 0 3 12 0 144 369 295 198 266 294 291 132
1 1 1 0 0 0 1 1 0 0 0 0 0 2 3 3 4 7 1 0 0 0 0 0 1 3 2 2 7 28 26 26 1 0 30 52 150 181 253 335 270 173 46
0 1 2 0 0 0 0 0 0 0 0 0 0 0 2 3 3 0 0 0 0 0 0 5 3 1 2 3 6 5 1 18 72 89 10 120 111 113 126 190 183 78 0
3 0 0 0 0 0 0 2 2 0 0 0 0 0 0 1 3 1 0 5 23 6 11 24 4 0 1 2 2 2 17 26 3 32 4 4 2 1 2 5 9 0 0
1 0 0 0 0 0 0 1 2 0 0 0 0 0 0 0 3 3 2 0 3 14 0 31 40 18 0 2 3 6 0 0 0 0 0 1 0 0 0 0 0 0 30
0 0 0 0 0 0 0 0 0 0 0 0 0 0 0 0 2 0 1 5 1 0 43 8 36 27 26 0 24 27 2 0 0 10 0 3 8 11 12 0 3 0 11
0 0 0 0 0 0 0 0 0 0 1 0 0 0 0 2 4 7 8 7 0 0 2 30 85 116 150 106 77 66 80 35 9 5 9 21 15 34 7 16 11 39 137
0 0 0 0 0 0 0 0 0 0 0 0 0 0 0 0 4 6 8 8 4 0 0 1 2 29 145 102 96 214 115 102 103 163 160 90 98 125 114 59 35 85 210
0 0 0 0 0 0 0 0 0 0 0 0 0 0 0 0 1 3 5 6 3 0 0 0 0 1 3 1 23 63 106 158 279 293 263 244 263 190 158 255 232 227 198
0 0 0 0 0 0 0 0 0 0 0 0 0 0 0 0 0 1 2 2 2 2 0 0 0 0 0 2 0 0 0 0 34 255 300 252 274 260 325 175 363 442 313
0 0 0 0 0 0 0 0 0 0 0 0 0 0 0 0 0 0 0 1 2 2 2 0 0 1 1 1 0 0 1 0 0 0 48 165 207 228 226 214 164 359 416
0 0 0 0 0 0 0 0 0 0 0 0 0 0 0 0 0 0 0 1 1 2 2 2 0 0 0 1 0 0 0 0 0 0 0 49 95 67 71 205 180 281 248
0 0 0 0 1 1 1 0 0 0 0 0 0 0 0 0 0 1 0 1 0 0 0 1 2 0 0 0 0 0 0 0 0 0 0 24 79 51 24 2 5 246 366

GFSGL_con_mlcape_108.txt.gz
CAPE
0 0 0 0 0 0 0 0 0 0 0 0 0 0 0 0 0 0 0 0 0 1 0 0 0 0 0 0 1 5 37 39 72 41 12 33 102 73 216 711 751 558 439
0 0 0 0 0 0 0 0 0 0 0 0 0 0 0 0 1 2 1 4 6 4 0 0 0 0 0 0 0 0 28 19 23 7 0 0 49 18 35 56 270 489 645
0 0 0 0 0 0 0 0 0 0 0 0 0 0 0 1 4 5 4 5 4 4 7 8 3 1 3 0 0 2 1 6 21 15 4 28 27 45 35 4 5 165 437
0 0 0 0 0 0 0 0 0 0 0 0 5 5 3 5 4 6 3 5 11 14 15 16 8 12 14 5 5 3 3 0 1 16 12 27 61 62 43 20 7 35 47
0 0 0 0 0 0 0 0 4 0 0 1 1 5 10 14 12 3 0 0 0 0 6 6 5 3 13 26 13 0 2 0 1 2 9 23 18 31 40 38 26 30 62
0 0 0 0 0 0 1 6 2 1 8 12 10 9 5 2 2 1 0 0 0 0 0 0 0 5 0 5 11 5 1 0 0 0 4 4 15 25 21 37 61 12 20
0 0 0 0 0 3 3 0 0 0 6 5 8 7 3 2 0 0 0 0 2 0 0 1 1 0 0 2 9 9 7 7 1 0 0 0 2 18 46 57 46 13 1
0 0 0 0 0 0 0 0 1 3 4 10 4 2 0 0 0 0 0 0 0 0 0 1 1 0 0 0 0 0 4 14 18 27 7 9 0 2 31 21 31 28 21
0 0 0 0 0 0 1 0 3 5 5 8 0 0 0 0 0 0 0 0 0 0 0 0 0 0 0 0 1 0 0 0 27 23 4 0 0 5 9 29 24 12 0
0 0 0 0 0 0 0 1 6 9 3 3 0 0 0 0 0 0 0 0 0 0 0 0 0 0 0 0 0 0 2 0 0 18 0 0 0 0 8 0 0 0 0
0 0 0 0 0 0 2 0 8 2 0 0 0 0 0 3 0 0 0 0 3 5 3 4 1 0 0 0 0 1 3 0 0 1 3 0 0 13 39 5 6 0 0
0 0 0 0 0 0 0 1 0 3 1 0 0 0 1 0 0 0 0 2 2 3 4 3 2 0 0 0 0 0 0 1 3 5 1 0 33 63 7 33 54 13 14
0 0 0 0 0 0 0 0 0 0 0 0 0 0 0 0 0 1 6 2 0 3 1 0 0 0 0 0 0 0 0 0 3 2 0 0 45 72 105 77 19 177 85
0 0 0 0 0 0 0 0 0 0 1 0 0 1 2 0 3 6 7 5 0 0 0 1 3 4 2 1 0 0 0 2 2 0 0 13 11 33 28 101 15 144 123
0 0 0 0 0 0 0 0 0 0 0 0 0 0 2 1 4 3 5 4 0 0 0 0 1 0 1 2 1 1 0 1 0 2 1 0 0 0 20 107 128 102 163
0 0 0 0 0 0 0 0 0 0 0 0 0 0 0 1 3 3 0 0 0 0 11 3 2 1 0 0 3 6 35 2 0 0 0 0 0 61 84 95 117 133 136
0 0 0 0 0 0 0 0 0 0 0 0 0 0 0 0 1 1 1 0 0 0 6 36 0 0 4 3 7 5 5 7 0 0 4 3 6 39 74 312 182 79 2
0 0 0 0 0 0 0 0 0 0 0 0 0 0 0 0 0 1 1 0 0 0 2 3 15 3 5 0 1 0 0 1 1 3 6 0 0 41 102 127 96 32 1
0 0 0 0 0 0 0 0 0 0 0 0 0 0 0 0 0 0 1 5 3 3 2 2 4 3 2 31 1 0 0 0 0 4 1 0 1 0 6 29 11 1 1
0 0 0 0 0 0 0 0 0 0 0 0 0 0 0 0 2 4 3 5 4 3 3 2 3 3 2 4 2 19 0 0 6 10 0 0 0 0 0 0 0 6 33
0 0 0 0 0 0 0 0 0 0 0 0 0 0 0 0 2 2 3 4 4 2 3 3 3 3 2 3 5 8 7 0 1 35 13 13 7 0 0 0 0 4 20
0 0 0 0 0 0 0 0 0 0 0 0 0 0 0 0 0 1 1 2 1 1 2 2 2 2 1 4 1 4 10 8 0 0 21 60 16 0 5 0 0 2 35
0 0 0 0 0 0 0 0 0 0 0 0 0 0 0 0 0 0 0 1 0 1 1 1 2 1 1 5 2 1 6 13 4 3 0 16 158 67 81 99 135 158 186
0 0 0 0 0 0 0 0 0 0 0 0 0 0 0 0 0 0 0 0 1 2 1 1 2 1 1 0 1 1 1 0 0 0 5 0 43 44 60 21 103 236 186
0 0 0 0 0 0 0 0 0 0 0 0 0 0 0 0 0 0 0 0 0 0 1 1 1 0 1 0 0 0 1 4 0 0 0 0 13 91 215 246 164 205 106
0 0 0 0 0 0 0 0 1 1 0 0 0 0 0 0 0 1 2 0 0 0 0 0 0 1 0 1 0 0 0 0 0 0 0 0 0 0 99 207 240 231 178

GFSGL_con_mlcape_111.txt.gz
CAPE
0 0 0 0 0 0 0 0 0 0 0 0 0 0 0 0 0 0 0 0 0 0 0 0 0 0 0 0 0 0 0 0 4 15 12 34 6 2 169 231 375 493 553
0 0 0 0 0 0 0 0 0 0 0 0 0 0 0 0 0 0 0 0 0 0 1 1 0 0 0 0 0 0 0 0 8 8 11 7 0 0 7 77 503 618 520
0 0 0 0 0 0 0 0 0 0 0 0 0 0 0 0 0 0 1 4 0 2 2 2 0 0 0 0 0 0 0 3 3 15 5 1 2 0 0 14 129 251 473
0 0 0 0 0 0 0 0 0 0 0 0 0 0 0 0 0 0 2 3 2 0 2 12 2 0 3 0 0 0 0 0 0 12 9 11 5 0 15 9 33 58 42
0 0 0 0 0 0 0 0 0 0 0 0 0 1 2 0 0 0 0 0 0 0 0 0 0 0 2 3 2 0 0 1 1 4 3 5 3 0 14 2 21 7 15
0 0 0 0 0 0 0 0 0 0 0 0 1 0 0 0 0 0 0 0 0 0 0 0 0 0 0 1 1 4 1 0 3 1 3 5 2 0 0 2 14 13 15
0 0 0 0 0 0 0 0 0 0 0 0 0 0 0 0 0 0 0 0 0 0 0 0 0 0 0 0 1 1 1 0 1 1 0 1 0 0 0 0 10 18 20
0 0 0 0 0 0 0 0 0 0 0 1 0 0 0 0 0 0 0 0 0 0 0 0 0 0 0 0 0 0 0 0 0 0 0 0 0 0 0 1 0 14 43
0 0 0 0 0 0 0 0 0 1 1 0 0 0 0 1 2 3 0 0 2 2 1 2 3 0 0 0 0 1 0 0 0 0 0 0 1 0 0 0 3 13 32
0 0 0 0 0 0 0 0 0 0 1 0 0 0 0 0 1 0 0 5 2 4 3 1 1 4 0 0 0 0 1 0 0 0 0 0 0 0 0 0 0 3 17
0 0 0 0 0 0 0 0 0 0 0 0 0 0 0 0 0 0 0 0 9 10 9 3 1 1 0 0 0 0 1 0 0 0 1 1 0 0 0 0 0 9 0
0 0 0 0 0 0 0 0 0 0 0 0 0 0 0 0 0 0 0 0 6 8 1 2 2 1 0 0 0 0 0 0 2 2 3 3 2 0 0 5 0 0 1
0 0 0 0 0 0 0 0 0 0 0 0 0 0 0 0 0 0 0 1 0 2 2 3 0 0 0 0 1 1 0 1 3 3 1 1 0 0 6 63 15 16 2
0 0 0 0 0 0 0 0 0 0 0 0 1 0 0 3 3 3 5 3 0 0 0 0 0 0 0 0 1 1 0 0 3 3 2 0 0 0 28 74 79 71 30
0 0 0 0 0 0 0 0 0 0 0 0 0 0 0 3 4 2 3 2 0 0 0 1 3 1 1 0 0 0 1 0 2 2 0 0 1 1 1 0 10 37 7
0 0 0 0 0 0 0 0 0 0 0 0 0 0 0 0 1 2 0 0 0 0 1 4 4 3 3 3 4 8 13 0 1 0 0 0 4 0 0 3 32 54 13
0 0 0 0 0 0 0 0 0 0 0 0 0 0 0 0 0 0 0 0 0 0 4 3 3 4 5 4 7 13 2 11 0 0 0 0 0 0 0 11 104 61 53
0 0 0 0 0 0 0 0 0 0 0 0 0 0 0 0 0 0 0 0 0 2 5 3 3 3 3 4 5 5 2 1 14 22 4 6 1 6 2 49 103 30 7
0 0 0 0 0 0 0 0 0 0 0 0 0 0 0 0 0 0 0 3 4 4 4 4 2 2 3 3 3 5 6 6 2 4 2 3 1 6 47 100 74 11 4
0 0 0 0 0 0 0 0 0 0 0 0 0 0 0 0 0 2 1 1 2 1 1 2 2 3 1 3 3 2 6 9 7 0 3 0 0 2 71 54 5 1 2
0 0 0 0 0 0 0 0 0 0 0 0 0 0 0 0 0 0 0 0 1 1 1 1 2 1 1 2 4 4 8 11 12 10 5 0 0 3 0 10 6 5 6
0 0 0 0 0 0 0 0 0 0 0 0 0 0 0 0 0 0 1 1 1 2 2 1 1 1 1 1 2 4 8 13 12 14 12 4 0 0 0 0 0 5 16
0 0 0 0 0 0 0 0 0 0 0 0 0 0 0 0 0 0 0 0 1 1 2 1 2 1 2 2 1 1 1 8 8 7 16 9 2 2 0 0 0 56 16
0 0 0 0 0 0 0 0 0 0 0 0 0 0 0 0 0 0 0 0 0 0 0 3 2 2 0 2 1 1 1 3 6 9 11 4 5 2 5 42 8 83 43
0 0 0 0 0 0 0 0 0 0 0 0 0 0 0 0 0 0 0 0 0 0 0 0 1 1 1 1 0 1 3 1 1 2 6 5 2 0 0 19 52 38 17
0 0 0 0 0 0 0 0 0 0 0 0 0 0 0 0 0 0 0 0 0 0 0 0 0 0 0 1 0 1 2 3 1 0 2 0 0 0 0 19 68 21 13

GFSGL_con_mlcape_114.txt.gz
CAPE
0 0 0 0 0 0 0 0 0 0 0 0 0 0 0 0 0 0 0 0 0 0 0 0 0 0 0 0 0 0 0 0 0 0 1 10 8 12 0 0 0 15 48
0 0 0 0 0 0 0 0 0 0 0 0 0 0 0 0 0 0 0 0 0 0 1 0 0 1 0 0 0 0 0 0 0 0 0 0 0 1 5 0 0 0 28
0 0 0 0 0 0 0 0 0 0 0 0 0 0 0 0 0 0 0 0 0 2 0 0 0 0 0 0 0 0 0 0 0 0 0 0 0 0 0 0 6 1 14
0 0 0 0 0 0 0 0 0 0 0 0 0 0 0 0 0 0 0 0 0 0 0 0 0 0 0 0 0 0 0 0 0 0 3 7 3 0 1 0 0 1 0
0 0 0 0 0 0 0 0 0 0 0 0 0 0 0 0 0 0 0 0 0 0 0 0 0 0 0 0 0 0 0 0 0 0 1 0 2 4 0 0 2 0 0
0 0 0 0 0 0 0 0 0 0 0 0 0 0 0 0 0 0 0 0 0 0 0 0 0 0 0 0 0 0 0 0 3 0 0 0 1 1 0 0 0 0 4
0 0 0 0 0 0 0 0 0 0 0 0 0 0 0 0 0 0 0 0 0 0 1 1 0 0 0 0 0 0 0 0 0 0 1 2 3 0 0 0 0 1 0
0 0 0 0 0 0 0 0 0 0 0 0 0 0 0 0 0 1 0 0 0 0 0 1 2 1 0 0 0 0 0 0 0 0 0 0 0 0 0 0 0 0 4
0 0 0 0 0 0 0 0 0 0 0 0 0 0 0 0 0 0 0 3 1 2 2 0 1 3 1 1 1 1 0 0 0 0 0 0 0 0 0 0 6 21 13
0 0 0 0 0 0 0 0 0 0 0 0 0 0 0 0 0 0 0 5 5 3 0 0 0 2 1 0 1 2 1 0 0 0 0 0 0 0 0 0 0 14 4
0 0 0 0 0 0 0 0 0 0 0 0 0 0 0 0 0 1 3 5 6 5 1 0 1 0 0 0 0 1 3 0 0 0 1 0 0 0 0 0 0 3 1
0 0 0 0 0 0 0 0 0 0 0 0 0 0 0 0 1 3 4 4 2 5 1 1 0 0 0 0 0 1 2 0 1 2 1 2 2 2 1 0 0 0 0
0 0 0 0 0 0 0 0 0 0 0 0 0 0 0 0 1 3 4 0 0 2 1 0 0 0 0 0 0 0 0 3 3 2 3 2 1 0 1 1 4 0 0
0 0 0 0 0 0 0 0 0 0 0 0 0 0 0 3 3 3 5 0 2 0 0 1 1 1 2 2 0 0 0 0 0 1 3 2 1 2 2 2 5 17 9
0 0 0 0 0 0 0 0 0 0 0 0 0 1 3 4 4 2 1 1 2 0 0 2 2 4 4 4 4 3 2 0 0 1 1 1 1 2 1 5 61 73 35
0 0 0 0 0 0 0 0 0 0 0 0 0 0 1 0 1 1 0 0 0 0 3 6 6 5 5 4 6 8 7 5 2 0 0 0 0 2 10 24 37 87 59
0 0 0 0 0 0 0 0 0 0 0 0 0 0 0 0 0 0 0 0 0 1 7 5 5 4 3 4 3 4 9 9 5 0 0 0 0 0 0 2 4 42 29
0 0 0 0 0 0 0 0 0 0 0 0 0 0 0 0 0 0 0 0 0 2 4 4 3 4 3 5 3 5 10 8 10 7 2 0 3 1 2 1 0 28 30
0 0 0 0 0 0 0 0 0 0 0 0 0 0 0 0 0 0 0 2 3 3 2 2 2 2 2 2 3 3 4 5 9 11 8 4 3 2 1 23 35 58 6
0 0 0 0 0 0 0 0 0 0 0 0 0 0 0 0 0 0 0 0 0 0 1 1 1 1 1 1 2 3 4 6 10 12 12 8 3 2 23 45 55 13 7
0 0 0 0 0 0 0 0 0 0 0 0 0 0 0 0 0 0 1 0 0 0 1 1 1 1 1 1 2 3 4 4 6 10 11 10 4 1 3 27 19 8 2
0 0 0 0 0 0 0 0 0 0 0 0 0 0 0 0 0 0 0 0 0 1 1 1 1 1 1 1 1 2 4 10 9 9 7 7 5 2 2 3 29 5 1
0 0 0 0 0 0 0 0 0 0 0 0 0 0 0 0 0 0 0 0 0 1 0 0 1 1 1 2 1 1 2 6 6 5 8 6 6 3 1 3 4 1 2
0 0 0 0 0 0 0 0 0 0 0 0 0 0 0 0 0 0 0 0 0 0 0 0 1 1 1 2 0 1 1 1 3 6 6 6 5 3 0 2 1 1 0
0 0 0 0 0 0 0 0 0 0 0 0 0 0 0 0 0 0 0 0 0 0 0 0 1 0 0 1 0 0 1 2 3 3 5 7 7 6 0 0 15 2 0
0 0 0 0 0 0 0 0 0 0 0 0 0 0 0 0 0 0 0 0 0 0 0 0 0 1 1 1 0 0 1 2 2 0 2 5 9 7 7 1 49 24 0

GFSGL_con_mlcape_117.txt.gz
CAPE
0 0 0 0 0 0 0 0 0 0 0 0 0 0 0 0 0 0 0 0 0 0 0 0 0 0 0 0 0 0 0 0 0 0 0 0 0 0 0 0 0 0 0
0 0 0 0 0 0 0 0 0 0 0 0 0 0 0 0 0 0 0 0 0 0 0 0 0 0 0 0 0 0 0 0 0 0 0 0 0 0 0 0 0 0 0
0 0 0 0 0 0 0 0 0 0 0 0 0 0 0 0 0 0 0 0 0 0 0 0 0 0 0 0 0 0 0 0 0 0 0 0 0 0 0 0 5 5 0
0 0 0 0 0 0 0 0 0 0 0 0 0 0 0 0 0 0 0 0 0 0 0 0 0 0 0 0 0 0 0 0 0 0 1 0 0 0 1 0 0 0 0
0 0 0 0 0 0 0 0 0 0 0 0 0 0 0 0 0 0 0 0 0 0 0 0 0 0 0 0 1 0 0 0 1 1 1 0 0 0 0 0 0 0 0
0 0 0 0 0 0 0 0 0 0 0 0 0 0 0 0 0 0 0 0 0 0 0 0 0 0 0 0 0 0 1 1 1 1 1 1 0 0 0 0 0 0 0
0 0 0 0 0 0 0 0 0 0 0 0 0 0 0 0 0 0 0 0 0 0 0 0 0 0 0 1 0 0 0 0 1 2 1 0 0 0 0 0 0 0 0
0 0 0 0 0 0 0 0 0 0 0 0 0 0 0 0 0 0 0 0 0 0 0 2 2 1 1 2 1 2 2 1 1 0 1 0 0 0 0 0 0 0 0
0 0 0 0 0 0 0 0 0 0 0 0 0 0 0 0 0 0 1 2 1 0 1 1 1 2 0 0 2 4 3 2 1 0 0 0 0 0 0 0 1 1 1
0 0 0 0 0 0 0 0 0 0 0 0 0 0 0 0 0 1 2 4 7 5 3 1 0 0 0 0 0 1 2 1 2 1 0 0 0 0 0 0 1 3 2
0 0 0 0 0 0 0 0 0 0 0 0 0 0 0 0 0 1 2 5 5 8 7 1 1 0 0 0 0 0 1 2 3 2 2 0 0 0 0 0 0 1 2
0 0 0 0 0 0 0 0 0 0 0 0 0 0 0 0 0 2 1 3 2 5 1 2 1 0 0 0 0 0 0 0 2 4 4 2 2 1 1 0 1 0 0
0 0 0 0 0 0 0 0 0 0 0 0 0 0 0 1 1 1 1 2 2 1 1 0 0 0 0 2 1 0 3 0 0 3 3 3 2 1 1 2 3 0 0
0 0 0 0 0 0 0 0 0 0 0 0 0 2 4 3 3 4 2 1 0 0 0 2 0 0 1 1 1 2 4 3 4 2 0 1 1 1 3 4 4 1 1
0 0 0 0 0 0 0 0 0 0 0 0 0 1 3 4 2 2 1 0 0 0 1 2 3 4 5 5 5 4 4 5 5 5 1 0 1 1 0 0 1 5 9
0 0 0 0 0 0 0 0 0 0 0 0 0 0 0 0 0 0 0 0 0 0 2 6 8 6 6 5 6 7 5 6 6 6 5 0 2 1 1 9 12 2 6
0 0 0 0 0 0 0 0 0 0 0 0 0 0 0 0 0 0 0 0 0 0 4 5 6 6 4 3 4 3 4 3 2 6 7 6 1 0 0 0 9 3 17
0 0 0 0 0 0 0 0 0 0 0 0 0 0 0 0 0 0 0 0 1 0 2 2 4 3 3 3 4 3 3 3 5 7 9 10 6 5 1 7 19 41 57
0 0 0 0 0 0 0 0 0 0 0 0 0 0 0 0 0 0 0 0 1 1 1 1 1 1 1 1 2 2 2 3 2 6 7 9 10 9 2 4 29 16 28
0 0 0 0 0 0 0 0 0 0 0 0 0 0 0 0 0 0 0 1 1 1 0 0 1 0 1 1 1 2 3 4 5 6 7 7 9 9 6 2 12 22 10
0 0 0 0 0 0 0 0 0 0 0 0 0 0 0 0 0 0 1 1 1 1 1 1 1 0 0 1 1 1 2 5 4 4 6 6 7 8 6 22 5 32 5
0 0 0 0 0 0 0 0 0 0 0 0 0 0 0 0 0 0 0 1 1 0 0 1 1 1 1 1 0 1 2 3 6 6 6 6 6 8 6 2 11 3 0
0 0 0 0 0 0 0 0 0 0 0 0 0 0 0 0 0 0 0 1 1 0 0 0 0 1 0 0 1 1 1 2 2 2 7 5 5 8 7 2 6 1 1
0 0 0 0 0 0 0 0 0 0 0 0 0 0 0 0 0 0 0 0 0 0 0 0 0 0 0 0 2 2 1 2 1 2 4 3 5 9 8 2 1 2 2
0 0 0 0 0 0 0 0 0 0 0 0 0 0 0 0 0 0 0 0 0 0 0 0 0 0 0 0 0 1 1 1 2 2 2 2 7 9 8 2 2 2 1
0 0 0 0 0 0 0 0 0 0 0 0 0 0 0 0 0 0 0 0 0 0 0 1 1 1 1 1 1 1 1 2 2 1 1 2 6 6 9 7 3 2 4

GFSGL_con_mlcape_120.txt.gz
CAPE
0 0 0 0 0 0 0 0 0 0 0 0 0 0 0 0 0 0 0 0 0 0 0 0 0 0 0 0 0 0 0 0 0 0 0 0 0 0 0 0 0 0 0
0 0 0 0 0 0 0 0 0 0 0 0 0 0 0 0 0 0 0 0 0 0 0 0 0 0 0 0 0 0 0 0 0 0 0 0 0 0 0 0 0 0 0
0 0 0 0 0 0 0 0 0 0 0 0 0 0 0 0 0 0 0 0 0 0 0 0 0 0 0 0 0 0 0 1 1 2 1 0 0 0 0 0 0 0 0
0 0 0 0 0 0 0 0 0 0 0 0 0 0 0 0 0 0 0 0 0 0 0 0 0 0 0 0 2 1 1 1 1 2 0 0 0 0 0 0 0 0 0
0 0 0 0 0 0 0 0 0 0 0 0 0 0 0 0 0 0 0 0 0 0 0 0 0 0 2 2 3 2 2 2 1 1 2 1 1 0 0 0 0 0 0
0 0 0 0 0 0 0 0 0 0 0 0 0 0 0 0 0 0 0 0 0 0 0 0 0 0 0 1 2 1 2 3 3 3 2 2 1 1 0 0 0 1 2
0 0 0 0 0 0 0 0 0 0 0 0 0 0 0 0 0 0 0 0 0 0 0 1 0 0 1 0 0 1 1 2 2 3 3 2 2 0 0 0 1 2 1
0 0 0 0 0 0 0 0 0 0 0 0 0 0 0 0 0 0 0 0 0 0 2 2 2 1 0 0 0 2 4 3 2 1 1 1 1 2 0 0 0 1 1
0 0 0 0 0 0 0 0 0 0 0 0 0 0 0 0 0 0 0 1 0 0 0 0 2 1 0 0 1 3 3 1 0 0 0 0 0 0 0 0 0 2 2
0 0 0 0 0 0 0 0 0 0 0 0 0 0 0 0 0 0 1 1 1 1 2 1 0 0 0 0 0 2 5 3 5 2 2 1 0 0 0 0 1 3 3
0 0 0 0 0 0 0 0 0 0 0 0 0 0 0 0 1 1 0 4 5 7 2 0 0 0 0 0 0 3 3 0 1 1 3 1 1 0 0 0 0 2 3
0 0 0 0 0 0 0 0 0 0 0 0 0 0 0 1 1 2 0 2 2 4 4 1 1 0 0 0 1 0 0 2 4 5 4 2 3 2 1 0 1 0 1
0 0 0 0 0 0 0 0 0 0 0 0 0 3 3 1 1 2 0 1 1 2 1 0 0 0 1 1 0 0 1 4 6 5 7 3 2 0 3 4 3 1 0
0 0 0 0 0 0 0 0 0 0 0 0 2 4 3 2 2 2 1 2 1 0 0 1 0 0 0 0 0 1 1 2 4 6 5 4 0 1 1 2 3 3 4
0 0 0 0 0 0 0 0 0 0 0 0 0 1 2 4 2 1 0 0 0 0 0 0 2 3 4 3 2 3 2 3 5 5 6 8 5 1 0 0 1 1 2
0 0 0 0 0 0 0 0 0 0 0 0 0 0 0 0 0 0 0 0 0 0 1 4 4 4 4 5 6 6 2 4 4 4 5 7 8 7 3 1 0 1 3
0 0 0 0 0 0 0 0 0 0 0 0 0 0 0 0 0 0 0 0 0 0 2 1 1 2 3 2 3 4 5 3 1 2 3 5 6 8 6 4 2 3 1
0 0 0 0 0 0 0 0 0 0 0 0 0 0 0 0 0 0 0 0 0 0 0 0 0 1 2 1 2 2 5 3 3 3 3 3 5 8 8 3 3 10 3
0 0 0 0 0 0 0 0 0 0 0 0 0 0 0 0 0 0 0 0 0 0 0 0 1 1 2 0 0 1 2 2 1 3 3 3 4 5 7 9 5 31 18
0 0 0 0 0 0 0 0 0 0 0 0 0 0 0 0 0 0 0 0 1 0 1 0 0 1 1 1 0 0 2 2 3 4 4 4 4 5 7 8 3 39 51
0 0 0 0 0 0 0 0 0 0 0 0 0 0 0 0 0 0 0 0 0 0 0 0 0 0 1 1 1 1 1 2 2 2 4 4 4 6 6 8 3 25 18
0 0 0 0 0 0 0 0 0 0 0 0 0 0 0 0 0 0 0 0 0 0 0 0 0 1 1 1 0 1 1 2 2 3 4 5 4 5 6 9 1 1 0
0 0 0 0 0 0 0 0 0 0 0 0 0 0 0 0 0 0 0 1 0 0 0 0 0 0 0 1 2 0 2 1 1 1 3 4 4 4 8 6 1 1 0
0 0 0 0 0 0 0 0 0 0 0 0 0 0 0 0 0 0 0 0 0 0 1 1 0 0 1 1 1 2 2 1 2 1 2 3 4 4 7 8 3 2 0
0 0 0 0 0 0 0 0 0 0 0 0 0 0 0 0 0 0 0 0 0 0 0 1 1 1 1 1 0 1 1 0 2 2 1 2 2 4 5 8 5 2 4
0 0 0 0 0 0 0 0 0 0 0 0 0 0 0 0 0 0 0 0 0 0 0 1 2 1 1 1 1 0 0 0 1 2 1 1 4 6 4 7 8 5 2

GFSGL_con_mlcape_123.txt.gz
CAPE
0 0 0 0 0 0 0 0 0 0 0 0 0 0 0 0 0 0 0 0 0 0 1 2 1 4 2 2 2 1 2 3 3 2 2 1 2 2 1 2 0 0 0
0 0 0 0 0 0 0 0 0 0 0 0 0 0 0 0 0 0 0 0 0 0 1 4 4 4 4 4 3 2 3 3 1 2 1 0 0 1 4 3 3 0 0
0 0 0 0 0 0 0 0 0 0 0 0 0 0 0 0 0 0 0 1 4 3 4 1 0 2 2 3 1 2 4 3 3 4 3 1 0 1 2 3 4 6 4
0 0 0 0 0 0 0 0 0 0 0 0 0 0 0 0 0 3 3 4 1 0 0 0 0 1 3 0 2 3 3 3 3 3 2 2 2 0 1 2 3 6 6
0 0 0 0 0 0 0 0 0 0 0 0 0 0 2 1 1 1 0 0 0 0 0 0 0 0 1 2 1 2 3 3 4 4 3 3 2 2 2 1 2 6 8
0 0 0 0 0 0 0 0 0 0 0 0 0 2 7 1 0 0 0 0 0 0 0 0 0 0 0 0 1 2 2 4 4 4 4 4 3 3 2 2 3 3 5
0 0 0 0 0 0 0 0 0 0 0 1 6 10 8 6 0 0 0 0 0 0 0 0 0 0 1 3 2 3 2 1 2 4 4 2 2 2 2 4 2 4 5
0 0 0 0 0 0 0 0 1 0 2 5 8 1 0 0 0 0 0 0 0 0 0 0 2 2 3 1 3 3 0 1 2 3 4 3 2 2 5 5 2 2 1
0 0 0 0 0 0 0 0 0 0 2 0 1 0 0 0 0 0 0 0 0 0 1 1 1 1 0 0 3 5 3 1 0 0 1 1 0 0 0 2 2 1 2
0 0 0 0 0 0 0 0 0 0 0 0 0 0 0 0 0 0 1 0 3 4 1 1 0 0 0 0 3 5 5 1 3 3 3 2 2 3 0 1 2 2 2
0 0 0 0 0 0 0 0 0 0 0 0 0 0 1 1 1 1 0 3 6 6 1 0 0 0 0 0 0 1 3 1 2 4 4 3 2 2 4 1 1 2 2
0 0 0 0 0 0 0 0 0 0 0 0 0 0 0 1 0 1 0 1 2 4 1 1 0 0 0 0 0 0 0 1 3 5 7 5 5 3 1 3 1 1 1
0 0 0 0 0 0 0 0 0 0 0 0 0 0 0 0 0 1 0 0 0 1 0 0 0 0 0 0 0 0 1 4 5 7 7 7 7 5 2 0 3 1 1
0 0 0 0 0 0 0 0 0 0 0 0 0 0 0 0 0 0 0 0 0 0 1 0 0 0 0 0 0 0 0 2 3 4 5 4 3 5 4 2 2 2 2
0 0 0 0 0 0 0 0 0 0 0 0 0 0 0 1 0 0 0 0 0 0 0 0 0 0 0 0 0 0 1 2 3 2 3 5 5 5 6 4 2 1 1
0 0 0 0 0 0 0 0 0 0 0 0 0 0 0 0 0 0 0 0 0 0 0 0 0 0 0 0 0 0 0 3 3 2 2 2 4 6 5 6 4 3 1
0 0 0 0 0 0 0 0 0 0 0 0 0 0 0 0 0 0 0 0 0 0 0 0 0 0 0 0 0 0 0 1 1 1 2 2 3 4 6 6 7 6 3
0 0 0 0 0 0 0 0 0 0 0 0 0 0 0 0 0 0 0 0 0 0 0 0 0 0 0 0 0 0 0 1 1 1 2 2 2 4 5 7 9 7 4
0 0 0 0 0 0 0 0 0 0 0 0 0 0 0 0 0 0 0 0 0 0 0 0 0 0 0 0 0 0 0 1 1 1 2 2 2 3 5 6 10 8 1
0 0 0 0 0 0 0 0 0 0 0 0 0 0 0 0 0 0 0 0 0 0 0 0 0 0 0 0 0 0 0 0 2 1 2 2 2 3 3 8 10 9 2
0 0 0 0 0 0 0 0 0 0 0 0 0 0 0 0 0 0 0 0 0 0 0 0 0 0 0 0 0 0 0 0 2 1 2 3 3 3 2 5 10 8 9
0 0 0 0 0 0 0 0 0 0 0 0 0 0 0 0 0 0 0 0 0 0 0 0 0 0 0 0 0 0 0 0 3 2 2 4 2 2 4 7 9 1 1
0 0 0 0 0 0 0 0 0 0 0 0 0 0 0 0 0 0 0 0 0 0 0 0 0 0 0 0 0 0 0 1 3 3 1 3 2 3 4 7 7 2 0
0 0 0 0 0 0 0 0 0 0 0 0 0 0 0 0 0 0 0 0 0 0 0 0 0 0 0 0 0 0 0 3 3 2 2 1 5 4 6 8 8 3 2
0 0 0 0 0 0 0 0 0 0 0 0 0 0 0 0 0 0 0 0 0 0 0 0 0 0 0 0 0 0 0 0 1 1 2 1 2 5 5 6 7 6 3
0 0 0 0 0 0 0 0 0 0 0 0 0 0 0 0 0 0 0 0 0 0 0 0 0 0 0 0 0 0 1 1 1 1 0 0 0 5 5 6 5 8 6

GFSGL_con_mlcape_126.txt.gz
CAPE
0 0 0 0 0 0 0 0 0 0 0 0 0 0 0 0 0 0 0 0 0 3 6 5 6 2 3 3 7 4 5 7 12 2 1 0 0 0 0 4 9 9 8
0 0 0 0 0 0 0 0 0 0 0 0 0 0 0 0 0 0 0 0 1 2 5 4 8 6 1 0 1 1 9 2 7 3 2 1 1 6 7 9 5 6 7
0 0 0 0 0 0 0 0 0 1 2 0 0 0 0 0 0 0 1 4 4 5 7 5 2 3 4 3 0 4 5 3 4 4 3 2 1 1 2 4 6 6 11
0 0 0 0 0 0 1 2 2 1 0 0 1 0 0 2 2 4 3 2 2 3 5 1 1 4 2 2 3 3 2 3 2 3 3 3 3 1 2 2 3 6 3
0 0 0 0 0 0 0 0 0 0 0 1 0 2 6 4 0 0 0 0 0 0 0 0 3 2 0 1 1 4 4 4 4 4 4 3 3 4 4 3 3 2 1
0 0 0 0 0 0 0 0 0 0 4 5 3 3 0 0 0 0 0 0 0 1 0 1 4 1 0 0 1 0 1 2 4 3 3 3 4 4 4 3 4 5 3
0 0 0 0 0 0 0 0 2 4 3 0 0 1 1 0 0 0 0 0 0 1 2 2 3 1 1 1 0 0 0 0 0 1 2 2 4 4 5 4 4 5 3
0 0 0 0 0 0 0 2 2 0 1 1 0 0 1 0 0 0 0 0 0 3 4 2 2 3 0 0 0 0 0 0 1 0 1 3 2 3 2 3 3 2 4
0 0 0 0 0 1 2 3 1 0 0 0 0 5 1 0 0 0 0 0 1 2 2 2 1 2 0 0 0 0 0 0 0 0 0 0 0 0 0 0 0 3 3
0 0 0 0 1 2 2 1 2 2 0 0 1 4 0 3 0 0 1 0 1 0 1 5 0 0 0 0 0 0 0 0 0 0 0 0 0 1 0 0 2 2 3
0 0 0 0 1 1 0 0 0 0 0 0 0 1 2 0 0 0 0 1 1 1 2 1 1 0 0 0 0 0 0 0 0 0 1 0 0 1 1 5 8 0 2
0 0 2 1 0 0 0 0 0 0 0 0 0 0 0 2 0 0 0 0 1 1 0 0 0 0 0 0 0 0 0 0 0 1 2 2 2 2 2 3 3 5 1
0 0 1 0 0 0 0 0 0 0 0 0 0 0 0 0 0 0 0 0 0 0 0 0 0 0 0 0 0 0 0 0 0 5 7 3 2 2 2 2 2 4 4
0 0 0 0 1 1 0 0 0 0 0 0 0 0 0 0 0 0 0 0 0 0 0 0 0 0 0 0 0 0 0 0 1 6 4 2 2 1 3 2 4 4 3
0 0 0 0 0 0 0 0 0 0 0 0 0 0 0 0 0 0 0 0 0 0 0 0 0 0 0 0 0 0 0 0 0 2 2 3 2 2 3 2 4 4 4
0 0 0 0 0 0 0 0 0 0 0 0 0 0 0 0 0 0 0 0 0 0 0 0 0 0 0 0 0 0 0 0 0 0 1 2 2 3 4 4 3 5 6
0 0 0 0 0 0 0 0 0 0 0 0 0 0 0 0 0 0 0 0 0 0 0 0 0 0 0 0 0 0 0 0 0 0 1 2 2 2 3 5 5 6 6
0 0 0 0 0 0 0 0 0 0 0 0 0 0 0 0 0 0 0 0 0 0 0 0 0 0 0 0 0 0 0 0 0 0 1 1 1 2 3 5 5 7 5
0 0 0 0 0 0 0 0 0 0 0 0 0 0 0 0 0 0 0 0 0 0 0 0 0 0 0 0 0 0 0 0 0 0 1 2 1 1 3 3 4 7 7
0 0 0 0 0 0 0 0 0 0 0 0 0 0 0 0 0 0 0 0 0 0 0 0 0 0 0 0 0 0 0 0 0 0 1 1 1 1 2 3 6 7 8
0 0 0 0 0 0 0 0 0 0 0 0 0 0 0 0 0 0 0 0 0 0 0 0 0 0 0 0 0 0 0 0 0 0 1 1 2 2 2 3 5 9 7
0 0 0 0 0 0 0 0 0 0 0 0 0 0 0 0 0 0 0 0 0 0 0 0 0 0 0 0 0 0 0 0 0 1 1 1 1 1 2 3 5 9 7
0 0 0 0 0 0 0 0 0 0 0 0 0 0 0 0 0 0 0 0 0 0 0 0 0 0 0 0 0 0 0 0 2 4 2 1 0 1 2 3 6 7 7
0 0 0 0 0 0 0 0 0 0 0 0 0 0 0 0 0 0 0 0 0 0 0 0 0 0 0 0 0 0 0 0 1 0 1 1 0 1 2 4 4 7 8
0 0 0 0 0 0 0 0 0 0 0 0 0 0 0 0 0 0 0 0 0 0 0 0 0 0 0 0 0 0 0 1 0 0 0 0 0 0 3 4 4 5 6
0 0 0 0 0 0 0 0 0 0 0 0 0 0 0 0 0 0 0 0 0 0 0 0 0 0 0 0 0 0 0 1 0 0 0 0 0 0 0 5 4 4 5

GFSGL_con_mlcape_129.txt.gz
CAPE
33 4 3 1 0 0 0 0 0 0 0 0 0 0 0 0 0 0 1 0 1 6 7 6 4 4 5 4 2 3 3 12 19 7 3 1 2 4 6 13 12 8 10
4 0 1 0 0 0 0 0 0 0 0 0 0 0 0 0 0 2 2 6 4 2 2 2 2 1 1 1 2 5 9 3 5 3 1 7 4 3 6 2 0 2 4
0 0 0 0 0 0 0 0 0 0 0 0 0 0 0 1 2 8 4 0 2 4 2 2 3 4 2 2 1 1 3 1 2 9 3 3 4 3 2 4 4 3 6
0 0 0 0 0 0 0 0 1 1 2 2 2 1 3 8 9 1 1 2 4 6 7 3 7 2 2 2 0 1 1 4 2 3 2 2 1 0 2 4 3 3 1
0 0 0 0 0 0 0 0 1 3 3 3 5 8 4 6 0 0 0 0 0 2 6 4 9 0 0 0 0 2 4 1 1 2 2 2 2 2 3 3 6 4 3
0 0 0 0 0 0 0 0 1 3 6 7 2 0 0 0 0 0 0 0 0 1 3 3 0 1 0 0 0 0 0 0 1 2 2 3 3 6 3 3 3 4 3
0 0 0 0 0 0 0 1 3 0 2 3 2 0 0 0 0 0 0 0 0 2 2 0 1 1 0 0 0 0 0 0 0 0 2 3 1 2 3 3 3 4 4
0 0 0 0 0 0 0 2 0 1 1 4 3 2 0 0 0 0 0 0 1 1 0 0 1 5 0 0 0 0 0 0 0 0 0 0 0 0 0 1 3 3 2
0 0 0 0 0 0 1 2 0 0 2 2 0 0 0 1 0 0 0 0 0 0 2 1 0 0 0 0 0 1 0 0 0 0 0 0 0 0 0 0 0 1 1
0 0 0 0 0 0 4 0 0 0 2 0 1 0 0 1 0 0 0 0 0 0 3 1 0 0 0 0 0 0 0 0 0 0 0 0 0 1 0 1 3 4 4
0 0 0 0 0 5 3 1 0 0 0 0 0 0 1 0 0 0 0 0 1 1 2 1 0 0 0 0 0 0 0 0 0 0 0 0 0 0 0 0 1 3 4
0 0 0 0 0 1 1 1 0 0 2 0 2 0 0 1 0 0 0 0 0 1 0 0 0 0 0 0 0 0 0 0 0 0 0 0 0 0 0 0 1 2 3
0 0 0 0 0 0 0 0 0 0 0 0 0 0 2 1 0 0 0 0 0 0 0 0 0 0 0 0 0 0 0 0 0 0 0 0 0 1 1 2 2 1 1
0 0 0 0 0 0 0 0 0 0 0 0 0 0 0 0 0 0 0 0 0 0 0 0 0 0 0 0 0 0 0 0 0 0 0 0 0 0 1 1 3 4 5
0 0 0 0 0 0 0 0 0 0 0 0 0 0 0 0 0 0 0 0 0 0 0 0 0 0 0 0 0 0 0 0 0 0 0 0 1 2 1 1 2 3 5
0 0 0 0 0 0 0 0 0 0 0 0 0 0 0 0 0 0 0 0 0 0 0 0 0 0 0 0 0 0 0 0 0 0 0 0 1 1 2 1 2 3 7
0 0 0 0 0 0 0 0 0 0 0 0 0 0 0 0 0 0 0 0 0 0 0 0 0 0 0 0 0 0 0 0 0 0 0 0 1 1 1 3 3 3 6
0 0 0 0 0 0 0 0 0 0 0 0 0 0 0 0 0 0 0 0 0 0 0 0 0 0 0 0 0 0 0 0 0 0 0 1 0 1 2 2 3 4 6
0 0 0 0 0 0 0 0 0 0 0 0 0 0 0 0 0 0 0 0 0 0 0 0 0 0 0 0 0 0 0 0 0 0 0 0 0 1 1 2 2 4 5
0 0 0 0 0 0 0 0 0 0 0 0 0 0 0 0 0 0 0 0 0 0 0 0 0 0 0 0 0 0 0 0 0 0 0 0 0 0 1 2 3 5 8
0 0 0 0 0 0 0 0 0 0 0 0 0 0 0 0 0 0 0 0 0 0 0 0 0 0 0 0 0 0 0 0 0 0 2 1 1 0 1 1 2 3 6
0 0 0 0 0 0 0 0 0 0 0 0 0 0 0 0 0 0 0 0 0 0 0 0 0 0 0 0 0 0 0 0 0 0 2 1 0 0 1 1 1 2 4
0 0 0 0 0 0 0 0 0 0 0 0 0 0 0 0 0 0 0 0 0 0 0 0 0 0 0 0 0 0 0 0 0 2 1 0 0 0 0 2 3 4 5
0 0 0 0 0 0 0 0 0 0 0 0 0 0 0 0 0 0 0 0 0 0 0 0 0 0 0 0 0 0 0 0 0 0 0 0 6 1 0 0 2 3 3
0 0 0 0 0 0 0 0 0 0 0 0 0 0 0 0 0 0 0 0 0 0 0 0 0 0 0 0 0 0 0 0 0 0 0 0 0 0 0 0 3 4 4
0 0 0 0 0 0 0 0 0 0 0 0 0 0 0 0 0 0 0 0 0 0 0 0 0 0 0 0 0 0 0 0 0 0 0 0 0 0 0 0 0 4 5

GFSGL_con_mlcape_132.txt.gz
CAPE
119 20 9 2 2 0 0 0 0 0 0 0 0 0 0 0 0 0 0 0 1 0 0 3 1 1 2 9 4 2 4 4 13 1 0 0 0 0 0 0 4 2 4
2 2 2 0 0 0 0 0 0 0 0 0 0 0 0 0 0 0 0 0 0 0 3 0 2 2 4 1 4 4 2 0 1 2 1 0 1 0 0 2 1 2 8
6 3 0 0 0 0 0 0 0 0 0 0 0 0 0 0 0 1 0 0 0 0 1 1 2 3 2 6 3 0 0 0 0 3 1 0 0 0 0 0 2 4 9
2 0 0 0 0 0 0 0 0 1 0 0 0 0 0 0 0 0 0 0 0 0 0 1 7 11 2 0 0 0 0 1 0 0 0 0 0 0 0 1 1 4 1
3 2 1 0 0 0 0 0 0 0 0 1 1 0 0 0 0 0 0 0 0 0 0 5 15 0 0 0 0 0 0 0 0 0 1 2 3 3 6 5 4 2 1
0 0 0 0 0 0 0 0 0 0 0 0 0 0 0 0 0 0 0 0 0 0 3 6 2 1 0 0 0 0 0 0 0 0 2 4 2 2 4 3 2 3 4
0 0 0 0 0 0 0 0 0 0 0 1 0 0 0 0 0 0 0 0 0 3 0 0 0 0 0 0 0 0 0 1 0 0 0 0 1 1 2 1 1 2 2
0 0 0 0 0 0 0 0 0 4 1 0 0 0 0 0 0 0 0 0 0 0 0 0 0 0 0 0 0 0 0 0 0 0 0 0 1 0 0 0 0 0 2
0 0 0 0 0 0 0 0 0 0 0 1 0 0 0 0 0 0 0 0 0 0 0 0 0 0 0 0 0 0 0 0 0 0 0 0 1 0 0 0 2 4 4
0 0 0 0 0 0 0 0 0 1 0 1 0 2 0 0 0 0 0 0 0 0 0 0 0 0 0 0 0 0 0 0 0 0 0 0 0 0 0 0 1 2 3
0 0 0 0 0 0 0 2 1 0 0 0 0 0 0 0 0 0 0 0 0 0 0 0 0 0 0 0 0 0 0 0 0 0 0 0 0 0 1 1 2 2 3
0 0 0 0 0 0 0 0 0 0 2 2 5 2 1 0 0 0 0 0 0 0 0 0 0 0 0 0 0 0 0 0 0 0 0 0 0 0 1 2 2 1 2
0 0 0 0 0 0 0 0 0 0 0 0 0 0 0 0 0 0 0 0 0 0 0 0 0 0 0 0 0 0 0 0 0 0 0 0 0 1 2 1 0 0 1
0 0 0 0 0 0 0 0 0 0 0 0 0 0 0 0 0 0 0 0 0 0 0 0 0 0 0 0 0 0 0 0 0 0 0 0 0 0 0 0 1 2 5
0 0 0 0 0 0 0 0 0 0 0 0 0 0 0 0 0 0 0 0 0 0 0 0 0 0 0 0 0 0 0 0 0 0 0 0 0 0 0 0 1 1 4
0 0 0 0 0 0 0 0 0 0 0 0 0 0 0 0 0 0 0 0 0 0 0 0 0 0 0 0 0 0 0 0 0 0 0 0 1 1 1 1 0 1 4
0 0 0 0 0 0 0 0 0 0 0 0 0 0 0 0 0 0 0 0 0 0 0 0 0 0 0 0 0 0 0 0 0 0 0 0 0 0 0 1 1 2 5
0 0 0 0 0 0 0 0 0 0 0 0 0 0 0 0 0 0 0 0 0 0 0 0 0 0 0 0 0 0 0 0 0 0 0 1 0 1 1 1 1 3 4
0 0 0 0 0 0 0 0 0 0 0 0 0 0 0 0 0 0 0 0 0 0 0 0 0 0 0 0 0 0 0 0 0 0 0 1 0 1 0 1 1 2 2
0 0 0 0 0 0 0 0 0 0 0 0 0 0 0 0 0 0 0 0 0 0 0 0 0 0 0 0 0 0 0 0 0 0 0 0 1 1 0 1 1 3 4
0 0 0 0 0 0 0 0 0 0 0 0 0 0 0 0 0 0 0 0 0 0 0 0 0 0 0 0 0 0 0 0 0 0 1 0 1 1 1 0 1 1 2
0 0 0 0 0 0 0 0 0 0 0 0 0 0 0 0 0 0 0 0 0 0 0 0 0 0 0 0 0 0 0 0 0 0 0 0 1 0 1 0 1 1 2
0 0 0 0 0 0 0 0 0 0 0 0 0 0 0 0 0 0 0 0 0 0 0 0 0 0 0 0 0 0 0 0 0 0 0 0 0 1 0 0 0 2 2
0 0 0 0 0 0 0 0 0 0 0 0 0 0 0 0 0 0 0 0 0 0 0 0 0 0 0 0 0 0 0 0 0 0 0 0 0 0 0 0 0 0 2
0 0 0 0 0 0 0 0 0 0 0 0 0 0 0 0 0 0 0 0 0 0 0 0 0 0 0 0 0 0 0 0 0 0 0 0 1 0 0 0 0 0 2
0 0 0 0 0 0 0 0 0 0 0 0 0 0 0 0 0 0 0 0 0 0 0 0 0 0 0 0 0 0 0 0 0 0 0 0 0 0 0 0 0 0 1